[[{"header":{"parameterUnit":"m.s-1","parameterCategory":1,"la1":31.0,"la2":29.5877,"lo1":-88.7671,"lo2":-86.6584,"dy":0.0162,"dx":0.0185,"nx":115,"ny":88,"refTime":"2023-06-18T18:00:00:Z","depth":0,"parameterNumber":2,"parameterNumberName":"U-component_of_WINDS"},"data":[0.0,0.0,0.0,0.0,0.0,0.0,0.0,0.0,0.0,0.0,0.0,0.0,0.0,0.0,0.0,0.0,0.0,0.0,0.0,0.0,0.0,0.0,0.0,0.0,0.0,0.0,0.0,0.0,0.0,0.0,0.0,0.0,0.0,0.0,0.0,0.0,0.0,0.0,0.0,0.0,0.0,0.0,0.0,0.0,0.0,0.0,0.0,0.0,0.0,0.0,0.0,0.0,0.0,0.0,0.0,0.0,0.0,0.0,0.0,0.0,0.0,0.0,0.0,0.0,0.0,0.0,0.0,0.0,0.0,0.0,0.0,0.0,0.0,0.0,0.0,0.0,0.0,0.0,0.0,0.0,0.0,0.0,0.0,0.0,0.0,0.0,0.0,0.0,0.0,0.0,0.0,0.0,0.0,0.0,0.0,0.0,0.0,0.0,0.0,0.0,0.0,0.0,0.0,0.0,0.0,0.0,0.0,0.0,0.0,0.0,0.0,0.0,0.0,0.0,0.0,0.0,0.0,0.0,0.0,0.0,0.0,0.0,0.0,0.0,0.0,0.0,0.0,0.0,0.0,0.0,0.0,0.0,0.0,0.0,0.0,0.0,0.0,0.0,0.0,0.0,0.0,0.0,0.0,0.0,0.0,0.0,0.0,0.0,0.0,0.0,0.0,0.0,0.0,0.0,0.0,0.0,0.0,0.0,0.0,0.0,0.0,0.0,0.0,0.0,0.0,0.0,0.0,0.0,0.0,0.0,0.0,0.0,0.0,0.0,0.0,0.0,0.0,0.0,0.0,0.0,0.0,0.0,0.0,0.0,0.0,0.0,0.0,0.0,0.0,0.0,0.0,0.0,0.0,0.0,0.0,0.0,0.0,0.0,0.0,0.0,0.0,0.0,0.0,0.0,0.0,0.0,0.0,0.0,0.0,0.0,0.0,0.0,0.0,0.0,0.0,0.0,0.0,0.0,0.0,0.0,0.0,0.0,0.0,0.0,0.0,0.0,0.0,0.0,0.0,0.0,0.0,0.0,0.0,0.0,0.0,0.0,0.0,0.0,0.0,0.0,0.0,0.0,0.0,0.0,0.0,0.0,0.0,0.0,0.0,0.0,0.0,0.0,0.0,0.0,0.0,0.0,0.0,0.0,0.0,0.0,0.0,0.0,0.0,0.0,0.0,0.0,0.0,0.0,0.0,0.0,0.0,0.0,0.0,0.0,0.0,0.0,0.0,0.0,0.0,0.0,0.0,0.0,0.0,0.0,0.0,0.0,0.0,0.0,0.0,0.0,0.0,0.0,0.0,0.0,0.0,0.0,0.0,0.0,0.0,0.0,0.0,0.0,0.0,0.0,0.0,0.0,0.0,0.0,0.0,0.0,0.0,0.0,0.0,0.0,0.0,0.0,0.0,0.0,0.0,0.0,0.0,0.0,0.0,0.0,0.0,0.0,0.0,0.0,0.0,0.0,0.0,0.0,0.0,0.0,0.0,0.0,0.0,0.0,0.0,0.0,0.0,0.0,0.0,0.0,0.0,0.0,0.0,0.0,0.0,0.0,0.0,0.0,0.0,0.0,0.0,0.0,0.0,0.0,0.0,0.0,0.0,0.0,0.0,0.0,0.0,0.0,0.0,0.0,0.0,0.0,0.0,0.0,0.0,0.0,0.0,0.0,0.0,0.0,0.0,0.0,0.0,0.0,0.0,0.0,0.0,0.0,0.0,0.0,0.0,0.0,0.0,0.0,0.0,0.0,0.0,0.0,0.0,0.0,0.0,0.0,0.0,0.0,0.0,0.0,0.0,0.0,0.0,0.0,0.0,0.0,0.0,0.0,0.0,0.0,0.0,0.0,0.0,0.0,0.0,0.0,0.0,0.0,0.0,0.0,0.0,0.0,0.0,0.0,0.0,0.0,0.0,0.0,0.0,0.0,0.0,0.0,0.0,0.0,0.0,0.0,0.0,0.0,0.0,0.0,0.0,0.0,0.0,0.0,0.0,0.0,0.0,0.0,0.0,0.0,0.0,0.0,0.0,0.0,0.0,0.0,0.0,0.0,0.0,0.0,0.0,0.0,0.0,0.0,0.0,0.0,0.0,0.0,0.0,0.0,0.0,0.0,0.0,0.0,0.0,0.0,0.0,0.0,0.0,0.0,0.0,0.0,0.0,0.0,0.0,0.0,0.0,0.0,0.0,0.0,0.0,0.0,0.0,0.0,0.0,0.0,0.0,0.0,0.0,0.0,0.0,0.0,0.0,0.0,0.0,0.0,0.0,0.0,0.0,0.0,0.0,0.0,0.0,0.0,0.0,0.0,0.0,0.0,0.0,0.0,0.0,0.0,0.0,0.0,0.0,0.0,0.0,0.0,0.0,0.0,0.0,0.0,0.0,0.0,0.0,0.0,0.0,0.0,0.0,0.0,0.0,0.0,0.0,0.0,0.0,0.0,0.0,0.0,0.0,0.0,0.0,0.0,0.0,0.0,0.0,0.0,0.0,0.0,0.0,0.0,0.0,0.0,0.0,0.0,0.0,0.0,0.0,0.0,0.0,0.0,0.0,0.0,0.0,0.0,0.0,0.0,0.0,0.0,0.0,0.0,0.0,0.0,0.0,0.0,0.0,0.0,0.0,0.0,0.0,0.0,0.0,0.0,0.0,0.0,0.0,0.0,0.0,0.0,0.0,0.0,0.0,0.0,0.0,0.0,0.0,0.0,0.0,0.0,0.0,0.0,0.0,0.0,0.0,0.0,0.0,0.0,0.0,0.0,0.0,0.0,0.0,0.0,0.0,0.0,0.0,0.0,0.0,0.0,0.0,0.0,0.0,0.0,0.0,0.0,0.0,0.0,0.0,0.0,0.0,0.0,0.0,0.0,0.0,0.0,0.0,0.0,0.0,0.0,0.0,0.0,0.0,0.0,0.0,0.0,0.0,0.0,0.0,0.0,0.0,0.0,0.0,0.0,0.0,0.0,0.0,0.0,0.0,0.0,0.0,0.0,0.0,0.0,0.0,0.0,0.0,0.0,0.0,0.0,0.0,0.0,0.0,0.0,0.0,0.0,0.0,0.0,0.0,0.0,0.0,0.0,0.0,0.0,0.0,0.0,0.0,0.0,0.0,0.0,0.0,0.0,0.0,0.0,0.0,0.0,0.0,0.0,0.0,0.0,0.0,0.0,0.0,0.0,0.0,0.0,0.0,0.0,0.0,0.0,0.0,0.0,0.0,0.0,0.0,0.0,0.0,0.0,0.0,0.0,0.0,0.0,0.0,0.0,0.0,0.0,0.0,0.0,0.0,0.0,0.0,0.0,0.0,0.0,0.0,0.0,0.0,0.0,0.0,0.0,0.0,0.0,0.0,0.0,0.0,0.0,0.0,0.0,0.0,0.0,0.0,0.0,0.0,0.0,0.0,0.0,0.0,0.0,0.0,0.0,0.0,0.0,0.0,0.0,0.0,0.0,0.0,0.0,0.0,0.0,0.0,0.0,0.0,0.0,0.0,0.0,0.0,0.0,0.0,0.0,0.0,0.0,0.0,0.0,0.0,0.0,0.0,0.0,0.0,0.0,0.0,0.0,0.0,0.0,0.0,0.0,0.0,0.0,0.0,0.0,0.0,0.0,0.0,0.0,0.0,0.0,0.0,0.0,0.0,0.0,0.0,0.0,0.0,0.0,0.0,0.0,0.0,0.0,0.0,0.0,0.0,0.0,0.0,0.0,0.0,0.0,0.0,0.0,0.0,0.0,0.0,0.0,0.0,0.0,0.0,0.0,0.0,0.0,0.0,0.0,0.0,0.0,0.0,0.0,0.0,0.0,0.0,0.0,0.0,0.0,0.0,0.0,0.0,0.0,0.0,0.0,0.0,0.0,0.0,0.0,0.0,0.0,0.0,0.0,0.0,0.0,0.0,0.0,0.0,0.0,0.0,0.0,0.0,0.0,0.0,0.0,0.0,0.0,0.0,0.0,0.0,0.0,0.0,0.0,0.0,0.0,0.0,0.0,0.0,0.0,0.0,0.0,0.0,0.0,0.0,0.0,0.0,0.0,0.0,0.0,0.0,0.0,0.0,0.0,0.0,0.0,0.0,0.0,0.0,0.0,0.0,0.0,0.0,0.0,0.0,0.0,0.0,0.0,0.0,0.0,0.0,0.0,0.0,0.0,0.0,0.0,0.0,0.0,0.0,0.0,0.0,0.0,0.0,0.0,0.0,0.0,0.0,0.0,0.0,0.0,0.0,0.0,0.0,0.0,0.0,0.0,0.0,0.0,0.0,0.0,0.0,0.0,0.0,0.0,2.9534,0.0,0.0,0.0,0.0,0.0,0.0,0.0,0.0,0.0,0.0,0.0,0.0,0.0,0.0,0.0,0.0,0.0,0.0,0.0,0.0,0.0,0.0,0.0,0.0,0.0,0.0,0.0,0.0,0.0,0.0,0.0,0.0,0.0,0.0,0.0,0.0,0.0,0.0,0.0,0.0,0.0,0.0,0.0,0.0,0.0,0.0,0.0,0.0,0.0,0.0,0.0,0.0,0.0,0.0,0.0,0.0,0.0,0.0,0.0,0.0,0.0,0.0,0.0,0.0,0.0,0.0,0.0,0.0,0.0,0.0,0.0,0.0,0.0,0.0,0.0,0.0,0.0,0.0,0.0,0.0,0.0,0.0,0.0,0.0,0.0,0.0,0.0,0.0,0.0,0.0,0.0,0.0,0.0,0.0,0.0,0.0,0.0,0.0,0.0,0.0,0.0,0.0,0.0,0.0,0.0,0.0,0.0,0.0,0.0,0.0,2.9989,2.9902,2.9823,2.9643,2.9412,0.0,0.0,0.0,0.0,0.0,0.0,0.0,0.0,0.0,0.0,0.0,0.0,0.0,0.0,0.0,0.0,0.0,0.0,0.0,0.0,0.0,0.0,0.0,0.0,0.0,0.0,0.0,0.0,0.0,0.0,0.0,0.0,0.0,0.0,0.0,0.0,0.0,0.0,0.0,0.0,0.0,0.0,0.0,0.0,0.0,0.0,0.0,0.0,0.0,0.0,0.0,0.0,0.0,0.0,0.0,0.0,0.0,0.0,0.0,0.0,0.0,0.0,0.0,0.0,0.0,0.0,0.0,0.0,0.0,0.0,0.0,0.0,0.0,0.0,0.0,0.0,0.0,0.0,0.0,0.0,0.0,0.0,0.0,0.0,0.0,0.0,0.0,0.0,0.0,0.0,0.0,0.0,0.0,0.0,0.0,0.0,0.0,0.0,0.0,0.0,0.0,0.0,0.0,0.0,0.0,0.0,0.0,0.0,0.0,0.0,0.0,0.0,2.9701,2.9476,2.9198,0.0,0.0,0.0,0.0,0.0,0.0,0.0,0.0,0.0,0.0,0.0,0.0,0.0,0.0,0.0,0.0,0.0,0.0,0.0,0.0,0.0,0.0,0.0,0.0,0.0,0.0,0.0,0.0,0.0,0.0,0.0,0.0,0.0,0.0,0.0,0.0,0.0,0.0,0.0,0.0,0.0,0.0,0.0,0.0,0.0,0.0,0.0,0.0,0.0,0.0,0.0,0.0,0.0,0.0,0.0,0.0,0.0,0.0,0.0,0.0,0.0,0.0,0.0,0.0,0.0,0.0,0.0,0.0,0.0,0.0,0.0,0.0,0.0,0.0,0.0,0.0,0.0,0.0,0.0,0.0,0.0,0.0,0.0,0.0,0.0,0.0,0.0,0.0,0.0,0.0,0.0,0.0,0.0,0.0,0.0,0.0,0.0,0.0,0.0,0.0,0.0,0.0,0.0,0.0,0.0,0.0,0.0,0.0,0.0,0.0,2.9902,2.9935,2.9701,0.0,2.8967,0.0,0.0,0.0,0.0,0.0,0.0,0.0,0.0,0.0,0.0,0.0,0.0,0.0,0.0,0.0,0.0,0.0,0.0,0.0,0.0,0.0,0.0,0.0,0.0,0.0,0.0,0.0,0.0,0.0,0.0,0.0,0.0,0.0,0.0,0.0,0.0,0.0,0.0,0.0,0.0,0.0,0.0,0.0,0.0,0.0,0.0,0.0,0.0,0.0,0.0,0.0,0.0,0.0,0.0,0.0,0.0,0.0,0.0,0.0,0.0,0.0,0.0,0.0,0.0,0.0,0.0,0.0,0.0,0.0,0.0,0.0,0.0,0.0,0.0,0.0,0.0,0.0,0.0,0.0,0.0,0.0,0.0,0.0,0.0,0.0,0.0,0.0,0.0,0.0,0.0,0.0,0.0,0.0,0.0,0.0,0.0,0.0,0.0,0.0,0.0,0.0,0.0,0.0,0.0,0.0,0.0,0.0,0.0,0.0,0.0,2.9946,2.9935,2.9502,2.9169,0.0,0.0,0.0,0.0,0.0,0.0,0.0,0.0,0.0,0.0,0.0,0.0,0.0,0.0,0.0,0.0,0.0,0.0,0.0,0.0,0.0,0.0,0.0,0.0,0.0,0.0,0.0,0.0,0.0,0.0,0.0,0.0,0.0,0.0,0.0,0.0,0.0,0.0,0.0,0.0,0.0,0.0,0.0,0.0,0.0,0.0,0.0,0.0,0.0,0.0,0.0,0.0,0.0,0.0,0.0,0.0,0.0,0.0,0.0,0.0,0.0,0.0,0.0,0.0,0.0,0.0,0.0,0.0,0.0,0.0,0.0,0.0,0.0,0.0,0.0,0.0,0.0,0.0,0.0,0.0,0.0,0.0,0.0,0.0,0.0,0.0,0.0,0.0,0.0,0.0,0.0,0.0,0.0,0.0,0.0,0.0,0.0,0.0,0.0,0.0,0.0,0.0,0.0,0.0,0.0,0.0,0.0,0.0,0.0,0.0,3.0033,2.9902,2.977,2.9366,2.8998,2.8794,0.0,0.0,0.0,0.0,0.0,0.0,0.0,0.0,0.0,0.0,0.0,0.0,0.0,0.0,0.0,0.0,0.0,0.0,0.0,0.0,0.0,0.0,0.0,0.0,0.0,0.0,0.0,0.0,0.0,0.0,0.0,0.0,0.0,0.0,0.0,0.0,0.0,0.0,0.0,0.0,0.0,0.0,0.0,0.0,0.0,0.0,0.0,0.0,0.0,0.0,0.0,0.0,0.0,0.0,0.0,0.0,0.0,0.0,0.0,0.0,0.0,0.0,0.0,0.0,0.0,0.0,0.0,0.0,0.0,0.0,0.0,0.0,0.0,0.0,0.0,0.0,0.0,0.0,0.0,0.0,0.0,0.0,0.0,0.0,0.0,0.0,0.0,0.0,0.0,0.0,0.0,0.0,0.0,0.0,0.0,0.0,0.0,0.0,0.0,0.0,0.0,0.0,0.0,0.0,0.0,0.0,0.0,0.0,3.0033,2.9946,2.977,2.9502,2.9229,2.8998,0.0,0.0,0.0,0.0,0.0,0.0,0.0,0.0,0.0,0.0,0.0,0.0,0.0,0.0,0.0,0.0,0.0,0.0,0.0,0.0,0.0,0.0,0.0,0.0,0.0,0.0,0.0,0.0,0.0,0.0,0.0,0.0,0.0,0.0,0.0,0.0,0.0,0.0,0.0,0.0,0.0,0.0,0.0,0.0,0.0,0.0,0.0,0.0,0.0,0.0,0.0,0.0,0.0,0.0,0.0,0.0,0.0,0.0,0.0,0.0,0.0,0.0,0.0,0.0,0.0,0.0,0.0,0.0,0.0,0.0,0.0,0.0,0.0,0.0,0.0,0.0,0.0,0.0,0.0,0.0,0.0,0.0,0.0,0.0,0.0,0.0,0.0,0.0,0.0,0.0,0.0,0.0,0.0,0.0,0.0,0.0,0.0,0.0,0.0,0.0,0.0,0.0,0.0,0.0,0.0,0.0,0.0,0.0,0.0,3.0,2.9946,2.977,2.9502,2.9229,2.8998,0.0,0.0,0.0,0.0,0.0,0.0,0.0,0.0,0.0,0.0,0.0,0.0,0.0,0.0,0.0,0.0,0.0,0.0,0.0,0.0,0.0,0.0,0.0,0.0,0.0,0.0,0.0,0.0,0.0,0.0,0.0,0.0,0.0,0.0,0.0,0.0,0.0,0.0,0.0,0.0,0.0,0.0,0.0,0.0,0.0,0.0,0.0,0.0,0.0,0.0,0.0,0.0,0.0,0.0,0.0,0.0,0.0,0.0,0.0,0.0,0.0,0.0,0.0,0.0,0.0,0.0,0.0,0.0,0.0,0.0,0.0,0.0,0.0,0.0,0.0,0.0,0.0,0.0,0.0,0.0,0.0,0.0,0.0,0.0,0.0,0.0,0.0,0.0,0.0,0.0,0.0,0.0,0.0,0.0,0.0,0.0,0.0,0.0,0.0,0.0,0.0,0.0,0.0,0.0,0.0,0.0,0.0,0.0,0.0,2.9989,0.0,2.977,2.9502,2.9229,2.8998,0.0,0.0,0.0,0.0,0.0,0.0,0.0,0.0,0.0,0.0,0.0,0.0,0.0,0.0,0.0,0.0,0.0,0.0,0.0,0.0,0.0,0.0,0.0,0.0,0.0,0.0,0.0,0.0,0.0,0.0,0.0,0.0,0.0,0.0,0.0,0.0,0.0,0.0,0.0,0.0,0.0,0.0,0.0,0.0,0.0,0.0,0.0,0.0,0.0,0.0,0.0,0.0,0.0,0.0,0.0,0.0,0.0,0.0,0.0,0.0,0.0,0.0,0.0,0.0,0.0,0.0,0.0,0.0,0.0,0.0,0.0,0.0,0.0,0.0,0.0,0.0,0.0,0.0,0.0,0.0,0.0,0.0,0.0,0.0,0.0,0.0,0.0,0.0,0.0,0.0,0.0,0.0,0.0,0.0,0.0,0.0,0.0,0.0,0.0,0.0,0.0,0.0,0.0,0.0,0.0,0.0,0.0,0.0,3.0022,2.9935,2.9935,2.9835,2.9534,2.9324,2.9061,0.0,0.0,0.0,0.0,0.0,0.0,0.0,0.0,0.0,0.0,0.0,0.0,0.0,0.0,0.0,0.0,0.0,0.0,0.0,0.0,0.0,0.0,0.0,0.0,0.0,0.0,0.0,0.0,0.0,0.0,0.0,0.0,0.0,0.0,0.0,0.0,0.0,0.0,0.0,0.0,0.0,0.0,0.0,0.0,0.0,0.0,0.0,0.0,0.0,0.0,0.0,0.0,0.0,0.0,0.0,0.0,0.0,0.0,0.0,0.0,0.0,0.0,0.0,0.0,0.0,0.0,0.0,0.0,0.0,0.0,0.0,0.0,0.0,0.0,0.0,0.0,0.0,0.0,0.0,0.0,0.0,0.0,0.0,0.0,0.0,0.0,0.0,0.0,0.0,0.0,0.0,0.0,0.0,0.0,0.0,0.0,0.0,0.0,0.0,0.0,0.0,0.0,0.0,0.0,0.0,0.0,0.0,0.0,0.0,3.0603,3.0603,3.0693,3.091,3.08,3.0338,0.0,0.0,0.0,0.0,0.0,0.0,0.0,0.0,0.0,0.0,0.0,0.0,0.0,0.0,0.0,0.0,0.0,0.0,0.0,0.0,0.0,0.0,0.0,0.0,0.0,0.0,0.0,0.0,0.0,0.0,0.0,0.0,0.0,0.0,0.0,0.0,0.0,0.0,0.0,0.0,0.0,0.0,0.0,0.0,0.0,0.0,0.0,0.0,0.0,0.0,0.0,0.0,0.0,0.0,0.0,0.0,0.0,0.0,0.0,0.0,0.0,0.0,0.0,0.0,0.0,0.0,0.0,0.0,0.0,0.0,0.0,0.0,0.0,0.0,0.0,0.0,0.0,0.0,0.0,0.0,0.0,0.0,0.0,0.0,0.0,0.0,0.0,0.0,0.0,0.0,0.0,0.0,0.0,0.0,0.0,0.0,0.0,0.0,0.0,0.0,0.0,0.0,0.0,0.0,0.0,0.0,0.0,0.0,0.0,3.1516,3.1306,3.1355,3.1534,3.1437,3.11,3.0396,0.0,0.0,0.0,0.0,0.0,0.0,0.0,0.0,0.0,0.0,0.0,0.0,0.0,0.0,0.0,0.0,0.0,0.0,0.0,0.0,0.0,0.0,0.0,0.0,0.0,0.0,0.0,0.0,0.0,0.0,0.0,0.0,0.0,0.0,0.0,0.0,0.0,0.0,0.0,0.0,0.0,0.0,0.0,0.0,0.0,0.0,0.0,0.0,0.0,0.0,0.0,0.0,0.0,0.0,0.0,0.0,0.0,0.0,0.0,0.0,0.0,0.0,0.0,0.0,0.0,0.0,0.0,0.0,0.0,0.0,0.0,0.0,0.0,0.0,0.0,0.0,0.0,0.0,0.0,0.0,0.0,0.0,0.0,0.0,0.0,0.0,0.0,0.0,0.0,0.0,0.0,0.0,0.0,0.0,0.0,0.0,0.0,0.0,0.0,0.0,0.0,0.0,0.0,0.0,0.0,0.0,0.0,0.0,3.2652,3.2111,3.179,3.1596,3.1547,3.1385,0.0,0.0,0.0,0.0,0.0,0.0,0.0,0.0,0.0,0.0,0.0,0.0,0.0,0.0,0.0,0.0,0.0,0.0,0.0,0.0,0.0,0.0,0.0,0.0,0.0,0.0,0.0,0.0,0.0,0.0,0.0,0.0,0.0,0.0,0.0,0.0,0.0,0.0,0.0,0.0,0.0,0.0,0.0,0.0,0.0,0.0,0.0,0.0,0.0,0.0,0.0,0.0,0.0,0.0,0.0,0.0,0.0,0.0,0.0,0.0,0.0,0.0,0.0,0.0,0.0,0.0,0.0,0.0,0.0,0.0,0.0,0.0,0.0,0.0,0.0,0.0,0.0,0.0,0.0,0.0,0.0,0.0,0.0,0.0,0.0,0.0,0.0,0.0,0.0,0.0,0.0,0.0,0.0,0.0,0.0,0.0,0.0,0.0,0.0,0.0,0.0,0.0,0.0,0.0,0.0,0.0,0.0,0.0,0.0,3.2972,3.2887,3.2978,3.3099,3.3201,3.2894,0.0,0.0,0.0,0.0,0.0,0.0,0.0,0.0,0.0,0.0,0.0,0.0,0.0,0.0,0.0,0.0,0.0,0.0,0.0,0.0,0.0,0.0,0.0,0.0,0.0,0.0,0.0,0.0,0.0,0.0,0.0,0.0,0.0,0.0,0.0,0.0,0.0,0.0,0.0,0.0,0.0,0.0,0.0,0.0,0.0,0.0,0.0,0.0,0.0,0.0,0.0,0.0,0.0,0.0,0.0,0.0,0.0,0.0,0.0,0.0,0.0,0.0,0.0,0.0,0.0,0.0,0.0,0.0,0.0,0.0,0.0,0.0,0.0,0.0,0.0,0.0,0.0,0.0,0.0,0.0,0.0,0.0,0.0,0.0,0.0,0.0,0.0,0.0,0.0,0.0,0.0,0.0,0.0,0.0,0.0,0.0,0.0,0.0,0.0,0.0,0.0,0.0,0.0,0.0,0.0,0.0,0.0,0.0,3.2718,3.2827,3.3011,3.3224,3.3435,3.3694,3.3502,0.0,0.0,0.0,0.0,0.0,0.0,0.0,0.0,0.0,0.0,0.0,0.0,0.0,0.0,0.0,0.0,0.0,0.0,0.0,0.0,0.0,0.0,0.0,0.0,0.0,0.0,0.0,0.0,0.0,0.0,0.0,0.0,0.0,0.0,0.0,0.0,0.0,0.0,0.0,0.0,0.0,0.0,0.0,0.0,0.0,0.0,0.0,0.0,0.0,0.0,0.0,0.0,0.0,0.0,0.0,0.0,0.0,0.0,0.0,0.0,0.0,0.0,0.0,0.0,0.0,0.0,0.0,0.0,0.0,0.0,0.0,0.0,0.0,0.0,0.0,0.0,0.0,0.0,0.0,0.0,0.0,0.0,0.0,0.0,0.0,0.0,0.0,0.0,0.0,0.0,0.0,0.0,0.0,0.0,0.0,0.0,0.0,0.0,0.0,0.0,0.0,0.0,0.0,0.0,0.0,0.0,0.0,0.0,3.2302,3.2358,3.2602,3.2819,3.3043,3.3466,3.3591,0.0,0.0,0.0,0.0,0.0,0.0,0.0,0.0,0.0,0.0,0.0,0.0,0.0,0.0,0.0,0.0,0.0,0.0,0.0,0.0,0.0,0.0,0.0,0.0,0.0,0.0,0.0,0.0,0.0,0.0,0.0,0.0,0.0,0.0,0.0,0.0,0.0,0.0,0.0,0.0,0.0,0.0,0.0,0.0,0.0,0.0,0.0,0.0,0.0,0.0,0.0,0.0,0.0,0.0,0.0,0.0,0.0,0.0,0.0,0.0,0.0,0.0,0.0,0.0,0.0,0.0,0.0,0.0,0.0,0.0,0.0,0.0,0.0,0.0,0.0,0.0,0.0,0.0,0.0,0.0,0.0,0.0,0.0,0.0,0.0,0.0,0.0,0.0,0.0,0.0,0.0,0.0,0.0,0.0,0.0,0.0,0.0,0.0,0.0,0.0,0.0,0.0,0.0,0.0,0.0,0.0,0.0,0.0,3.1625,3.1853,3.2079,3.2358,3.2711,3.3277,3.3519,0.0,0.0,0.0,0.0,0.0,0.0,0.0,0.0,0.0,0.0,0.0,0.0,0.0,0.0,0.0,0.0,0.0,0.0,0.0,0.0,0.0,0.0,0.0,0.0,0.0,0.0,0.0,0.0,0.0,0.0,0.0,0.0,0.0,0.0,0.0,0.0,0.0,0.0,0.0,0.0,0.0,0.0,0.0,0.0,0.0,0.0,0.0,0.0,-2.1805,0.0,0.0,0.0,0.0,0.0,0.0,0.0,0.0,0.0,0.0,0.0,0.0,0.0,0.0,0.0,0.0,0.0,0.0,0.0,0.0,0.0,0.0,0.0,0.0,0.0,0.0,0.0,0.0,0.0,0.0,0.0,0.0,0.0,0.0,0.0,0.0,0.0,0.0,0.0,0.0,0.0,0.0,0.0,0.0,0.0,0.0,0.0,0.0,0.0,0.0,0.0,0.0,0.0,0.0,0.0,0.0,0.0,0.0,0.0,3.0837,3.1014,3.1306,3.1652,3.2104,3.2578,3.2958,0.0,0.0,0.0,0.0,0.0,0.0,0.0,0.0,0.0,0.0,0.0,0.0,0.0,0.0,0.0,0.0,0.0,0.0,0.0,0.0,0.0,0.0,0.0,0.0,0.0,0.0,0.0,0.0,0.0,0.0,0.0,0.0,0.0,0.0,0.0,0.0,0.0,0.0,0.0,0.0,0.0,0.0,0.0,0.0,0.0,0.0,0.0,0.0,0.0,0.0,0.0,0.0,0.0,0.0,0.0,0.0,0.0,0.0,0.0,0.0,0.0,0.0,0.0,0.0,0.0,0.0,0.0,0.0,0.0,0.0,0.0,0.0,0.0,0.0,0.0,0.0,0.0,0.0,0.0,0.0,0.0,0.0,0.0,0.0,0.0,0.0,0.0,0.0,0.0,0.0,0.0,0.0,0.0,0.0,0.0,0.0,0.0,0.0,0.0,0.0,0.0,0.0,0.0,0.0,0.0,0.0,0.0,2.9931,2.9993,3.0144,3.0418,3.0837,3.1248,3.1625,3.2135,3.2773,0.0,0.0,0.0,0.0,0.0,0.0,0.0,0.0,0.0,0.0,0.0,0.0,0.0,0.0,0.0,0.0,0.0,0.0,0.0,0.0,0.0,0.0,0.0,0.0,0.0,0.0,0.0,0.0,0.0,0.0,0.0,0.0,0.0,0.0,0.0,0.0,0.0,0.0,-1.1918,-1.4294,0.0,0.0,0.0,0.0,0.0,0.0,0.0,0.0,-2.4153,0.0,0.0,0.0,0.0,0.0,0.0,0.0,0.0,0.0,0.0,0.0,0.0,0.0,0.0,0.0,0.0,0.0,0.0,0.0,0.0,0.0,0.0,0.0,0.0,0.0,0.0,0.0,0.0,0.0,0.0,0.0,0.0,0.0,0.0,0.0,0.0,0.0,0.0,0.0,0.0,0.0,0.0,0.0,0.0,0.0,0.0,0.0,0.0,0.0,0.0,0.0,0.0,0.0,0.0,0.0,0.0,2.9303,2.9121,2.9121,2.9303,2.9623,2.9993,3.0269,3.0689,3.119,3.1567,0.0,0.0,0.0,0.0,0.0,0.0,0.0,0.0,0.0,0.0,0.0,0.0,0.0,0.0,0.0,0.0,0.0,0.0,0.0,0.0,0.0,0.0,0.0,0.0,0.0,0.0,0.0,0.0,0.0,0.0,0.0,0.0,0.0,0.0,0.0,0.0,0.0,0.0,0.0,-1.553,-1.7138,0.0,0.0,0.0,0.0,0.0,0.0,0.0,0.0,-2.5348,0.0,0.0,0.0,0.0,0.0,0.0,0.0,0.0,0.0,0.0,0.0,0.0,0.0,0.0,0.0,0.0,0.0,0.0,0.0,0.0,0.0,0.0,0.0,0.0,0.0,0.0,0.0,0.0,0.0,0.0,0.0,0.0,0.0,0.0,0.0,0.0,0.0,0.0,0.0,0.0,0.0,0.0,0.0,0.0,0.0,0.0,0.0,0.0,0.0,0.0,0.0,0.0,0.0,0.0,0.0,2.8509,2.8157,2.8091,2.8444,2.8675,2.9002,2.9442,3.0025,3.0418,0.0,0.0,0.0,0.0,0.0,0.0,0.0,0.0,0.0,0.0,0.0,0.0,0.0,0.0,0.0,0.0,0.0,0.0,0.0,0.0,0.0,0.0,0.0,0.0,0.0,0.0,0.0,0.0,0.0,0.0,0.0,0.0,0.0,0.0,0.0,0.0,0.0,0.0,0.0,0.0,-1.6468,-1.7946,-1.9591,0.0,0.0,0.0,0.0,0.0,0.0,-2.5535,-2.6117,0.0,0.0,0.0,0.0,0.0,0.0,0.0,0.0,0.0,0.0,0.0,0.0,0.0,0.0,0.0,0.0,0.0,0.0,0.0,0.0,0.0,0.0,0.0,0.0,0.0,0.0,0.0,0.0,0.0,0.0,0.0,0.0,0.0,0.0,0.0,0.0,0.0,0.0,0.0,0.0,0.0,0.0,0.0,0.0,0.0,0.0,0.0,0.0,0.0,0.0,0.0,0.0,0.0,0.0,0.0,2.7696,2.7297,2.7229,2.7497,2.767,2.8103,2.8684,2.9219,2.9685,0.0,0.0,0.0,0.0,0.0,0.0,0.0,0.0,0.0,0.0,0.0,0.0,0.0,0.0,0.0,0.0,0.0,0.0,0.0,0.0,0.0,0.0,0.0,0.0,0.0,0.0,0.0,0.0,0.0,0.0,0.0,0.0,0.0,0.0,0.0,0.0,0.0,0.0,0.0,0.0,0.0,-1.8836,-2.0304,-2.1473,0.0,0.0,0.0,0.0,-2.5972,-2.6457,0.0,0.0,0.0,0.0,0.0,0.0,0.0,0.0,0.0,0.0,0.0,0.0,0.0,0.0,0.0,0.0,0.0,0.0,0.0,0.0,0.0,0.0,0.0,0.0,0.0,0.0,0.0,0.0,0.0,0.0,0.0,0.0,0.0,0.0,0.0,0.0,0.0,0.0,0.0,0.0,0.0,0.0,0.0,0.0,0.0,0.0,0.0,0.0,0.0,0.0,0.0,0.0,0.0,0.0,0.0,0.0,2.685,2.6782,2.6714,2.6552,2.6892,2.7297,2.767,2.8195,2.8675,0.0,0.0,0.0,0.0,0.0,0.0,0.0,0.0,0.0,0.0,0.0,0.0,0.0,0.0,0.0,0.0,0.0,0.0,0.0,0.0,0.0,0.0,0.0,0.0,0.0,0.0,0.0,0.0,0.0,0.0,0.0,0.0,0.0,0.0,0.0,0.0,0.0,0.0,0.0,0.0,0.0,-1.9709,-2.1513,-2.2487,-2.3321,0.0,0.0,-2.5719,-2.6431,-2.6945,0.0,0.0,0.0,0.0,0.0,0.0,0.0,0.0,0.0,0.0,0.0,0.0,0.0,0.0,0.0,0.0,0.0,0.0,0.0,0.0,0.0,0.0,0.0,0.0,0.0,0.0,0.0,0.0,0.0,0.0,0.0,0.0,0.0,0.0,0.0,0.0,0.0,0.0,0.0,0.0,0.0,0.0,0.0,0.0,0.0,0.0,0.0,0.0,0.0,0.0,0.0,0.0,0.0,0.0,0.0,2.6866,2.6961,2.6565,2.65,2.6843,2.6986,2.7201,2.7627,2.8118,2.8507,0.0,0.0,0.0,0.0,0.0,0.0,0.0,0.0,0.0,0.0,0.0,0.0,0.0,0.0,0.0,0.0,0.0,0.0,0.0,0.0,0.0,0.0,0.0,0.0,0.0,0.0,0.0,0.0,0.0,0.0,0.0,0.0,0.0,0.0,0.0,0.0,0.0,0.0,0.0,0.0,0.0,0.0,-2.2168,-2.3262,0.0,0.0,0.0,-2.6645,-2.728,0.0,0.0,0.0,0.0,0.0,0.0,0.0,0.0,0.0,0.0,0.0,0.0,0.0,0.0,0.0,0.0,0.0,0.0,0.0,0.0,0.0,0.0,0.0,0.0,0.0,0.0,0.0,0.0,0.0,0.0,0.0,0.0,0.0,0.0,0.0,0.0,0.0,0.0,0.0,0.0,0.0,0.0,0.0,0.0,0.0,0.0,0.0,0.0,0.0,0.0,0.0,0.0,0.0,0.0,0.0,0.0,0.0,2.7229,2.6627,2.6526,2.6962,2.6962,2.7112,2.7409,2.7925,0.0,0.0,0.0,0.0,0.0,0.0,0.0,0.0,0.0,0.0,0.0,0.0,0.0,0.0,0.0,0.0,0.0,0.0,0.0,0.0,0.0,0.0,0.0,0.0,0.0,0.0,0.0,-0.2867,0.0,0.0,0.0,0.0,0.0,0.0,0.0,0.0,0.0,0.0,0.0,0.0,0.0,0.0,-2.1119,-2.294,-2.4048,-2.51,0.0,0.0,-2.7389,-2.8096,-2.8471,-2.8692,0.0,0.0,0.0,0.0,0.0,0.0,0.0,0.0,0.0,0.0,0.0,0.0,0.0,0.0,0.0,0.0,0.0,0.0,0.0,0.0,0.0,0.0,0.0,0.0,0.0,0.0,0.0,0.0,0.0,0.0,0.0,0.0,0.0,0.0,0.0,0.0,0.0,0.0,0.0,0.0,0.0,0.0,0.0,0.0,0.0,0.0,0.0,0.0,0.0,0.0,0.0,0.0,0.0,0.0,0.0,2.7434,2.7112,2.6661,2.6382,2.6534,2.6609,2.6586,2.6959,2.7184,0.0,0.0,0.0,0.0,0.0,0.0,0.0,0.0,0.0,0.0,0.0,0.0,0.0,0.0,0.0,0.0,0.0,0.0,0.0,0.0,0.0,0.0,0.0,0.0,0.0,0.0,0.0,0.0,0.0,0.0,0.0,0.0,0.0,0.0,0.0,0.0,0.0,0.0,0.0,0.0,0.0,-2.2251,-2.3831,-2.4975,-2.5844,0.0,0.0,-2.79,-2.8678,-2.8969,-2.9418,-3.0302,0.0,0.0,0.0,0.0,0.0,0.0,0.0,0.0,0.0,0.0,0.0,0.0,0.0,0.0,0.0,0.0,0.0,0.0,0.0,0.0,0.0,0.0,0.0,0.0,0.0,0.0,0.0,0.0,0.0,0.0,0.0,0.0,0.0,0.0,0.0,0.0,0.0,0.0,0.0,0.0,0.0,0.0,0.0,0.0,0.0,0.0,0.0,0.0,0.0,0.0,0.0,0.0,0.0,2.7484,2.7773,2.7162,2.6761,2.6827,2.6794,2.6691,2.6508,2.6794,2.6794,0.0,0.0,0.0,0.0,0.0,0.0,0.0,0.0,0.0,0.0,0.0,0.0,0.0,0.0,0.0,0.0,0.0,0.0,0.0,0.0,0.0,0.0,0.0,0.0,0.0,0.0,0.0,0.0,-0.6771,-0.7966,-0.9443,0.0,0.0,0.0,0.0,0.0,0.0,0.0,0.0,0.0,0.0,-2.3024,-2.5006,-2.5784,0.0,0.0,-2.8299,-2.8857,-2.9421,-2.976,-3.0189,-3.0554,-3.096,0.0,0.0,0.0,0.0,0.0,0.0,0.0,0.0,0.0,0.0,0.0,0.0,0.0,0.0,0.0,0.0,0.0,0.0,0.0,0.0,0.0,0.0,0.0,0.0,0.0,0.0,0.0,0.0,0.0,0.0,0.0,0.0,0.0,0.0,0.0,0.0,0.0,0.0,0.0,0.0,0.0,0.0,0.0,0.0,0.0,0.0,0.0,0.0,0.0,0.0,0.0,0.0,2.7797,2.8077,2.7238,2.6841,2.6917,2.6715,2.6467,2.6113,2.6196,2.6008,0.0,0.0,0.0,0.0,0.0,0.0,0.0,0.0,0.0,0.0,0.0,0.0,0.0,0.0,0.0,0.0,0.0,0.0,0.0,0.0,0.0,0.0,0.0,0.0,0.0,0.0,0.0,0.0,-0.8124,-0.9374,-1.1036,0.0,0.0,0.0,0.0,0.0,0.0,0.0,0.0,0.0,0.0,-2.3991,-2.5908,-2.6695,-2.7406,-2.8541,-2.9083,-2.9511,-2.992,-3.0352,-3.0644,-3.08,0.0,0.0,0.0,0.0,0.0,0.0,0.0,0.0,0.0,0.0,0.0,0.0,0.0,0.0,0.0,0.0,0.0,0.0,0.0,0.0,0.0,0.0,0.0,0.0,0.0,0.0,0.0,0.0,0.0,0.0,2.4659,0.0,0.0,0.0,0.0,0.0,0.0,0.0,0.0,0.0,0.0,0.0,0.0,0.0,0.0,0.0,0.0,0.0,0.0,0.0,0.0,0.0,0.0,2.8023,2.8131,2.7348,2.6693,2.6196,2.6052,2.5717,2.5189,2.4787,2.4426,2.4125,0.0,0.0,0.0,0.0,0.0,0.0,0.0,0.0,0.0,0.0,0.0,0.0,0.0,0.0,0.0,0.0,0.0,0.0,0.0,0.0,0.0,0.0,0.0,0.0,0.0,0.0,-0.834,-0.9708,-1.1048,0.0,0.0,0.0,0.0,0.0,0.0,0.0,0.0,0.0,0.0,-2.3801,-2.5269,-2.6752,-2.764,-2.836,-2.9373,-2.9646,-2.992,-3.0148,-3.0399,-3.0734,0.0,0.0,0.0,0.0,0.0,0.0,0.0,0.0,0.0,0.0,0.0,0.0,0.0,0.0,0.0,0.0,0.0,0.0,0.0,0.0,0.0,0.0,0.0,0.0,0.0,0.0,0.0,2.4585,2.4441,0.0,0.0,0.0,0.0,0.0,0.0,0.0,0.0,0.0,0.0,0.0,2.6406,2.655,0.0,0.0,0.0,0.0,0.0,0.0,0.0,0.0,0.0,0.0,0.0,0.0,2.7909,2.751,2.6693,2.603,2.5527,2.502,2.4509,2.4059,2.3587,2.2698,2.1569,0.0,0.0,0.0,0.0,0.0,0.0,0.0,0.0,0.0,0.0,0.0,0.0,0.0,0.0,0.0,0.0,0.0,0.0,0.0,0.0,0.0,0.0,0.0,0.0,0.0,-0.8821,0.0,0.0,0.0,0.0,0.0,0.0,0.0,0.0,0.0,0.0,0.0,-2.238,-2.4089,-2.5085,-2.629,-2.7979,-2.869,-2.9215,0.0,0.0,0.0,0.0,0.0,0.0,0.0,0.0,0.0,0.0,0.0,0.0,0.0,0.0,-3.6041,-3.626,-3.6855,-3.7416,-3.7838,0.0,0.0,0.0,0.0,0.0,0.0,0.0,0.0,0.0,0.0,0.0,0.0,0.0,0.0,0.0,0.0,2.4534,0.0,0.0,0.0,0.0,0.0,0.0,0.0,0.0,2.5662,2.6,2.6153,2.6317,2.6487,0.0,2.6675,2.6924,0.0,0.0,0.0,0.0,0.0,0.0,0.0,0.0,2.7522,2.6941,2.6187,2.5594,2.5159,2.4527,2.3998,2.3376,2.246,2.126,1.98,1.8848,1.7888,0.0,0.0,0.0,0.0,0.0,0.0,0.0,0.0,0.0,0.0,0.0,0.0,0.0,0.0,0.0,0.0,0.0,0.0,0.0,0.0,0.0,0.0,0.0,-1.0554,0.0,0.0,0.0,0.0,0.0,0.0,0.0,0.0,0.0,-2.0391,-2.2013,-2.3653,-2.5405,-2.6317,-2.7357,-2.8702,0.0,0.0,0.0,0.0,0.0,0.0,0.0,-3.1636,-3.2435,-3.2895,-3.3357,-3.4078,-3.4703,-3.5299,-3.58,0.0,0.0,-3.6806,-3.7297,-3.7892,-3.8297,-3.8949,-3.9758,-4.0653,-4.1232,-4.1836,0.0,0.0,0.0,0.0,0.0,0.0,0.0,0.0,2.5486,2.5147,0.0,2.5015,0.0,0.0,0.0,0.0,0.0,2.4971,0.0,0.0,2.5038,2.5172,2.5373,2.5825,2.6211,2.6394,2.6712,2.688,2.688,2.7205,0.0,0.0,0.0,0.0,0.0,0.0,2.6713,2.6519,2.5826,2.5331,2.5017,2.4487,2.382,2.3056,2.1371,1.9925,1.8769,1.7541,1.626,1.5267,1.414,0.0,0.0,0.0,0.0,0.0,0.0,0.0,0.0,0.0,0.0,0.0,0.0,0.0,0.0,0.0,0.0,0.0,0.0,0.0,0.0,-1.1085,0.0,0.0,0.0,0.0,0.0,0.0,0.0,0.0,0.0,0.0,-2.2362,-2.3335,-2.466,-2.6244,0.0,0.0,0.0,0.0,-2.9966,-3.0239,-3.042,-3.0921,-3.1612,-3.1893,-3.2428,-3.3411,0.0,0.0,-3.5084,-3.5621,-3.6075,-3.6607,-3.7083,-3.7416,-3.7348,-3.8149,-3.8854,-3.9149,-3.9913,-4.0659,-4.1001,-4.1449,-4.2005,2.7436,0.0,0.0,0.0,0.0,2.5569,2.5486,2.5486,2.5492,2.5461,2.5305,2.5127,0.0,0.0,0.0,0.0,0.0,0.0,2.4945,2.5128,2.548,2.5634,2.5738,2.587,2.6019,2.6019,2.5902,2.6059,2.6365,2.6319,2.6657,2.7463,0.0,0.0,0.0,0.0,2.6583,2.6004,2.5308,2.4643,2.4063,2.3374,2.2227,2.0506,1.9244,1.7966,1.6687,1.5569,1.4456,1.3324,1.2206,0.0,0.0,0.0,0.0,0.0,0.0,0.0,0.0,0.0,0.0,0.0,0.0,0.0,0.0,0.0,0.0,0.0,0.0,0.0,-1.1905,-1.3214,-1.4159,0.0,0.0,0.0,0.0,0.0,0.0,0.0,0.0,0.0,-2.3754,-2.4459,-2.5373,0.0,0.0,-2.8172,-2.9209,-2.976,-3.0354,-3.0997,0.0,0.0,0.0,-3.264,-3.305,-3.4004,-3.4792,-3.5486,-3.6013,-3.6294,-3.6531,-3.6684,-3.7015,-3.7243,-3.7206,-3.7808,-3.8459,-3.8935,-3.938,-3.9908,-4.0402,-4.0916,-4.1339,2.8321,2.778,2.7085,2.6609,2.6329,2.6078,2.5936,2.5858,2.5984,2.6018,2.6006,2.5516,2.5253,2.5092,2.4767,0.0,0.0,0.0,2.4743,2.4868,2.5359,2.5594,2.5594,2.5786,2.5872,2.585,2.5483,2.5455,2.5748,2.5262,2.5434,2.6225,0.0,0.0,2.684,2.6415,2.5846,2.5277,2.4648,2.3994,2.3304,2.2125,2.0736,1.9044,1.7936,1.6817,1.5494,1.4249,1.309,1.203,1.0886,0.9929,0.0,0.0,0.0,0.0,0.0,0.0,0.0,0.0,0.0,0.0,0.0,-0.2369,0.0,0.0,0.0,0.0,-0.9509,-1.1573,-1.3635,-1.4791,0.0,0.0,0.0,0.0,0.0,0.0,0.0,-2.1262,-2.2062,-2.3061,-2.4313,-2.5118,-2.5994,-2.6955,-2.7631,-2.8538,-2.9661,0.0,-3.0905,-3.16,-3.1856,-3.2251,-3.3083,-3.326,-3.3695,-3.475,-3.5593,-3.6193,-3.6358,-3.6546,-3.6546,-3.664,-3.6828,-3.6922,-3.6922,-3.7387,-3.7939,-3.8368,-3.8756,-3.9203,-3.9618,-4.0229,-4.0688,2.9496,2.8639,2.7382,2.6671,2.6394,2.647,2.6439,2.62,2.6594,2.6655,2.6263,2.5906,2.5654,2.5295,2.5019,0.0,2.4506,2.444,2.4526,2.4526,2.4892,2.5098,2.5118,2.5509,2.5715,2.5694,2.5148,2.4985,2.4934,2.4268,2.4087,2.4488,2.541,2.5756,2.5615,2.5249,2.4893,2.4507,2.3951,2.3358,2.2719,2.0893,1.9435,1.8276,1.7121,1.5943,1.4793,1.3393,1.2091,1.0891,0.9794,0.8692,0.7482,0.0,0.0,0.0,0.0,0.0,0.0,0.0,0.0,0.0,0.0,0.0,0.0,0.0,0.0,0.0,-1.2019,0.0,-1.491,-1.5948,0.0,0.0,0.0,-1.9108,-1.9411,-2.0296,-2.1216,-2.203,0.0,0.0,-2.4467,0.0,-2.646,-2.7249,-2.8156,-2.9173,-3.0247,-3.0995,-3.1716,-3.2111,-3.263,-3.3148,-3.3717,-3.3958,-3.4461,-3.5402,-3.6098,-3.6358,-3.6358,-3.6358,-3.6358,-3.6452,-3.6546,-3.6709,-3.6734,-3.6922,-3.7253,-3.7834,-3.8266,-3.8602,-3.8926,-3.9489,-4.0046,2.8924,2.8522,2.8422,2.7964,2.7162,2.6897,2.6803,2.6721,2.6257,2.6074,2.599,2.538,2.4953,2.4676,2.4954,2.4826,2.4354,2.4354,2.4354,2.4354,2.4473,2.4532,2.4532,2.4631,2.467,2.4579,2.4137,2.403,2.4051,2.3935,2.3772,2.3556,2.3412,2.3943,2.5064,2.46,2.417,2.3889,2.3178,2.2131,2.079,1.9539,1.8185,1.6817,1.5423,1.4137,1.2733,1.1328,1.0014,0.8803,0.7808,0.6922,0.5926,0.5819,0.0,0.0,0.0,0.0,0.0,0.0,0.0,0.0,0.0,-0.5413,-0.7001,0.0,-0.9302,0.0,-1.3495,-1.5378,-1.6215,-1.7427,0.0,0.0,-1.9523,-2.0184,-2.0476,-2.0947,-2.1505,-2.2333,-2.275,-2.3538,-2.4857,-2.5794,-2.6804,-2.8115,-2.8978,-2.9818,-3.074,-3.1757,-3.263,-3.2982,-3.3267,-3.372,-3.4438,-3.4896,-3.5353,-3.5787,-3.6193,-3.6358,-3.6358,-3.6358,-3.6358,-3.6358,-3.6452,-3.6452,-3.6477,-3.6861,-3.7304,-3.7577,-3.7697,-3.8004,-3.8886,-3.9333,-3.9715,2.8474,2.8042,2.8197,2.7879,2.7254,2.744,2.7476,2.7222,2.6626,2.6195,2.6001,2.5305,2.4634,2.4062,2.4316,2.4137,2.3672,2.3672,2.3672,2.3672,2.3862,2.3937,2.3937,2.4127,2.4203,2.4221,2.3743,2.3468,2.3394,2.3054,2.2663,2.2215,2.176,2.1879,2.2443,2.2815,2.2802,2.2417,2.1387,2.0158,1.8812,1.7765,1.6605,1.5114,1.3814,1.2516,1.1101,0.9684,0.8472,0.7254,0.6705,0.5931,0.4927,0.4033,0.2798,0.0,0.0,0.0,0.0,0.0,0.0,0.0,0.0,0.0,0.0,0.0,-1.1,-1.3236,-1.535,-1.6808,-1.7639,-1.8726,-1.9569,-1.9998,-2.0514,-2.1011,-2.142,-2.1771,-2.2162,-2.2894,-2.3405,-2.4194,-2.5284,-2.6237,-2.7382,-2.8734,-2.9706,-3.0546,-3.145,-3.2337,-3.3219,-3.374,-3.4005,-3.4366,-3.4896,-3.5307,-3.5692,-3.6003,-3.6193,-3.6358,-3.6358,-3.6358,-3.6433,-3.6659,-3.6709,-3.681,-3.7036,-3.7283,-3.7627,-3.7754,-3.7724,-3.8005,-3.8765,-3.9102,-3.9465,2.8217,2.7545,2.751,2.7286,2.7069,2.7843,2.7875,2.7414,2.6799,2.6335,2.582,2.5139,2.4375,2.3542,2.3561,2.3335,2.3012,2.2917,2.3012,2.2935,2.3359,2.3426,2.3426,2.3772,2.3935,2.3836,2.3338,2.2902,2.255,2.1744,2.1001,2.0546,2.002,1.9592,1.9078,2.0233,2.0664,2.0342,1.914,1.7921,1.6765,1.5968,1.4911,1.3501,1.22,1.1,0.9574,0.8244,0.7143,0.6154,0.5708,0.4923,0.3689,0.2009,0.0334,0.0,-0.2342,0.0,0.0,0.0,0.0,0.0,0.0,0.0,0.0,-1.1219,-1.3058,-1.5779,-1.7054,-1.7989,-1.8826,-1.9672,-2.0395,-2.0822,-2.1264,-2.1689,-2.2113,-2.2535,-2.2978,-2.3496,-2.4417,-2.5154,-2.5834,-2.6865,-2.8045,-2.9351,-3.045,-3.1351,-3.2188,-3.2971,-3.3643,-3.4288,-3.4628,-3.4872,-3.5211,-3.5451,-3.5738,-3.6003,-3.6288,-3.6383,-3.6483,-3.6508,-3.6659,-3.7161,-3.7287,-3.7437,-3.7939,-3.8015,-3.809,-3.8115,-3.8165,-3.8414,-3.8758,-3.9,-3.922,2.8563,2.7934,2.781,2.7648,2.7587,2.7327,2.678,2.5892,2.523,2.46,2.4087,2.3628,2.3426,2.3354,2.3327,2.3329,2.3323,2.3323,2.3323,2.3341,2.3394,2.3231,2.3015,2.3085,2.2937,2.2518,2.2131,2.1459,2.0564,1.9714,1.8974,1.8467,1.7055,1.6746,1.751,0.0,0.0,0.0,1.6869,1.6056,1.5141,1.4276,1.3176,1.1973,1.0335,0.0,0.8029,0.6366,0.5369,0.5046,0.3695,0.0,0.0,0.0,0.0,0.0,0.0,0.0,0.0,0.0,0.0,0.0,-0.9581,-1.0131,-1.1236,-1.3186,-1.4911,-1.6418,-1.7582,-1.8527,-1.9168,-2.0086,-2.0822,-2.0925,-2.18,-2.2482,-2.2619,-2.3131,-2.3668,-2.3983,-2.4578,-2.5386,-2.6522,-2.7604,-2.8798,-3.0242,-3.1455,-3.2387,-3.3185,-3.3679,-3.4044,-3.4335,-3.4628,-3.5017,-3.5428,-3.5571,-3.5738,-3.6168,-3.6358,-3.6533,-3.6935,-3.7036,-3.7236,-3.7739,-3.7864,-3.7889,-3.804,-3.8416,-3.8718,-3.8793,-3.9044,-3.9347,-3.922,-3.9219,-3.9446,2.7998,0.0,2.7004,2.6775,0.0,2.6173,2.5377,2.455,2.4635,2.4297,2.3731,2.3148,2.2665,2.2429,2.2494,2.2479,2.238,2.2282,2.2282,2.2282,2.2085,2.1889,2.1576,2.1576,2.1378,2.0883,2.0761,2.0155,1.9179,1.857,1.7956,1.7128,1.615,1.5634,1.5463,1.4297,1.4194,1.5463,1.4954,1.4283,1.355,1.2685,1.1538,1.0225,0.0,0.0,0.0,0.0,0.0,0.0,0.0,0.0,0.0,0.0,0.0,-0.4695,-0.5937,-0.6958,-0.7494,-0.8543,-0.9471,-1.0351,-1.1337,-1.2209,-1.2861,-1.4708,-1.6205,-1.7265,-1.8318,-1.933,-1.9897,-2.0763,-2.1554,-2.1836,-2.254,-2.3077,-2.3216,-2.3823,-2.4277,-2.4508,-2.5183,-2.6148,-2.7081,-2.816,-2.9268,-3.0639,-3.171,-3.2723,-3.3446,-3.3941,-3.4335,-3.4531,-3.4726,-3.5017,-3.5428,-3.5596,-3.5886,-3.6589,-3.6759,-3.701,-3.7487,-3.7588,-3.7764,-3.8291,-3.8442,-3.8492,-3.8818,-3.9146,-3.9322,-3.927,-3.9496,-3.9725,-3.955,-3.9474,-3.9652,2.7195,2.6633,2.6047,2.5546,2.5274,2.4871,2.41,2.3203,0.0,0.0,0.0,2.259,2.199,2.1475,2.1587,2.1527,2.1326,2.1202,2.1042,2.1059,2.0915,2.0655,2.0231,2.0231,1.9937,1.9361,1.9421,1.892,1.8062,1.7694,1.7029,1.594,1.5529,1.4707,1.3288,1.2126,1.2134,1.3325,1.3058,1.2469,1.1819,1.1008,0.9934,0.8497,0.7187,0.6196,0.5418,0.3388,0.1808,0.079,-0.0339,-0.1466,-0.2586,-0.4497,-0.6177,-0.7276,-0.7733,-0.8406,-0.9182,-1.0319,-1.1117,-1.144,-1.3088,-1.4158,-1.4451,-1.5839,-1.7145,-1.8167,-1.9223,-2.0181,-2.0757,-2.1528,-2.229,-2.2888,-2.3185,-2.3555,-2.3891,-2.4433,-2.4785,-2.5037,-2.5901,-2.6862,-2.7403,-2.8475,-2.9533,-3.0681,-3.1688,-3.2723,-3.3545,-3.4139,-3.4531,-3.4726,-3.4823,-3.5042,-3.555,-3.5793,-3.6183,-3.7139,-3.7337,-3.7538,-3.799,-3.8165,-3.8391,-3.8919,-3.9019,-3.9195,-3.9572,-3.9647,-3.9697,-3.9697,-3.9697,-3.9697,-3.9697,-3.9697,-3.9775,2.6595,2.5968,2.5357,2.4957,2.4615,2.3927,2.3057,2.2017,2.2128,2.1915,2.159,2.1192,2.1003,2.1053,2.0849,2.083,2.1151,2.1162,2.1114,0.0,2.1127,2.0867,2.0138,2.0138,1.9523,1.8608,1.8532,1.7901,1.6652,1.6135,1.5311,1.4196,1.3453,1.2621,1.1611,1.0916,1.0635,1.0563,1.0707,1.0444,0.9808,0.8974,0.7975,0.6616,0.4969,0.3847,0.3151,0.1283,-0.0117,-0.1051,-0.2101,-0.3595,-0.5496,-0.6171,-0.6914,-0.8054,-0.9042,-0.9898,-1.0691,-1.1288,-1.2056,-1.3192,-1.4649,-1.5467,-1.5384,-1.6441,-1.7738,-1.9069,-2.0062,-2.0863,-2.1679,-2.2306,-2.2872,-2.3168,-2.3742,-2.4162,-2.4485,-2.4907,-2.5336,-2.5791,-2.63,-2.6989,-2.7745,-2.8601,-2.9448,-3.0578,-3.1688,-3.2823,-3.3988,-3.4531,-3.4726,-3.4823,-3.4823,-3.5211,-3.5991,-3.6333,-3.6751,-3.7715,-3.7889,-3.8065,-3.8642,-3.8743,-3.8919,-3.9446,-3.9496,-3.9572,-3.9697,-3.9697,-3.9697,-3.9697,-3.9697,-3.9697,-3.9697,-3.9722,-3.9722,2.6143,2.5723,2.4971,2.4615,2.4545,2.3557,2.2648,2.1913,2.1653,2.1437,2.1313,2.1009,2.0917,2.1104,2.069,2.0583,2.0572,2.0525,2.0213,1.9818,1.9775,1.9451,1.8716,1.8629,1.8006,1.7012,1.7158,1.6652,1.5407,1.4989,1.4155,1.3002,1.1827,1.0891,1.0412,0.9653,0.903,0.8565,0.901,0.9062,0.8613,0.7481,0.6614,0.5813,0.3864,0.2351,0.1176,-0.0353,-0.1883,-0.3411,-0.4112,-0.5152,-0.6401,-0.7201,-0.8087,-0.9057,-1.0137,-1.098,-1.1898,-1.2557,-1.3298,-1.4086,-1.5332,-1.6357,-1.683,-1.7695,-1.8659,-1.9785,-2.0674,-2.1511,-2.2212,-2.2895,-2.3519,-2.3846,-2.4234,-2.4648,-2.4885,-2.5226,-2.5679,-2.6118,-2.6554,-2.7079,-2.7853,-2.8495,-2.9323,-3.0474,-3.1688,-3.3015,-3.4193,-3.4762,-3.5059,-3.5256,-3.5355,-3.5892,-3.6652,-3.6949,-3.7494,-3.8291,-3.8467,-3.8693,-3.9195,-3.932,-3.9421,-3.9622,-3.9697,-3.9697,-3.9697,-3.9697,-3.9697,-3.9697,-3.9697,-3.9697,-3.9722,-3.9923,-4.0023,2.5894,2.569,2.4852,2.4425,2.4229,2.313,2.2357,2.1882,2.149,2.1292,2.1294,2.0971,2.0942,2.0975,2.0555,2.0152,1.9876,1.976,1.9315,1.8805,1.8581,1.811,1.7291,1.7291,1.6685,1.5704,1.5902,1.5398,1.4423,1.4051,1.3178,1.1926,1.0378,0.9481,0.9252,0.8469,0.7663,0.7072,0.7455,0.7445,0.728,0.6246,0.5436,0.4614,0.2731,0.0951,-0.0595,-0.1784,-0.321,-0.4997,-0.57,-0.6291,-0.7123,-0.8295,-0.9469,-1.0398,-1.1221,-1.2043,-1.2855,-1.3788,-1.4468,-1.4927,-1.6069,-1.7289,-1.849,-1.9135,-1.9681,-2.0567,-2.1368,-2.2229,-2.2782,-2.3492,-2.4048,-2.4462,-2.4701,-2.5,-2.5331,-2.5569,-2.5916,-2.6227,-2.6663,-2.7098,-2.7745,-2.8281,-2.9172,-3.0642,-3.1965,-3.3288,-3.4254,-3.498,-3.5408,-3.5829,-3.613,-3.6575,-3.7216,-3.7666,-3.809,-3.8969,-3.9044,-3.922,-3.9572,-3.9672,-3.9697,-3.9697,-3.9697,-3.9697,-3.9697,-3.9697,-3.9697,-3.9697,-3.9697,-3.9747,-3.9923,-4.035,-4.0501,2.5951,2.5451,2.4886,2.4006,2.3073,2.2185,2.1709,2.1473,2.108,2.0818,2.0851,2.0492,2.0281,2.0265,1.9794,1.9419,1.914,1.92,1.8831,1.815,1.8316,1.7803,1.6832,1.674,1.6119,1.5175,1.5091,1.457,1.3658,1.3034,1.2019,1.0463,0.9109,0.8433,0.7997,0.7267,0.6483,0.5877,0.5475,0.52,0.5303,0.513,0.4208,0.2164,0.0853,-0.0491,-0.1838,-0.3069,-0.4294,-0.5276,-0.6246,-0.7342,-0.8551,-0.9889,-1.0981,-1.1935,-1.2662,-1.3269,-1.3984,-1.4697,-1.5387,-1.6234,-1.7487,-1.8674,-1.9984,-2.0659,-2.1115,-2.1526,-2.2332,-2.3119,-2.3743,-2.4078,-2.4411,-2.4684,-2.5017,-2.5348,-2.5569,-2.5916,-2.6245,-2.6482,-2.6591,-2.6899,-2.7441,-2.8106,-2.9313,-3.1275,-3.2367,-3.3398,-3.4474,-3.5315,-3.5995,-3.643,-3.6692,-3.7181,-3.7804,-3.8255,-3.8761,-3.9393,-3.9597,-3.9622,-3.9672,-3.9697,-3.9697,-3.9697,-3.9697,-3.9697,-3.9697,-3.9697,-3.9697,-3.9823,-3.9848,-3.9898,-4.035,-4.0877,-4.1003,2.5554,2.4898,2.441,2.361,2.2646,2.2171,2.1677,2.1296,2.1026,2.0702,2.0366,1.972,1.9674,2.0093,1.9573,1.908,1.8673,1.8686,1.8123,1.7304,1.7318,1.6829,1.5779,1.5672,1.5098,1.4265,1.4166,1.3719,1.2673,1.1566,1.0394,0.9255,0.8207,0.753,0.7,0.6081,0.549,0.5007,0.4545,0.3796,0.303,0.3043,0.2442,0.0855,-0.0369,-0.1726,-0.333,-0.4189,-0.5049,-0.6276,-0.7378,-0.8471,-0.9329,-1.0664,-1.1631,-1.2234,-1.3204,-1.4052,-1.4639,-1.5353,-1.6065,-1.7009,-1.8169,-1.9332,-2.0486,-2.1417,-2.2101,-2.2441,-2.2909,-2.3585,-2.4144,-2.4479,-2.4701,-2.5017,-2.511,-2.5459,-2.5898,-2.6008,-2.6245,-2.6591,-2.6791,-2.7008,-2.746,-2.8408,-2.9803,-3.1356,-3.234,-3.3281,-3.4235,-3.5198,-3.6063,-3.6779,-3.7436,-3.7934,-3.8393,-3.8906,-3.934,-3.9544,-3.9697,-3.9697,-3.9697,-3.9697,-3.9697,-3.9697,-3.9697,-3.9697,-3.9697,-3.9722,-3.9747,-4.0023,-4.0526,-4.0752,-4.0953,-4.143,-4.163,2.5134,2.4468,2.3791,2.2955,2.2215,2.1928,2.142,2.0909,2.0601,2.0189,1.9569,1.8722,1.8617,1.9034,1.8945,1.8527,1.8003,1.7898,1.7358,1.6324,1.6267,1.5671,1.4711,1.468,1.4119,1.3364,1.317,1.2597,1.1512,1.0069,0.9078,0.821,0.7261,0.6575,0.5782,0.5172,0.4435,0.3697,0.3207,0.2096,0.0863,0.0739,0.037,-0.0616,-0.1849,-0.3328,-0.4684,-0.5172,-0.6031,-0.7255,-0.8349,-0.9329,-1.0179,-1.139,-1.2234,-1.2844,-1.3803,-1.4639,-1.5095,-1.5935,-1.6891,-1.7948,-1.91,-2.0141,-2.1089,-2.2101,-2.278,-2.336,-2.3585,-2.3921,-2.4368,-2.4701,-2.5017,-2.5221,-2.5331,-2.5679,-2.6008,-2.6136,-2.6409,-2.6719,-2.6994,-2.7431,-2.8,-2.9035,-3.0267,-3.1422,-3.2184,-3.2987,-3.4054,-3.508,-3.5972,-3.6858,-3.7761,-3.8372,-3.8736,-3.9233,-3.9594,-3.9697,-3.9697,-3.9697,-3.9697,-3.9697,-3.9697,-3.9697,-3.9697,-3.9823,-3.9998,-4.0023,-4.0124,-4.0651,-4.1153,-4.1505,-4.1555,-4.2007,-4.2308,2.4805,2.4295,2.3103,2.2198,2.1725,2.1232,2.0601,2.0086,1.9583,1.9063,1.8422,1.7701,1.7173,1.6961,1.7397,1.7371,1.6842,1.6749,1.623,1.5194,1.5281,1.4724,1.375,1.3841,1.326,1.2241,1.2126,1.1413,1.0066,0.8998,0.8099,0.7373,0.6512,0.554,0.4684,0.4438,0.3576,0.1849,0.0863,-0.0246,-0.1109,-0.1849,-0.2096,-0.2219,-0.3946,-0.5056,-0.5421,-0.6276,-0.7255,-0.8233,-0.8964,-0.9943,-1.1148,-1.2122,-1.3204,-1.4291,-1.4759,-1.5095,-1.529,-1.6503,-1.7935,-1.9087,-2.0026,-2.1089,-2.2177,-2.2699,-2.336,-2.4273,-2.4256,-2.4368,-2.4479,-2.4906,-2.5221,-2.5348,-2.5679,-2.6008,-2.6154,-2.6427,-2.6774,-2.716,-2.7456,-2.8161,-2.9303,-2.9754,-3.0641,-3.1614,-3.2316,-3.3019,-3.4161,-3.5201,-3.5991,-3.675,-3.7655,-3.8526,-3.8841,-3.9283,-3.9697,-3.9697,-3.9697,-3.9697,-3.9697,-3.9697,-3.9697,-3.9747,-3.9798,-3.9998,-4.0325,-4.0601,-4.0827,-4.1229,-4.1756,-4.2057,-4.2108,-4.2559,-4.2785,2.3167,2.282,2.1928,2.1318,2.1113,2.0395,1.9776,1.9242,1.884,1.8213,1.7371,1.6855,1.6304,1.5813,1.5813,1.5839,1.5601,1.5731,1.5149,1.4208,1.4309,1.3738,1.2729,1.2689,1.2214,1.1269,1.1043,1.0303,0.9004,0.7972,0.7011,0.6158,0.5794,0.506,0.4071,0.2958,0.1849,0.0616,-0.0616,-0.1849,-0.296,-0.4069,-0.4558,-0.4555,-0.5053,-0.5667,-0.6399,-0.7378,-0.8355,-0.9214,-1.0065,-1.1027,-1.2113,-1.3084,-1.4043,-1.4759,-1.5235,-1.5698,-1.6267,-1.7349,-1.8648,-1.9809,-2.096,-2.1904,-2.2761,-2.3521,-2.4033,-2.4384,-2.459,-2.4701,-2.4906,-2.511,-2.5331,-2.5789,-2.6026,-2.6372,-2.6664,-2.6958,-2.7234,-2.779,-2.822,-2.9064,-2.9976,-3.0452,-3.097,-3.1901,-3.2437,-3.3085,-3.4,-3.4847,-3.5621,-3.6603,-3.7441,-3.8291,-3.8736,-3.9283,-3.9697,-3.9697,-3.9697,-3.9697,-3.9697,-3.9747,-3.9772,-4.0124,-4.0149,-4.0425,-4.0877,-4.1379,-4.158,-4.1781,-4.2308,-4.2509,-4.2685,-4.2861,-4.2936,2.2064,2.1623,2.113,2.0719,2.0308,1.9672,1.8945,1.8318,1.8099,1.729,1.634,1.6103,1.5592,1.4844,1.4532,1.4235,1.4088,1.4568,1.4187,1.3199,1.3298,1.2703,1.1786,1.1603,1.1099,1.001,0.9546,0.8757,0.7734,0.6766,0.5908,0.5176,0.4687,0.3825,0.259,0.148,0.037,-0.0863,-0.2096,-0.333,-0.4441,-0.5425,-0.6162,-0.6521,-0.6521,-0.6766,-0.75,-0.8477,-0.9451,-1.0422,-1.1277,-1.2234,-1.3195,-1.4043,-1.4759,-1.5364,-1.5828,-1.6408,-1.7349,-1.8402,-1.9707,-2.0989,-2.1904,-2.2714,-2.344,-2.4066,-2.4368,-2.4701,-2.4949,-2.5336,-2.567,-2.5869,-2.5998,-2.626,-2.6535,-2.6827,-2.7325,-2.7474,-2.7902,-2.8577,-2.9146,-2.9909,-3.06,-3.0659,-3.1142,-3.1883,-3.2248,-3.282,-3.3614,-3.4401,-3.529,-3.6363,-3.7441,-3.8104,-3.8761,-3.9283,-3.9722,-3.9722,-3.9772,-3.9747,-3.9823,-3.9873,-4.0074,-4.0425,-4.0777,-4.1078,-4.1505,-4.2057,-4.2283,-4.2409,-4.2585,-4.2811,-4.2886,-4.2936,-4.2986,2.1623,2.0925,2.0925,2.022,1.942,1.8988,1.8227,1.7383,1.7149,1.6381,1.5429,1.5311,1.4724,1.3982,1.364,1.306,1.2488,1.3203,1.3079,1.2161,1.2229,1.1736,1.0554,1.0554,0.9889,0.8696,0.749,0.6761,0.6403,0.5418,0.4681,0.4315,0.3083,0.1726,0.0123,-0.0123,-0.0986,-0.2342,-0.3822,-0.4807,-0.5421,-0.579,-0.6644,-0.7739,-0.8343,-0.8708,-0.8824,-0.9808,-1.0785,-1.1631,-1.2363,-1.3315,-1.4391,-1.4867,-1.5364,-1.5957,-1.6655,-1.7349,-1.804,-1.9332,-2.0874,-2.2306,-2.2956,-2.3376,-2.4082,-2.4435,-2.4753,-2.5214,-2.5587,-2.6056,-2.6542,-2.6924,-2.6996,-2.6821,-2.7191,-2.7636,-2.786,-2.8125,-2.8615,-2.9604,-3.0045,-3.0451,-3.0743,-3.0937,-3.1073,-3.1421,-3.1672,-3.2248,-3.3161,-3.3931,-3.4936,-3.6036,-3.712,-3.7892,-3.8656,-3.9203,-3.9515,-3.9747,-3.9823,-3.9873,-4.0049,-4.0174,-4.0576,-4.0953,-4.143,-4.1756,-4.2007,-4.2509,-4.2685,-4.2811,-4.2961,-4.2986,-4.2986,-4.2986,-4.2986,2.0822,2.0086,1.9894,1.9508,1.8823,1.8197,1.7564,1.7089,1.6402,1.5546,1.4772,1.4395,1.3834,1.3142,1.3073,1.2551,1.1343,1.1454,1.128,1.1106,1.1232,1.0583,0.9513,0.9188,0.8349,0.6884,0.5904,0.5544,0.5302,0.4066,0.3081,0.2589,0.1479,0.0246,-0.0986,-0.2096,-0.3207,-0.3946,-0.4684,-0.5298,-0.5794,-0.6771,-0.7591,-0.8365,-0.8902,-0.9633,-1.0979,-1.1447,-1.1993,-1.2724,-1.3324,-1.4162,-1.4878,-1.5472,-1.585,-1.6205,-1.6903,-1.7596,-1.8298,-1.9577,-2.0974,-2.2146,-2.2925,-2.3601,-2.4323,-2.5086,-2.5432,-2.5709,-2.625,-2.6786,-2.7086,-2.7488,-2.764,-2.7505,-2.7691,-2.8044,-2.8514,-2.9219,-2.9794,-3.0161,-3.0548,-3.0762,-3.0898,-3.0898,-3.0995,-3.1208,-3.1441,-3.1787,-3.2685,-3.348,-3.4357,-3.5466,-3.658,-3.7702,-3.8494,-3.9143,-3.9686,-3.9969,-4.0149,-4.0199,-4.0375,-4.0701,-4.1103,-4.153,-4.2032,-4.2333,-4.261,-4.2785,-4.2936,-4.2986,-4.2986,-4.2986,-4.2986,-4.2986,-4.2986,2.0136,1.9502,1.9411,1.887,1.8279,1.7528,1.6845,1.6346,1.5535,1.4656,1.3989,1.3616,1.2894,1.2294,1.2456,1.1671,1.0172,0.9808,0.9519,0.934,0.9761,0.9201,0.8105,0.7373,0.6766,0.579,0.493,0.4315,0.3946,0.2466,0.1233,0.0616,-0.0246,-0.1355,-0.2466,-0.3453,-0.4441,-0.5053,-0.5636,-0.6124,-0.6757,-0.7585,-0.8515,-0.9213,-0.9754,-1.0831,-1.2311,-1.2782,-1.3204,-1.3684,-1.4401,-1.5007,-1.5483,-1.5839,-1.6205,-1.6667,-1.7361,-1.8181,-1.9113,-2.0155,-2.1362,-2.2596,-2.3553,-2.4378,-2.5042,-2.5883,-2.6303,-2.6443,-2.6902,-2.7427,-2.7712,-2.8137,-2.821,-2.826,-2.8357,-2.8681,-2.9291,-2.9985,-3.0353,-3.0606,-3.0762,-3.0898,-3.0898,-3.0898,-3.0995,-3.1112,-3.1208,-3.1556,-3.2342,-3.3027,-3.4022,-3.5024,-3.6013,-3.7167,-3.8224,-3.8949,-3.9724,-4.0109,-4.047,-4.0651,-4.0777,-4.1279,-4.1731,-4.2158,-4.261,-4.2635,-4.2861,-4.2886,-4.2986,-4.2986,-4.2986,-4.2986,-4.2986,-4.2986,-4.2986,1.9499,1.9194,1.9194,1.837,1.729,1.6709,1.6063,1.5252,1.4395,1.379,1.3274,1.2667,1.1943,1.1382,1.139,1.0422,0.8964,0.8343,0.7856,0.7362,0.7617,0.75,0.6766,0.5663,0.5053,0.4687,0.3948,0.296,0.1849,0.0616,-0.0616,-0.1356,-0.1849,-0.2835,-0.4066,-0.4435,-0.4923,-0.5782,-0.6436,-0.704,-0.7856,-0.8497,-0.9187,-1.0265,-1.1012,-1.1976,-1.3012,-1.3894,-1.4401,-1.4759,-1.5235,-1.572,-1.6087,-1.6205,-1.6667,-1.7491,-1.8194,-1.9153,-2.0197,-2.122,-2.246,-2.386,-2.4597,-2.5446,-2.6154,-2.6611,-2.7053,-2.7276,-2.7661,-2.8056,-2.8363,-2.8718,-2.8883,-2.9076,-2.9183,-2.9573,-3.0236,-3.0372,-3.0626,-3.0762,-3.0898,-3.0898,-3.0898,-3.0898,-3.0898,-3.0995,-3.1092,-3.1556,-3.1998,-3.2685,-3.3593,-3.4646,-3.5645,-3.6921,-3.8168,-3.9067,-3.9766,-4.0749,-4.1039,-4.1121,-4.1354,-4.1831,-4.2233,-4.266,-4.2911,-4.2961,-4.2986,-4.2986,-4.2986,-4.2986,-4.2986,-4.2986,-4.2986,-4.2986,-4.3112,1.8223,1.7694,1.7694,1.7039,1.5951,1.5609,1.5054,1.4303,1.3461,1.3017,1.2669,1.1651,1.0666,0.9808,0.9444,0.8593,0.7479,0.6869,0.6145,0.554,0.5418,0.5667,0.5548,0.4687,0.3453,0.2466,0.1849,0.0986,-0.0,-0.0863,-0.1849,-0.3207,-0.3325,-0.3697,-0.4435,-0.5122,-0.5612,-0.6259,-0.703,-0.7867,-0.8569,-0.9411,-1.0201,-1.0859,-1.1927,-1.2875,-1.3731,-1.4914,-1.5601,-1.572,-1.5839,-1.6194,-1.6655,-1.702,-1.7515,-1.8232,-1.9194,-2.0241,-2.1336,-2.2447,-2.3668,-2.4912,-2.5541,-2.6019,-2.6664,-2.7329,-2.7625,-2.7867,-2.8237,-2.8692,-2.8828,-2.892,-2.9213,-2.9568,-2.9686,-2.9922,-3.0392,-3.0645,-3.0762,-3.0879,-3.0898,-3.0898,-3.0898,-3.0898,-3.0898,-3.0879,-3.0995,-3.1132,-3.1732,-3.2214,-3.3038,-3.4247,-3.5511,-3.6851,-3.8091,-3.9019,-4.0001,-4.1139,-4.1569,-4.1663,-4.1923,-4.2359,-4.266,-4.2961,-4.2936,-4.2986,-4.2986,-4.2986,-4.2986,-4.2986,-4.2986,-4.2986,-4.2986,-4.2986,-4.3263,1.7004,1.6551,1.6551,1.5888,1.4899,1.433,1.3841,1.3155,1.2259,1.1876,1.1737,1.0442,0.9308,0.8552,0.7948,0.6995,0.6039,0.5309,0.4824,0.4355,0.3529,0.3307,0.3446,0.2837,0.1849,0.0616,-0.0,-0.0863,-0.1973,-0.2589,-0.333,-0.394,-0.4166,-0.4532,-0.5049,-0.5827,-0.6543,-0.7215,-0.8113,-0.8828,-0.968,-1.059,-1.1287,-1.1963,-1.303,-1.3846,-1.4606,-1.5537,-1.6087,-1.6205,-1.6312,-1.6655,-1.7138,-1.7823,-1.8345,-1.9181,-2.0392,-2.1507,-2.2481,-2.3591,-2.4691,-2.5746,-2.6382,-2.6953,-2.7463,-2.8048,-2.8392,-2.8428,-2.8747,-2.8957,-2.8993,-2.9094,-2.945,-2.9922,-3.0157,-3.0274,-3.0528,-3.0762,-3.0898,-3.0898,-3.0898,-3.0898,-3.0898,-3.0898,-3.0898,-3.0898,-3.0898,-3.123,-3.1582,-3.1933,-3.2656,-3.3938,-3.5078,-3.6362,-3.7765,-3.8901,-4.0105,-4.1223,-4.2066,-4.2188,-4.2399,-4.2735,-4.2836,-4.2986,-4.2986,-4.2986,-4.2986,-4.2986,-4.2986,-4.2986,-4.2986,-4.3011,-4.3011,-4.3187,-4.3438,1.5888,1.5625,1.5637,1.4939,1.3758,1.3088,1.2475,1.1845,1.0677,1.0601,1.0647,0.9129,0.7857,0.7275,0.6495,0.5651,0.4715,0.4257,0.3777,0.3085,0.2034,0.133,0.122,0.0861,-0.0,-0.0986,-0.148,-0.2342,-0.3451,-0.4186,-0.4426,-0.4655,-0.4848,-0.5343,-0.5981,-0.6654,-0.7517,-0.843,-0.9187,-1.0032,-1.0853,-1.1646,-1.2345,-1.3168,-1.3961,-1.483,-1.5525,-1.6164,-1.6317,-1.6295,-1.6819,-1.7327,-1.7718,-1.8533,-1.9456,-2.0461,-2.1637,-2.2677,-2.3763,-2.4773,-2.573,-2.6592,-2.7252,-2.7866,-2.8336,-2.8783,-2.892,-2.8902,-2.8975,-2.8975,-2.9094,-2.9331,-2.9804,-3.0274,-3.0392,-3.0626,-3.0762,-3.0898,-3.0898,-3.0898,-3.0898,-3.0898,-3.0898,-3.0937,-3.0976,-3.1152,-3.1191,-3.1525,-3.1761,-3.2157,-3.2852,-3.3912,-3.4986,-3.5873,-3.7354,-3.8781,-4.0093,-4.1452,-4.2339,-4.2785,-4.2785,-4.2911,-4.2936,-4.2986,-4.2986,-4.2986,-4.2986,-4.2986,-4.2986,-4.2986,-4.2986,-4.3037,-4.3112,-4.3413,-4.3689,1.4607,1.4155,1.3699,1.2942,1.2137,1.1449,1.0912,1.0262,0.937,0.9117,0.8964,0.7601,0.6027,0.4564,0.5035,0.4708,0.3992,0.3638,0.3061,0.1296,0.0472,-0.0356,-0.0598,-0.0851,-0.1723,-0.2708,-0.3204,-0.3697,-0.4303,-0.4507,-0.472,-0.5445,-0.5557,-0.603,-0.689,-0.7605,-0.8474,-0.9405,-1.0151,-1.1113,-1.208,-1.268,-1.3269,-1.4081,-1.5063,-1.586,-1.6639,-1.715,-1.7375,-1.7451,-1.7684,-1.8129,-1.8759,-1.9598,-2.0495,-2.1512,-2.2691,-2.3746,-2.4755,-2.5894,-2.6953,-2.7467,-2.7961,-2.8426,-2.882,-2.8993,-2.8975,-2.8975,-2.8975,-2.9112,-2.9331,-2.9686,-3.0077,-3.043,-3.0684,-3.082,-3.0898,-3.0898,-3.0898,-3.0918,-3.0937,-3.0898,-3.0937,-3.1269,-3.1348,-3.1426,-3.1621,-3.1875,-3.2093,-3.2374,-3.3115,-3.4044,-3.4972,-3.5875,-3.7444,-3.8988,-4.0421,-4.1574,-4.2463,-4.2986,-4.2986,-4.2986,-4.2986,-4.2986,-4.2986,-4.2986,-4.2986,-4.2986,-4.2986,-4.2986,-4.3062,-4.3288,-4.3514,-4.374,-4.4091,1.3044,1.2717,1.2045,1.1431,1.0696,1.0021,0.9361,0.8816,0.7931,0.775,0.7696,0.6238,0.4786,0.3673,0.4023,0.3681,0.2647,0.1957,0.115,-0.0231,-0.1391,-0.2211,-0.2573,-0.2618,-0.3136,-0.3867,-0.3982,-0.4343,-0.4817,-0.5065,-0.5542,-0.6377,-0.6497,-0.701,-0.7867,-0.8564,-0.944,-1.0507,-1.1183,-1.2141,-1.3066,-1.3674,-1.4351,-1.5183,-1.61,-1.6841,-1.7352,-1.7567,-1.7966,-1.8273,-1.857,-1.896,-1.9633,-2.0605,-2.1647,-2.2674,-2.39,-2.4939,-2.5869,-2.6815,-2.7642,-2.802,-2.8397,-2.8755,-2.8993,-2.8975,-2.8975,-2.8975,-2.8975,-2.9213,-2.9686,-2.9922,-3.0332,-3.0779,-3.1054,-3.1269,-3.1367,-3.1152,-3.0996,-3.1113,-3.125,-3.1387,-3.1523,-3.168,-3.1777,-3.1855,-3.1894,-3.2148,-3.2422,-3.2726,-3.3311,-3.4043,-3.5004,-3.6125,-3.7594,-3.9167,-4.0817,-4.1736,-4.2488,-4.2874,-4.2986,-4.2986,-4.2986,-4.2986,-4.2986,-4.2986,-4.2986,-4.2986,-4.3137,-4.3338,-4.3539,-4.3714,-4.4016,-4.4443,-4.4769,1.1564,1.1236,1.057,1.0021,0.9375,0.8595,0.8042,0.7598,0.6487,0.6381,0.6497,0.515,0.3821,0.3143,0.3033,0.2244,0.0898,-0.0449,-0.124,-0.1693,-0.2849,-0.3548,-0.4023,-0.4174,-0.4318,-0.4091,-0.4359,-0.4958,-0.5704,-0.5958,-0.6469,-0.7324,-0.7454,-0.8085,-0.8985,-0.97,-1.0539,-1.1615,-1.2388,-1.325,-1.4019,-1.463,-1.5487,-1.6497,-1.71,-1.7596,-1.7866,-1.8061,-1.828,-1.8848,-1.9487,-1.9846,-2.0372,-2.1422,-2.271,-2.3688,-2.479,-2.5757,-2.6503,-2.7401,-2.802,-2.814,-2.8618,-2.8993,-2.8975,-2.8975,-2.8975,-2.903,-2.9168,-2.9498,-3.0035,-3.0443,-3.0953,-3.1404,-3.1621,-3.1797,-3.1934,-3.1504,-3.1406,-3.1543,-3.166,-3.1758,-3.1953,-3.2129,-3.2207,-3.2285,-3.2324,-3.2422,-3.2695,-3.3034,-3.344,-3.4037,-3.4718,-3.621,-3.778,-3.919,-4.0775,-4.1761,-4.2538,-4.2762,-4.2986,-4.2986,-4.2986,-4.2986,-4.2986,-4.2986,-4.3087,-4.3187,-4.3388,-4.3714,-4.3991,-4.4192,-4.4618,-4.5146,-4.5397,1.0147,1.0029,0.8927,0.8374,0.8152,0.7154,0.6594,0.6376,0.5373,0.5154,0.5377,0.426,0.2464,0.1233,0.1009,0.0336,-0.0897,-0.213,-0.2914,-0.3138,-0.3833,-0.4173,-0.4518,-0.5111,-0.5447,-0.5686,-0.5672,-0.6025,-0.6641,-0.7005,-0.739,-0.8272,-0.8552,-0.9181,-1.018,-1.0801,-1.1752,-1.2803,-1.3499,-1.4304,-1.5075,-1.5809,-1.6396,-1.738,-1.7847,-1.8214,-1.8548,-1.8819,-1.9091,-1.9509,-2.0017,-2.0737,-2.1298,-2.2089,-2.3113,-2.4117,-2.5269,-2.6327,-2.7056,-2.7797,-2.8277,-2.8517,-2.8755,-2.8993,-2.8975,-2.9012,-2.9085,-2.9278,-2.9702,-3.0212,-3.0792,-3.1142,-3.1552,-3.193,-3.207,-3.2109,-3.2168,-3.2109,-3.1973,-3.2129,-3.2148,-3.2168,-3.2402,-3.2578,-3.2656,-3.2754,-3.2832,-3.2891,-3.3086,-3.3203,-3.3552,-3.3968,-3.4507,-3.6215,-3.7856,-3.9265,-4.0564,-4.1533,-4.2174,-4.2762,-4.2874,-4.2986,-4.2986,-4.2986,-4.3011,-4.3011,-4.3137,-4.3363,-4.374,-4.4091,-4.4367,-4.4669,-4.5146,-4.5598,-4.5986,0.8823,0.8706,0.7598,0.7154,0.6932,0.5819,0.5596,0.5596,0.4592,0.381,0.3362,0.2466,0.1009,-0.0449,-0.0561,-0.1121,-0.2466,-0.3253,-0.3813,-0.3924,-0.4369,-0.4815,-0.5162,-0.5751,-0.6454,-0.6956,-0.708,-0.7275,-0.7752,-0.7466,-0.8337,-0.9493,-0.9981,-1.08,-1.1801,-1.2445,-1.3119,-1.4024,-1.4829,-1.5381,-1.6028,-1.6728,-1.7587,-1.7917,-1.847,-1.874,-1.8915,-1.923,-1.9444,-1.9699,-2.0335,-2.1096,-2.1978,-2.2856,-2.3728,-2.4595,-2.57,-2.6675,-2.7297,-2.8037,-2.8397,-2.8517,-2.8755,-2.8993,-2.9048,-2.9159,-2.9481,-2.9944,-3.0438,-3.1009,-3.1373,-3.1706,-3.2124,-3.2461,-3.25,-3.2598,-3.2734,-3.2773,-3.2754,-3.2695,-3.2617,-3.2656,-3.2891,-3.3027,-3.3105,-3.3203,-3.332,-3.3359,-3.3418,-3.3418,-3.3544,-3.4067,-3.4693,-3.6156,-3.7834,-3.9147,-4.0358,-4.1305,-4.2061,-4.2513,-4.2874,-4.2986,-4.2986,-4.2986,-4.3011,-4.3112,-4.3388,-4.3664,-4.4066,-4.4493,-4.4869,-4.5246,-4.5648,-4.5974,-4.6314,0.7598,0.7598,0.6376,0.5926,0.5704,0.4815,0.448,0.4484,0.3474,0.2354,0.1458,0.0561,-0.0561,-0.1794,-0.213,-0.2466,-0.3701,-0.4036,-0.4372,-0.448,-0.5262,-0.5712,-0.6093,-0.6709,-0.7578,-0.8366,-0.8832,-0.8929,-0.8838,-0.8461,-0.9281,-1.077,-1.1749,-1.2465,-1.334,-1.3784,-1.4538,-1.5182,-1.5982,-1.6366,-1.6974,-1.7748,-1.8368,-1.838,-1.8836,-1.906,-1.9176,-1.9444,-1.9699,-2.0208,-2.0843,-2.1601,-2.2355,-2.3604,-2.461,-2.5349,-2.6205,-2.7039,-2.7659,-2.8259,-2.869,-2.8799,-2.9002,-2.9159,-2.9305,-2.972,-3.0185,-3.087,-3.1408,-3.1796,-3.1938,-3.228,-3.2598,-3.2812,-3.293,-3.3008,-3.3203,-3.3281,-3.3242,-3.3164,-3.3047,-3.3066,-3.3203,-3.3242,-3.3262,-3.3281,-3.3379,-3.3379,-3.3418,-3.3418,-3.3544,-3.4193,-3.5087,-3.6321,-3.7736,-3.898,-4.0221,-4.1215,-4.1834,-4.2425,-4.2762,-4.2986,-4.3037,-4.3187,-4.3263,-4.3413,-4.3689,-4.4066,-4.4593,-4.5045,-4.5447,-4.5748,-4.5999,-4.6245,-4.644,0.6487,0.6371,0.5262,0.4704,0.4592,0.3921,0.325,0.2464,0.1457,0.0673,-0.0,-0.0673,-0.1906,-0.3026,-0.3586,-0.3813,-0.4148,-0.4815,-0.5262,-0.5373,-0.6177,-0.6791,-0.7193,-0.7766,-0.8904,-0.9766,-1.0412,-1.0598,-1.059,-1.0009,-1.076,-1.2606,-1.3189,-1.377,-1.4644,-1.4856,-1.5286,-1.6096,-1.6517,-1.7218,-1.8024,-1.8465,-1.8617,-1.8884,-1.9048,-1.92,-1.9456,-1.9711,-2.0081,-2.0843,-2.1601,-2.223,-2.3106,-2.4239,-2.5226,-2.6083,-2.6796,-2.7642,-2.8295,-2.8708,-2.9094,-2.9313,-2.9507,-2.9709,-3.0033,-3.0408,-3.0907,-3.1539,-3.2007,-3.2343,-3.2649,-3.3027,-3.3242,-3.3262,-3.3262,-3.3281,-3.3418,-3.3418,-3.3418,-3.3398,-3.3223,-3.3262,-3.3359,-3.3379,-3.3398,-3.3418,-3.3418,-3.3418,-3.3418,-3.3418,-3.367,-3.4318,-3.5066,-3.6199,-3.7616,-3.8839,-4.0036,-4.1009,-4.1745,-4.2475,-4.2937,-4.3237,-4.3388,-4.3514,-4.3639,-4.384,-4.4141,-4.4593,-4.5146,-4.5522,-4.5824,-4.6024,-4.625,-4.6421,-4.6541,0.4927,0.5258,0.4369,0.4033,0.381,0.2802,0.1793,0.0896,-0.0,-0.1009,-0.1906,-0.2354,-0.3026,-0.381,-0.448,-0.4815,-0.5039,-0.5712,-0.6154,-0.6425,-0.7172,-0.7847,-0.8292,-0.9288,-1.0477,-1.1042,-1.1971,-1.2631,-1.2631,-1.2482,-1.2914,-1.4038,-1.4828,-1.5266,-1.5887,-1.6001,-1.6562,-1.7125,-1.7584,-1.8198,-1.8664,-1.8956,-1.8956,-1.9072,-1.9328,-1.9444,-1.9699,-2.0221,-2.0602,-2.1235,-2.1978,-2.2981,-2.3728,-2.4749,-2.5905,-2.7258,-2.773,-2.8357,-2.8738,-2.9203,-2.9544,-2.98,-2.9965,-3.0236,-3.0798,-3.1283,-3.1789,-3.2392,-3.2671,-3.3,-3.3,-3.332,-3.3379,-3.3418,-3.3418,-3.3418,-3.3418,-3.3418,-3.3418,-3.3418,-3.3418,-3.3418,-3.3418,-3.3418,-3.3418,-3.3418,-3.3418,-3.3418,-3.3418,-3.3418,-3.3796,-3.4298,-3.5046,-3.5911,-3.733,-3.8602,-3.9896,-4.087,-4.1769,-4.246,-4.3212,-4.3589,-4.379,-4.4166,-4.4543,-4.4694,-4.4744,-4.502,-4.5497,-4.5824,-4.615,-4.625,-4.6326,-4.6566,-4.69,0.3474,0.3583,0.3138,0.2914,0.269,0.1346,0.0336,-0.0336,-0.1346,-0.2466,-0.3362,-0.381,-0.4036,-0.4484,-0.515,-0.5485,-0.5819,-0.6629,-0.7001,-0.7539,-0.8366,-0.9104,-0.9737,-1.086,-1.1905,-1.2274,-1.3269,-1.4205,-1.4699,-1.4817,-1.4721,-1.5352,-1.6074,-1.6647,-1.6935,-1.7129,-1.7462,-1.7988,-1.8396,-1.8804,-1.9072,-1.9072,-1.92,-1.9328,-1.9584,-1.9826,-2.0094,-2.0729,-2.1235,-2.1866,-2.2846,-2.3893,-2.4517,-2.5778,-2.6918,-2.7971,-2.8606,-2.9064,-2.9451,-2.9751,-2.9984,-3.0222,-3.0604,-3.0932,-3.1495,-3.2093,-3.2652,-3.2922,-3.3087,-3.3253,-3.3418,-3.3418,-3.3418,-3.3418,-3.3418,-3.3418,-3.3418,-3.3418,-3.3418,-3.3418,-3.3418,-3.3418,-3.3418,-3.3418,-3.3418,-3.3418,-3.3418,-3.3418,-3.3418,-3.3418,-3.3922,-3.4423,-3.5397,-3.6258,-3.7451,-3.8721,-3.9919,-4.0966,-4.1867,-4.2633,-4.3437,-4.3991,-4.4267,-4.4744,-4.5246,-4.5422,-4.5422,-4.5598,-4.5799,-4.605,-4.625,-4.6276,-4.6446,-4.6686,-4.7138,0.202,0.1458,0.1346,0.1121,0.0785,-0.0112,-0.0785,-0.1458,-0.2802,-0.3362,-0.381,-0.4369,-0.4927,-0.5262,-0.5712,-0.6158,-0.6614,-0.7387,-0.8058,-0.8878,-0.9745,-1.0703,-1.1386,-1.23,-1.3358,-1.3979,-1.4719,-1.5485,-1.6141,-1.6121,-1.626,-1.6462,-1.6937,-1.7367,-1.7625,-1.7753,-1.8173,-1.8571,-1.8828,-1.8944,-1.9072,-1.92,-1.9328,-1.9571,-1.9954,-2.0335,-2.0982,-2.1515,-2.2048,-2.2803,-2.3918,-2.4936,-2.5737,-2.6919,-2.798,-2.8727,-2.9262,-2.9779,-3.0336,-3.0351,-3.0387,-3.0843,-3.1265,-3.1813,-3.2251,-3.2581,-3.3038,-3.3272,-3.3418,-3.3418,-3.3418,-3.3418,-3.3418,-3.3418,-3.3418,-3.3418,-3.3418,-3.3418,-3.3418,-3.3418,-3.3418,-3.3418,-3.3418,-3.3418,-3.3418,-3.3418,-3.3418,-3.3418,-3.3544,-3.3544,-3.4173,-3.4797,-3.5644,-3.6724,-3.7932,-3.9167,-4.0387,-4.1533,-4.2487,-4.3144,-4.3851,-4.4317,-4.4769,-4.5171,-4.5648,-4.5874,-4.605,-4.605,-4.6075,-4.6225,-4.6326,-4.6326,-4.6541,-4.69,-4.7375,0.0561,-0.0,-0.0673,-0.0785,-0.0561,-0.1906,-0.269,-0.3141,-0.3589,-0.4036,-0.4369,-0.515,-0.5601,-0.5824,-0.6492,-0.6974,-0.7613,-0.8762,-0.9374,-1.0303,-1.1405,-1.2283,-1.2983,-1.3789,-1.4795,-1.5158,-1.5713,-1.6131,-1.6473,-1.6882,-1.7012,-1.7282,-1.7551,-1.7798,-1.8045,-1.8431,-1.8688,-1.8816,-1.8944,-1.9072,-1.92,-1.9328,-1.9584,-1.9954,-2.0475,-2.0856,-2.1515,-2.2441,-2.3116,-2.3851,-2.4995,-2.6008,-2.6849,-2.7916,-2.872,-2.9527,-2.9924,-3.0375,-3.0974,-3.0827,-3.088,-3.1447,-3.1944,-3.2294,-3.2676,-3.3058,-3.3165,-3.3418,-3.3418,-3.3418,-3.3418,-3.3418,-3.3418,-3.3418,-3.3418,-3.3418,-3.3418,-3.3418,-3.3418,-3.3418,-3.3418,-3.3418,-3.3418,-3.3418,-3.3418,-3.3418,-3.3418,-3.3418,-3.3544,-3.3796,-3.4298,-3.5107,-3.5974,-3.7076,-3.8403,-3.9633,-4.1046,-4.2079,-4.316,-4.378,-4.4518,-4.4869,-4.5296,-4.5698,-4.5949,-4.61,-4.62,-4.6276,-4.6326,-4.6326,-4.6326,-4.6446,-4.6661,-4.7019,-4.7611,-0.0785,-0.157,-0.2578,-0.258,-0.213,-0.3138,-0.3813,-0.4151,-0.426,-0.4484,-0.5039,-0.5708,-0.6177,-0.6532,-0.7102,-0.7992,-0.8711,-0.9799,-1.0814,-1.1809,-1.288,-1.3771,-1.4444,-1.4971,-1.5764,-1.5964,-1.6494,-1.6882,-1.6882,-1.74,-1.7658,-1.7787,-1.7787,-1.8185,-1.8442,-1.8956,-1.9072,-1.9072,-1.9072,-1.92,-1.9328,-1.9444,-1.9966,-2.0361,-2.1075,-2.1778,-2.2497,-2.3432,-2.4232,-2.5103,-2.6057,-2.7144,-2.7865,-2.8731,-2.9432,-3.0102,-3.0628,-3.0865,-3.1212,-3.134,-3.1357,-3.1835,-3.2256,-3.2676,-3.2931,-3.3165,-3.3418,-3.3418,-3.3418,-3.3418,-3.3418,-3.3418,-3.3418,-3.3418,-3.3418,-3.3418,-3.3418,-3.3418,-3.3418,-3.3418,-3.3418,-3.3418,-3.3418,-3.3418,-3.3418,-3.3418,-3.3418,-3.3418,-3.3544,-3.3796,-3.4423,-3.5252,-3.6326,-3.7449,-3.868,-4.0383,-4.1946,-4.2798,-4.3795,-4.4543,-4.5196,-4.5497,-4.5723,-4.5999,-4.6175,-4.6276,-4.6326,-4.6326,-4.6326,-4.6326,-4.6326,-4.6446,-4.69,-4.7231,-4.7847,-0.213,-0.3474,-0.3924,-0.3924,-0.3474,-0.3589,-0.3813,-0.426,-0.4707,-0.5154,-0.5596,-0.6168,-0.6786,-0.742,-0.801,-0.8858,-1.0141,-1.1056,-1.215,-1.3341,-1.4205,-1.4961,-1.5455,-1.6084,-1.6494,-1.6623,-1.7012,-1.74,-1.74,-1.7787,-1.8173,-1.8442,-1.8442,-1.8571,-1.8711,-1.8956,-1.9072,-1.9072,-1.9072,-1.9328,-1.9456,-1.9608,-2.0157,-2.0975,-2.1801,-2.2566,-2.3519,-2.4539,-2.5463,-2.6312,-2.7358,-2.8314,-2.8862,-2.9895,-3.0588,-3.0771,-3.1194,-3.1341,-3.1377,-3.1763,-3.1891,-3.2038,-3.2549,-3.2785,-3.2931,-3.3165,-3.3418,-3.3418,-3.3418,-3.3418,-3.3418,-3.3418,-3.3418,-3.3418,-3.3418,-3.3418,-3.3418,-3.3418,-3.3418,-3.3418,-3.3418,-3.3418,-3.3418,-3.3418,-3.3418,-3.3418,-3.3418,-3.3418,-3.3564,-3.4167,-3.4855,-3.5956,-3.7095,-3.8353,-3.9848,-4.1565,-4.2855,-4.3713,-4.4432,-4.5185,-4.5698,-4.5874,-4.61,-4.6301,-4.6326,-4.6326,-4.6326,-4.6326,-4.6326,-4.6326,-4.6326,-4.6421,-4.6874,-4.7324,-4.7938,-0.3253,-0.3924,-0.426,-0.4592,-0.4815,-0.4815,-0.4812,-0.5039,-0.5601,-0.6163,-0.6624,-0.6899,-0.7635,-0.8514,-0.9258,-1.0141,-1.1311,-1.2627,-1.3788,-1.4633,-1.5495,-1.5873,-1.6353,-1.6753,-1.7152,-1.7271,-1.7658,-1.7787,-1.7776,-1.8173,-1.8442,-1.8571,-1.8828,-1.8944,-1.8944,-1.9072,-1.9072,-1.9072,-1.9072,-1.9212,-1.9608,-2.0002,-2.076,-2.1801,-2.2591,-2.3652,-2.4698,-2.5649,-2.6599,-2.7424,-2.8629,-2.9319,-2.9854,-3.0861,-3.0991,-3.112,-3.1377,-3.1525,-3.1782,-3.2166,-3.2549,-3.2676,-3.2785,-3.3038,-3.3184,-3.3311,-3.3418,-3.3418,-3.3418,-3.3418,-3.3418,-3.3418,-3.3418,-3.3418,-3.3418,-3.3418,-3.3418,-3.3418,-3.3418,-3.3418,-3.3418,-3.3496,-3.3535,-3.3672,-3.3691,-3.3633,-3.3652,-3.3662,-3.3769,-3.4785,-3.5578,-3.6833,-3.8102,-3.9433,-4.0907,-4.2494,-4.3578,-4.4274,-4.5072,-4.5855,-4.6175,-4.62,-4.6225,-4.6301,-4.6326,-4.6326,-4.6326,-4.6326,-4.6326,-4.6326,-4.6326,-4.6566,-4.7044,-4.7349,-4.7769,-0.4257,-0.448,-0.4815,-0.5262,-0.5596,-0.5596,-0.5596,-0.594,-0.6415,-0.7001,-0.7472,-0.78,-0.8813,-0.9968,-1.0509,-1.1374,-1.2559,-1.3742,-1.4788,-1.5623,-1.6281,-1.6602,-1.7012,-1.74,-1.7529,-1.7787,-1.8045,-1.8173,-1.8302,-1.8571,-1.8828,-1.8828,-1.8944,-1.9072,-1.9072,-1.9072,-1.92,-1.9224,-1.9401,-1.9745,-2.0335,-2.0864,-2.1697,-2.2688,-2.3638,-2.4639,-2.5758,-2.6727,-2.7752,-2.8601,-2.9388,-3.01,-3.075,-3.1009,-3.112,-3.1377,-3.1506,-3.1782,-3.2166,-3.2549,-3.2785,-3.3038,-3.3038,-3.3165,-3.3292,-3.3418,-3.3418,-3.3418,-3.3418,-3.3418,-3.3418,-3.3418,-3.3418,-3.3437,-3.3457,-3.3457,-3.3496,-3.3496,-3.3496,-3.3496,-3.3633,-3.3691,-3.3789,-3.3906,-3.4043,-3.3965,-3.3906,-3.4044,-3.4239,-3.5174,-3.6349,-3.7591,-3.8935,-4.0321,-4.1707,-4.3238,-4.416,-4.4886,-4.5494,-4.6301,-4.6301,-4.6276,-4.6301,-4.6326,-4.6326,-4.6326,-4.6326,-4.6326,-4.6326,-4.6326,-4.6326,-4.6566,-4.707,-4.7375,-4.7652,-0.5039,-0.5481,-0.5708,-0.5935,-0.6274,-0.6056,-0.6279,-0.6842,-0.7285,-0.7783,-0.8249,-0.8845,-0.9916,-1.1414,-1.1583,-1.2454,-1.376,-1.4515,-1.5475,-1.6281,-1.6861,-1.7271,-1.7529,-1.7787,-1.8045,-1.8173,-1.8431,-1.8559,-1.8699,-1.8828,-1.9072,-1.9072,-1.9072,-1.9237,-1.9249,-1.9273,-1.9401,-1.9591,-1.9936,-2.0566,-2.1331,-2.1844,-2.2752,-2.3796,-2.4758,-2.5712,-2.6756,-2.7867,-2.8804,-2.9526,-3.0213,-3.062,-3.1009,-3.1249,-3.1377,-3.1506,-3.1782,-3.2038,-3.2422,-3.2785,-3.3038,-3.3292,-3.3292,-3.3418,-3.3418,-3.3418,-3.3418,-3.3418,-3.3418,-3.3418,-3.3418,-3.3437,-3.3457,-3.3476,-3.3516,-3.3555,-3.3613,-3.3633,-3.3633,-3.373,-3.3965,-3.4121,-3.4355,-3.4473,-3.4414,-3.4394,-3.4505,-3.4953,-3.5191,-3.5787,-3.6933,-3.8166,-3.9522,-4.1092,-4.249,-4.3914,-4.4622,-4.5278,-4.5714,-4.6326,-4.6326,-4.6326,-4.6326,-4.6326,-4.6326,-4.6326,-4.6326,-4.6326,-4.6326,-4.6326,-4.6326,-4.6661,-4.7138,-4.7231,-4.7534,-0.5712,-0.6047,-0.627,-0.6492,-0.6614,-0.7354,-0.7844,-0.8201,-0.8351,-0.8749,-0.9435,-0.993,-1.0932,-1.1823,-1.2742,-1.377,-1.476,-1.588,-1.6518,-1.713,-1.7529,-1.7658,-1.7916,-1.8173,-1.8431,-1.8559,-1.8699,-1.8944,-1.8944,-1.9072,-1.9072,-1.9072,-1.9237,-1.9322,-1.956,-1.9739,-1.9869,-2.0178,-2.0669,-2.1437,-2.2291,-2.2946,-2.3969,-2.5024,-2.5881,-2.6814,-2.8097,-2.8821,-2.9561,-3.0343,-3.075,-3.1009,-3.1249,-3.1377,-3.1506,-3.1782,-3.2038,-3.2403,-3.2657,-3.3038,-3.3292,-3.3292,-3.3418,-3.3418,-3.3418,-3.3418,-3.3418,-3.3418,-3.3496,-3.3535,-3.3574,-3.3594,-3.3711,-3.3828,-3.3887,-3.3945,-3.4023,-3.4101,-3.4101,-3.4258,-3.4492,-3.4609,-3.4844,-3.4844,-3.4805,-3.4956,-3.5126,-3.5619,-3.6224,-3.6807,-3.7758,-3.9001,-4.0427,-4.1982,-4.3121,-4.4425,-4.511,-4.5671,-4.6059,-4.6326,-4.6326,-4.6326,-4.6326,-4.6326,-4.6326,-4.6326,-4.6326,-4.6326,-4.6326,-4.6446,-4.6446,-4.678,-4.7112,-4.7205,-4.7677,-0.6381,-0.6497,-0.6826,-0.707,-0.7696,-0.8489,-0.9266,-0.9896,-0.9673,-0.9968,-1.0778,-1.1351,-1.2001,-1.2873,-1.3964,-1.5003,-1.5885,-1.6615,-1.726,-1.7647,-1.8045,-1.8173,-1.8302,-1.8571,-1.8688,-1.8828,-1.8944,-1.9072,-1.9072,-1.9084,-1.9096,-1.9241,-1.9358,-1.9776,-2.0198,-2.0548,-2.1018,-2.1332,-2.1806,-2.2531,-2.3384,-2.4303,-2.5351,-2.6487,-2.7238,-2.8065,-2.9036,-2.9561,-3.0213,-3.0879,-3.1009,-3.112,-3.1377,-3.1506,-3.1653,-3.191,-3.2422,-3.2676,-3.2912,-3.3165,-3.3292,-3.3418,-3.3437,-3.3583,-3.3583,-3.3583,-3.3437,-3.3418,-3.3574,-3.3711,-3.3769,-3.3848,-3.4062,-3.4277,-3.4355,-3.4434,-3.4531,-3.4648,-3.4766,-3.4902,-3.5019,-3.5098,-3.5156,-3.5176,-3.5367,-3.5638,-3.5984,-3.6443,-3.7146,-3.7847,-3.8893,-4.01,-4.1511,-4.2981,-4.3927,-4.4816,-4.5428,-4.5817,-4.6059,-4.6326,-4.6326,-4.6326,-4.6326,-4.6326,-4.6326,-4.6326,-4.6326,-4.6326,-4.6326,-4.6446,-4.6566,-4.678,-4.7112,-4.7586,-4.8172,-0.7059,-0.6735,-0.7182,-0.7821,-0.8843,-0.9557,-1.0623,-1.1955,-1.1264,-1.1414,-1.2209,-1.2959,-1.3487,-1.4251,-1.5302,-1.6001,-1.6637,-1.7323,-1.7787,-1.8033,-1.8431,-1.8571,-1.8699,-1.8956,-1.8944,-1.9072,-1.9072,-1.9072,-1.9084,-1.9145,-1.9277,-1.9589,-1.9887,-2.0285,-2.092,-2.1621,-2.2257,-2.3126,-2.3434,-2.4156,-2.5026,-2.6034,-2.6902,-2.8081,-2.8625,-2.9151,-2.9822,-3.0473,-3.0879,-3.1009,-3.112,-3.1377,-3.1506,-3.1653,-3.1782,-3.2166,-3.2549,-3.2804,-3.3038,-3.3292,-3.3496,-3.3496,-3.3496,-3.376,-3.3819,-3.3779,-3.3633,-3.3769,-3.4073,-3.4082,-3.416,-3.4277,-3.4453,-3.4668,-3.4785,-3.4922,-3.5098,-3.5176,-3.5254,-3.5371,-3.543,-3.5527,-3.5605,-3.5625,-3.5835,-3.6226,-3.6689,-3.7132,-3.7914,-3.8729,-3.9627,-4.0924,-4.1993,-4.3177,-4.4175,-4.4939,-4.5696,-4.6059,-4.618,-4.6326,-4.6326,-4.6326,-4.6326,-4.6326,-4.6326,-4.6326,-4.6326,-4.6326,-4.6301,-4.6301,-4.6541,-4.6755,-4.7112,-4.7703,-4.8405,-0.7214,-0.7188,-0.7617,-0.8256,-0.8987,-0.9945,-1.1208,-1.2451,-1.3352,-1.3583,-1.362,-1.4202,-1.4785,-1.5438,-1.6318,-1.6997,-1.7429,-1.7988,-1.8302,-1.8559,-1.8828,-1.8956,-1.8956,-1.9072,-1.9072,-1.9072,-1.9072,-1.9084,-1.9145,-1.9265,-1.9528,-1.9899,-2.0298,-2.0838,-2.1776,-2.2592,-2.3398,-2.4564,-2.5383,-2.5783,-2.6612,-2.7471,-2.8246,-2.9036,-2.9674,-2.9935,-3.0473,-3.0732,-3.1138,-3.1249,-3.1377,-3.1377,-3.1377,-3.1782,-3.2038,-3.2294,-3.2657,-3.3038,-3.3184,-3.3369,-3.3613,-3.3848,-3.4073,-3.4171,-3.4211,-3.4093,-3.4004,-3.4309,-3.4466,-3.4473,-3.459,-3.4726,-3.4863,-3.5059,-3.5215,-3.541,-3.5625,-3.5664,-3.5703,-3.5762,-3.584,-3.5898,-3.5996,-3.6132,-3.6384,-3.6654,-3.7193,-3.7729,-3.8507,-3.9299,-4.0084,-4.1119,-4.2166,-4.32,-4.4299,-4.5061,-4.5696,-4.6059,-4.6301,-4.6326,-4.6326,-4.6326,-4.6326,-4.6326,-4.6326,-4.6326,-4.6326,-4.6326,-4.6301,-4.6301,-4.6541,-4.6874,-4.7375,-4.799,-4.8548,-0.7307,-0.7426,-0.8242,-0.9,-0.9842,-1.1051,-1.2354,-1.3674,-1.4741,-1.533,-1.5484,-1.5763,-1.6159,-1.6551,-1.739,-1.7873,-1.8033,-1.8559,-1.8699,-1.8944,-1.8944,-1.9072,-1.9072,-1.9072,-1.9072,-1.9072,-1.9084,-1.912,-1.9265,-1.9634,-1.9899,-2.0422,-2.0939,-2.1789,-2.2714,-2.3444,-2.4429,-2.5816,-2.6769,-2.7567,-2.8097,-2.8642,-2.9299,-2.9952,-3.0343,-3.0602,-3.0861,-3.112,-3.1249,-3.1377,-3.1377,-3.1377,-3.1506,-3.191,-3.2166,-3.2422,-3.2785,-3.3165,-3.335,-3.3633,-3.3828,-3.4082,-3.4466,-3.4564,-3.4851,-3.4792,-3.4498,-3.4785,-3.4883,-3.5019,-3.5117,-3.5234,-3.543,-3.5605,-3.5664,-3.5762,-3.584,-3.5879,-3.5898,-3.5918,-3.5957,-3.5957,-3.6152,-3.6268,-3.6519,-3.6944,-3.7348,-3.8283,-3.9057,-3.9844,-4.0625,-4.1399,-4.242,-4.3451,-4.4422,-4.5184,-4.5817,-4.6059,-4.6326,-4.6326,-4.6326,-4.6326,-4.6326,-4.6326,-4.6326,-4.6326,-4.6326,-4.6326,-4.6326,-4.6301,-4.6661,-4.7019,-4.7663,-4.8264,-4.9176,-0.7541,-0.778,-0.8853,-0.9863,-1.0821,-1.2038,-1.3537,-1.4923,-1.5746,-1.6607,-1.72,-1.7278,-1.7449,-1.7667,-1.8175,-1.8524,-1.8699,-1.8956,-1.9072,-1.9072,-1.9072,-1.9072,-1.9072,-1.9072,-1.9108,-1.9285,-1.9309,-1.9467,-1.965,-2.0047,-2.0668,-2.1154,-2.1971,-2.2741,-2.3474,-2.4345,-2.5442,-2.6501,-2.7567,-2.8757,-2.9299,-2.9691,-3.0213,-3.0602,-3.0861,-3.0991,-3.1249,-3.1377,-3.1377,-3.1377,-3.1377,-3.1377,-3.1635,-3.191,-3.2294,-3.2549,-3.3193,-3.3447,-3.3652,-3.3945,-3.416,-3.4375,-3.4629,-3.4975,-3.5284,-3.5422,-3.5121,-3.5179,-3.541,-3.5488,-3.5586,-3.5664,-3.5859,-3.5976,-3.5996,-3.5996,-3.6016,-3.6035,-3.6035,-3.6035,-3.6035,-3.6035,-3.6132,-3.6384,-3.6809,-3.7213,-3.7883,-3.8793,-3.9583,-4.0366,-4.1142,-4.1911,-4.2799,-4.3802,-4.4693,-4.5184,-4.5696,-4.6059,-4.6326,-4.6326,-4.6326,-4.6326,-4.6326,-4.6326,-4.6326,-4.6326,-4.6326,-4.6326,-4.6326,-4.6351,-4.7009,-4.7445,-4.788,-4.8681,-4.9732,-0.8254,-0.886,-0.948,-1.0258,-1.1222,-1.2346,-1.3546,-1.5085,-1.6284,-1.7145,-1.792,-1.8522,-1.8617,-1.8221,-1.878,-1.8956,-1.8944,-1.9072,-1.9072,-1.9072,-1.9072,-1.9072,-1.9084,-1.9108,-1.9217,-1.9431,-1.9658,-1.9948,-2.0435,-2.0914,-2.1481,-2.2189,-2.2563,-2.3474,-2.4588,-2.5442,-2.6115,-2.7185,-2.8114,-2.9299,-3.01,-3.049,-3.0861,-3.112,-3.1249,-3.1377,-3.1377,-3.1377,-3.1377,-3.1377,-3.1377,-3.1377,-3.1635,-3.2038,-3.2313,-3.2701,-3.3347,-3.3759,-3.4043,-3.4355,-3.4609,-3.4941,-3.5195,-3.5391,-3.5681,-3.5838,-3.5762,-3.5762,-3.582,-3.582,-3.5879,-3.5879,-3.6016,-3.6016,-3.6016,-3.6016,-3.6016,-3.6035,-3.6035,-3.6035,-3.6035,-3.6152,-3.6403,-3.6654,-3.7213,-3.775,-3.8416,-3.9341,-4.0127,-4.0906,-4.1806,-4.2546,-4.3302,-4.3998,-4.4667,-4.5086,-4.5574,-4.5939,-4.6326,-4.6326,-4.6326,-4.6326,-4.6326,-4.6326,-4.6326,-4.6326,-4.6326,-4.6326,-4.6401,-4.6597,-4.7434,-4.7974,-4.8292,-4.915,-5.0498]},{"header":{"parameterUnit":"m.s-1","parameterCategory":1,"la1":31.0,"la2":29.5877,"lo1":-88.7671,"lo2":-86.6584,"dy":0.0162,"dx":0.0185,"nx":115,"ny":88,"refTime":"2023-06-18T18:00:00:Z","depth":0,"parameterNumber":3,"parameterNumberName":"V-component_of_WINDS"},"data":[0.0,0.0,0.0,0.0,0.0,0.0,0.0,0.0,0.0,0.0,0.0,0.0,0.0,0.0,0.0,0.0,0.0,0.0,0.0,0.0,0.0,0.0,0.0,0.0,0.0,0.0,0.0,0.0,0.0,0.0,0.0,0.0,0.0,0.0,0.0,0.0,0.0,0.0,0.0,0.0,0.0,0.0,0.0,0.0,0.0,0.0,0.0,0.0,0.0,0.0,0.0,0.0,0.0,0.0,0.0,0.0,0.0,0.0,0.0,0.0,0.0,0.0,0.0,0.0,0.0,0.0,0.0,0.0,0.0,0.0,0.0,0.0,0.0,0.0,0.0,0.0,0.0,0.0,0.0,0.0,0.0,0.0,0.0,0.0,0.0,0.0,0.0,0.0,0.0,0.0,0.0,0.0,0.0,0.0,0.0,0.0,0.0,0.0,0.0,0.0,0.0,0.0,0.0,0.0,0.0,0.0,0.0,0.0,0.0,0.0,0.0,0.0,0.0,0.0,0.0,0.0,0.0,0.0,0.0,0.0,0.0,0.0,0.0,0.0,0.0,0.0,0.0,0.0,0.0,0.0,0.0,0.0,0.0,0.0,0.0,0.0,0.0,0.0,0.0,0.0,0.0,0.0,0.0,0.0,0.0,0.0,0.0,0.0,0.0,0.0,0.0,0.0,0.0,0.0,0.0,0.0,0.0,0.0,0.0,0.0,0.0,0.0,0.0,0.0,0.0,0.0,0.0,0.0,0.0,0.0,0.0,0.0,0.0,0.0,0.0,0.0,0.0,0.0,0.0,0.0,0.0,0.0,0.0,0.0,0.0,0.0,0.0,0.0,0.0,0.0,0.0,0.0,0.0,0.0,0.0,0.0,0.0,0.0,0.0,0.0,0.0,0.0,0.0,0.0,0.0,0.0,0.0,0.0,0.0,0.0,0.0,0.0,0.0,0.0,0.0,0.0,0.0,0.0,0.0,0.0,0.0,0.0,0.0,0.0,0.0,0.0,0.0,0.0,0.0,0.0,0.0,0.0,0.0,0.0,0.0,0.0,0.0,0.0,0.0,0.0,0.0,0.0,0.0,0.0,0.0,0.0,0.0,0.0,0.0,0.0,0.0,0.0,0.0,0.0,0.0,0.0,0.0,0.0,0.0,0.0,0.0,0.0,0.0,0.0,0.0,0.0,0.0,0.0,0.0,0.0,0.0,0.0,0.0,0.0,0.0,0.0,0.0,0.0,0.0,0.0,0.0,0.0,0.0,0.0,0.0,0.0,0.0,0.0,0.0,0.0,0.0,0.0,0.0,0.0,0.0,0.0,0.0,0.0,0.0,0.0,0.0,0.0,0.0,0.0,0.0,0.0,0.0,0.0,0.0,0.0,0.0,0.0,0.0,0.0,0.0,0.0,0.0,0.0,0.0,0.0,0.0,0.0,0.0,0.0,0.0,0.0,0.0,0.0,0.0,0.0,0.0,0.0,0.0,0.0,0.0,0.0,0.0,0.0,0.0,0.0,0.0,0.0,0.0,0.0,0.0,0.0,0.0,0.0,0.0,0.0,0.0,0.0,0.0,0.0,0.0,0.0,0.0,0.0,0.0,0.0,0.0,0.0,0.0,0.0,0.0,0.0,0.0,0.0,0.0,0.0,0.0,0.0,0.0,0.0,0.0,0.0,0.0,0.0,0.0,0.0,0.0,0.0,0.0,0.0,0.0,0.0,0.0,0.0,0.0,0.0,0.0,0.0,0.0,0.0,0.0,0.0,0.0,0.0,0.0,0.0,0.0,0.0,0.0,0.0,0.0,0.0,0.0,0.0,0.0,0.0,0.0,0.0,0.0,0.0,0.0,0.0,0.0,0.0,0.0,0.0,0.0,0.0,0.0,0.0,0.0,0.0,0.0,0.0,0.0,0.0,0.0,0.0,0.0,0.0,0.0,0.0,0.0,0.0,0.0,0.0,0.0,0.0,0.0,0.0,0.0,0.0,0.0,0.0,0.0,0.0,0.0,0.0,0.0,0.0,0.0,0.0,0.0,0.0,0.0,0.0,0.0,0.0,0.0,0.0,0.0,0.0,0.0,0.0,0.0,0.0,0.0,0.0,0.0,0.0,0.0,0.0,0.0,0.0,0.0,0.0,0.0,0.0,0.0,0.0,0.0,0.0,0.0,0.0,0.0,0.0,0.0,0.0,0.0,0.0,0.0,0.0,0.0,0.0,0.0,0.0,0.0,0.0,0.0,0.0,0.0,0.0,0.0,0.0,0.0,0.0,0.0,0.0,0.0,0.0,0.0,0.0,0.0,0.0,0.0,0.0,0.0,0.0,0.0,0.0,0.0,0.0,0.0,0.0,0.0,0.0,0.0,0.0,0.0,0.0,0.0,0.0,0.0,0.0,0.0,0.0,0.0,0.0,0.0,0.0,0.0,0.0,0.0,0.0,0.0,0.0,0.0,0.0,0.0,0.0,0.0,0.0,0.0,0.0,0.0,0.0,0.0,0.0,0.0,0.0,0.0,0.0,0.0,0.0,0.0,0.0,0.0,0.0,0.0,0.0,0.0,0.0,0.0,0.0,0.0,0.0,0.0,0.0,0.0,0.0,0.0,0.0,0.0,0.0,0.0,0.0,0.0,0.0,0.0,0.0,0.0,0.0,0.0,0.0,0.0,0.0,0.0,0.0,0.0,0.0,0.0,0.0,0.0,0.0,0.0,0.0,0.0,0.0,0.0,0.0,0.0,0.0,0.0,0.0,0.0,0.0,0.0,0.0,0.0,0.0,0.0,0.0,0.0,0.0,0.0,0.0,0.0,0.0,0.0,0.0,0.0,0.0,0.0,0.0,0.0,0.0,0.0,0.0,0.0,0.0,0.0,0.0,0.0,0.0,0.0,0.0,0.0,0.0,0.0,0.0,0.0,0.0,0.0,0.0,0.0,0.0,0.0,0.0,0.0,0.0,0.0,0.0,0.0,0.0,0.0,0.0,0.0,0.0,0.0,0.0,0.0,0.0,0.0,0.0,0.0,0.0,0.0,0.0,0.0,0.0,0.0,0.0,0.0,0.0,0.0,0.0,0.0,0.0,0.0,0.0,0.0,0.0,0.0,0.0,0.0,0.0,0.0,0.0,0.0,0.0,0.0,0.0,0.0,0.0,0.0,0.0,0.0,0.0,0.0,0.0,0.0,0.0,0.0,0.0,0.0,0.0,0.0,0.0,0.0,0.0,0.0,0.0,0.0,0.0,0.0,0.0,0.0,0.0,0.0,0.0,0.0,0.0,0.0,0.0,0.0,0.0,0.0,0.0,0.0,0.0,0.0,0.0,0.0,0.0,0.0,0.0,0.0,0.0,0.0,0.0,0.0,0.0,0.0,0.0,0.0,0.0,0.0,0.0,0.0,0.0,0.0,0.0,0.0,0.0,0.0,0.0,0.0,0.0,0.0,0.0,0.0,0.0,0.0,0.0,0.0,0.0,0.0,0.0,0.0,0.0,0.0,0.0,0.0,0.0,0.0,0.0,0.0,0.0,0.0,0.0,0.0,0.0,0.0,0.0,0.0,0.0,0.0,0.0,0.0,0.0,0.0,0.0,0.0,0.0,0.0,0.0,0.0,0.0,0.0,0.0,0.0,0.0,0.0,0.0,0.0,0.0,0.0,0.0,0.0,0.0,0.0,0.0,0.0,0.0,0.0,0.0,0.0,0.0,0.0,0.0,0.0,0.0,0.0,0.0,0.0,0.0,0.0,0.0,0.0,0.0,0.0,0.0,0.0,0.0,0.0,0.0,0.0,0.0,0.0,0.0,0.0,0.0,0.0,0.0,0.0,0.0,0.0,0.0,0.0,0.0,0.0,0.0,0.0,0.0,0.0,0.0,0.0,0.0,0.0,0.0,0.0,0.0,0.0,0.0,0.0,0.0,0.0,0.0,0.0,0.0,0.0,0.0,0.0,0.0,0.0,0.0,0.0,0.0,0.0,0.0,0.0,0.0,0.0,0.0,0.0,0.0,0.0,0.0,0.0,0.0,0.0,0.0,0.0,0.0,0.0,0.0,0.0,0.0,0.0,0.0,0.0,0.0,0.0,0.0,0.0,0.0,0.0,0.0,0.0,0.0,0.0,0.0,0.0,0.0,0.0,0.0,0.0,0.0,0.0,0.0,0.0,0.0,0.0,0.0,0.0,0.0,0.0,0.0,0.0,0.0,0.0,0.0,0.0,0.0,0.0,0.0,0.0,0.0,0.0,0.0,0.0,0.0,0.0,0.0,0.0,0.0,0.0,0.0,0.0,0.0,0.0,0.0,-2.068,0.0,0.0,0.0,0.0,0.0,0.0,0.0,0.0,0.0,0.0,0.0,0.0,0.0,0.0,0.0,0.0,0.0,0.0,0.0,0.0,0.0,0.0,0.0,0.0,0.0,0.0,0.0,0.0,0.0,0.0,0.0,0.0,0.0,0.0,0.0,0.0,0.0,0.0,0.0,0.0,0.0,0.0,0.0,0.0,0.0,0.0,0.0,0.0,0.0,0.0,0.0,0.0,0.0,0.0,0.0,0.0,0.0,0.0,0.0,0.0,0.0,0.0,0.0,0.0,0.0,0.0,0.0,0.0,0.0,0.0,0.0,0.0,0.0,0.0,0.0,0.0,0.0,0.0,0.0,0.0,0.0,0.0,0.0,0.0,0.0,0.0,0.0,0.0,0.0,0.0,0.0,0.0,0.0,0.0,0.0,0.0,0.0,0.0,0.0,0.0,0.0,0.0,0.0,0.0,0.0,0.0,0.0,0.0,0.0,0.0,-1.9944,-2.0074,-2.0401,-2.066,-2.0786,0.0,0.0,0.0,0.0,0.0,0.0,0.0,0.0,0.0,0.0,0.0,0.0,0.0,0.0,0.0,0.0,0.0,0.0,0.0,0.0,0.0,0.0,0.0,0.0,0.0,0.0,0.0,0.0,0.0,0.0,0.0,0.0,0.0,0.0,0.0,0.0,0.0,0.0,0.0,0.0,0.0,0.0,0.0,0.0,0.0,0.0,0.0,0.0,0.0,0.0,0.0,0.0,0.0,0.0,0.0,0.0,0.0,0.0,0.0,0.0,0.0,0.0,0.0,0.0,0.0,0.0,0.0,0.0,0.0,0.0,0.0,0.0,0.0,0.0,0.0,0.0,0.0,0.0,0.0,0.0,0.0,0.0,0.0,0.0,0.0,0.0,0.0,0.0,0.0,0.0,0.0,0.0,0.0,0.0,0.0,0.0,0.0,0.0,0.0,0.0,0.0,0.0,0.0,0.0,0.0,0.0,0.0,0.0,0.0,0.0,0.0,0.0,-2.0509,-2.0831,-2.1019,0.0,0.0,0.0,0.0,0.0,0.0,0.0,0.0,0.0,0.0,0.0,0.0,0.0,0.0,0.0,0.0,0.0,0.0,0.0,0.0,0.0,0.0,0.0,0.0,0.0,0.0,0.0,0.0,0.0,0.0,0.0,0.0,0.0,0.0,0.0,0.0,0.0,0.0,0.0,0.0,0.0,0.0,0.0,0.0,0.0,0.0,0.0,0.0,0.0,0.0,0.0,0.0,0.0,0.0,0.0,0.0,0.0,0.0,0.0,0.0,0.0,0.0,0.0,0.0,0.0,0.0,0.0,0.0,0.0,0.0,0.0,0.0,0.0,0.0,0.0,0.0,0.0,0.0,0.0,0.0,0.0,0.0,0.0,0.0,0.0,0.0,0.0,0.0,0.0,0.0,0.0,0.0,0.0,0.0,0.0,0.0,0.0,0.0,0.0,0.0,0.0,0.0,0.0,0.0,0.0,0.0,0.0,0.0,0.0,0.0,-2.0074,-2.0096,-2.0509,0.0,-2.1336,0.0,0.0,0.0,0.0,0.0,0.0,0.0,0.0,0.0,0.0,0.0,0.0,0.0,0.0,0.0,0.0,0.0,0.0,0.0,0.0,0.0,0.0,0.0,0.0,0.0,0.0,0.0,0.0,0.0,0.0,0.0,0.0,0.0,0.0,0.0,0.0,0.0,0.0,0.0,0.0,0.0,0.0,0.0,0.0,0.0,0.0,0.0,0.0,0.0,0.0,0.0,0.0,0.0,0.0,0.0,0.0,0.0,0.0,0.0,0.0,0.0,0.0,0.0,0.0,0.0,0.0,0.0,0.0,0.0,0.0,0.0,0.0,0.0,0.0,0.0,0.0,0.0,0.0,0.0,0.0,0.0,0.0,0.0,0.0,0.0,0.0,0.0,0.0,0.0,0.0,0.0,0.0,0.0,0.0,0.0,0.0,0.0,0.0,0.0,0.0,0.0,0.0,0.0,0.0,0.0,0.0,0.0,0.0,0.0,0.0,-2.0009,-2.0096,-2.0658,-2.1192,0.0,0.0,0.0,0.0,0.0,0.0,0.0,0.0,0.0,0.0,0.0,0.0,0.0,0.0,0.0,0.0,0.0,0.0,0.0,0.0,0.0,0.0,0.0,0.0,0.0,0.0,0.0,0.0,0.0,0.0,0.0,0.0,0.0,0.0,0.0,0.0,0.0,0.0,0.0,0.0,0.0,0.0,0.0,0.0,0.0,0.0,0.0,0.0,0.0,0.0,0.0,0.0,0.0,0.0,0.0,0.0,0.0,0.0,0.0,0.0,0.0,0.0,0.0,0.0,0.0,0.0,0.0,0.0,0.0,0.0,0.0,0.0,0.0,0.0,0.0,0.0,0.0,0.0,0.0,0.0,0.0,0.0,0.0,0.0,0.0,0.0,0.0,0.0,0.0,0.0,0.0,0.0,0.0,0.0,0.0,0.0,0.0,0.0,0.0,0.0,0.0,0.0,0.0,0.0,0.0,0.0,0.0,0.0,0.0,0.0,-1.9878,-2.0074,-2.027,-2.085,-2.136,-2.1698,0.0,0.0,0.0,0.0,0.0,0.0,0.0,0.0,0.0,0.0,0.0,0.0,0.0,0.0,0.0,0.0,0.0,0.0,0.0,0.0,0.0,0.0,0.0,0.0,0.0,0.0,0.0,0.0,0.0,0.0,0.0,0.0,0.0,0.0,0.0,0.0,0.0,0.0,0.0,0.0,0.0,0.0,0.0,0.0,0.0,0.0,0.0,0.0,0.0,0.0,0.0,0.0,0.0,0.0,0.0,0.0,0.0,0.0,0.0,0.0,0.0,0.0,0.0,0.0,0.0,0.0,0.0,0.0,0.0,0.0,0.0,0.0,0.0,0.0,0.0,0.0,0.0,0.0,0.0,0.0,0.0,0.0,0.0,0.0,0.0,0.0,0.0,0.0,0.0,0.0,0.0,0.0,0.0,0.0,0.0,0.0,0.0,0.0,0.0,0.0,0.0,0.0,0.0,0.0,0.0,0.0,0.0,0.0,-1.9878,-2.0009,-2.027,-2.0658,-2.1042,-2.136,0.0,0.0,0.0,0.0,0.0,0.0,0.0,0.0,0.0,0.0,0.0,0.0,0.0,0.0,0.0,0.0,0.0,0.0,0.0,0.0,0.0,0.0,0.0,0.0,0.0,0.0,0.0,0.0,0.0,0.0,0.0,0.0,0.0,0.0,0.0,0.0,0.0,0.0,0.0,0.0,0.0,0.0,0.0,0.0,0.0,0.0,0.0,0.0,0.0,0.0,0.0,0.0,0.0,0.0,0.0,0.0,0.0,0.0,0.0,0.0,0.0,0.0,0.0,0.0,0.0,0.0,0.0,0.0,0.0,0.0,0.0,0.0,0.0,0.0,0.0,0.0,0.0,0.0,0.0,0.0,0.0,0.0,0.0,0.0,0.0,0.0,0.0,0.0,0.0,0.0,0.0,0.0,0.0,0.0,0.0,0.0,0.0,0.0,0.0,0.0,0.0,0.0,0.0,0.0,0.0,0.0,0.0,0.0,0.0,-1.9857,-2.0009,-2.027,-2.0658,-2.1042,-2.136,0.0,0.0,0.0,0.0,0.0,0.0,0.0,0.0,0.0,0.0,0.0,0.0,0.0,0.0,0.0,0.0,0.0,0.0,0.0,0.0,0.0,0.0,0.0,0.0,0.0,0.0,0.0,0.0,0.0,0.0,0.0,0.0,0.0,0.0,0.0,0.0,0.0,0.0,0.0,0.0,0.0,0.0,0.0,0.0,0.0,0.0,0.0,0.0,0.0,0.0,0.0,0.0,0.0,0.0,0.0,0.0,0.0,0.0,0.0,0.0,0.0,0.0,0.0,0.0,0.0,0.0,0.0,0.0,0.0,0.0,0.0,0.0,0.0,0.0,0.0,0.0,0.0,0.0,0.0,0.0,0.0,0.0,0.0,0.0,0.0,0.0,0.0,0.0,0.0,0.0,0.0,0.0,0.0,0.0,0.0,0.0,0.0,0.0,0.0,0.0,0.0,0.0,0.0,0.0,0.0,0.0,0.0,0.0,0.0,-1.9944,0.0,-2.027,-2.0658,-2.1042,-2.136,0.0,0.0,0.0,0.0,0.0,0.0,0.0,0.0,0.0,0.0,0.0,0.0,0.0,0.0,0.0,0.0,0.0,0.0,0.0,0.0,0.0,0.0,0.0,0.0,0.0,0.0,0.0,0.0,0.0,0.0,0.0,0.0,0.0,0.0,0.0,0.0,0.0,0.0,0.0,0.0,0.0,0.0,0.0,0.0,0.0,0.0,0.0,0.0,0.0,0.0,0.0,0.0,0.0,0.0,0.0,0.0,0.0,0.0,0.0,0.0,0.0,0.0,0.0,0.0,0.0,0.0,0.0,0.0,0.0,0.0,0.0,0.0,0.0,0.0,0.0,0.0,0.0,0.0,0.0,0.0,0.0,0.0,0.0,0.0,0.0,0.0,0.0,0.0,0.0,0.0,0.0,0.0,0.0,0.0,0.0,0.0,0.0,0.0,0.0,0.0,0.0,0.0,0.0,0.0,0.0,0.0,0.0,0.0,-1.9965,-2.0096,-2.0096,-2.0314,-2.068,-2.1111,-2.1406,0.0,0.0,0.0,0.0,0.0,0.0,0.0,0.0,0.0,0.0,0.0,0.0,0.0,0.0,0.0,0.0,0.0,0.0,0.0,0.0,0.0,0.0,0.0,0.0,0.0,0.0,0.0,0.0,0.0,0.0,0.0,0.0,0.0,0.0,0.0,0.0,0.0,0.0,0.0,0.0,0.0,0.0,0.0,0.0,0.0,0.0,0.0,0.0,0.0,0.0,0.0,0.0,0.0,0.0,0.0,0.0,0.0,0.0,0.0,0.0,0.0,0.0,0.0,0.0,0.0,0.0,0.0,0.0,0.0,0.0,0.0,0.0,0.0,0.0,0.0,0.0,0.0,0.0,0.0,0.0,0.0,0.0,0.0,0.0,0.0,0.0,0.0,0.0,0.0,0.0,0.0,0.0,0.0,0.0,0.0,0.0,0.0,0.0,0.0,0.0,0.0,0.0,0.0,0.0,0.0,0.0,0.0,0.0,0.0,-2.0642,-2.0642,-2.0996,-2.1643,-2.1868,-2.2042,0.0,0.0,0.0,0.0,0.0,0.0,0.0,0.0,0.0,0.0,0.0,0.0,0.0,0.0,0.0,0.0,0.0,0.0,0.0,0.0,0.0,0.0,0.0,0.0,0.0,0.0,0.0,0.0,0.0,0.0,0.0,0.0,0.0,0.0,0.0,0.0,0.0,0.0,0.0,0.0,0.0,0.0,0.0,0.0,0.0,0.0,0.0,0.0,0.0,0.0,0.0,0.0,0.0,0.0,0.0,0.0,0.0,0.0,0.0,0.0,0.0,0.0,0.0,0.0,0.0,0.0,0.0,0.0,0.0,0.0,0.0,0.0,0.0,0.0,0.0,0.0,0.0,0.0,0.0,0.0,0.0,0.0,0.0,0.0,0.0,0.0,0.0,0.0,0.0,0.0,0.0,0.0,0.0,0.0,0.0,0.0,0.0,0.0,0.0,0.0,0.0,0.0,0.0,0.0,0.0,0.0,0.0,0.0,0.0,-2.1661,-2.1415,-2.155,-2.2183,-2.232,-2.2389,-2.2492,0.0,0.0,0.0,0.0,0.0,0.0,0.0,0.0,0.0,0.0,0.0,0.0,0.0,0.0,0.0,0.0,0.0,0.0,0.0,0.0,0.0,0.0,0.0,0.0,0.0,0.0,0.0,0.0,0.0,0.0,0.0,0.0,0.0,0.0,0.0,0.0,0.0,0.0,0.0,0.0,0.0,0.0,0.0,0.0,0.0,0.0,0.0,0.0,0.0,0.0,0.0,0.0,0.0,0.0,0.0,0.0,0.0,0.0,0.0,0.0,0.0,0.0,0.0,0.0,0.0,0.0,0.0,0.0,0.0,0.0,0.0,0.0,0.0,0.0,0.0,0.0,0.0,0.0,0.0,0.0,0.0,0.0,0.0,0.0,0.0,0.0,0.0,0.0,0.0,0.0,0.0,0.0,0.0,0.0,0.0,0.0,0.0,0.0,0.0,0.0,0.0,0.0,0.0,0.0,0.0,0.0,0.0,0.0,-2.2969,-2.238,-2.2157,-2.2433,-2.2502,-2.2594,0.0,0.0,0.0,0.0,0.0,0.0,0.0,0.0,0.0,0.0,0.0,0.0,0.0,0.0,0.0,0.0,0.0,0.0,0.0,0.0,0.0,0.0,0.0,0.0,0.0,0.0,0.0,0.0,0.0,0.0,0.0,0.0,0.0,0.0,0.0,0.0,0.0,0.0,0.0,0.0,0.0,0.0,0.0,0.0,0.0,0.0,0.0,0.0,0.0,0.0,0.0,0.0,0.0,0.0,0.0,0.0,0.0,0.0,0.0,0.0,0.0,0.0,0.0,0.0,0.0,0.0,0.0,0.0,0.0,0.0,0.0,0.0,0.0,0.0,0.0,0.0,0.0,0.0,0.0,0.0,0.0,0.0,0.0,0.0,0.0,0.0,0.0,0.0,0.0,0.0,0.0,0.0,0.0,0.0,0.0,0.0,0.0,0.0,0.0,0.0,0.0,0.0,0.0,0.0,0.0,0.0,0.0,0.0,0.0,-2.4066,-2.3784,-2.3523,-2.3284,-2.3139,-2.3033,0.0,0.0,0.0,0.0,0.0,0.0,0.0,0.0,0.0,0.0,0.0,0.0,0.0,0.0,0.0,0.0,0.0,0.0,0.0,0.0,0.0,0.0,0.0,0.0,0.0,0.0,0.0,0.0,0.0,0.0,0.0,0.0,0.0,0.0,0.0,0.0,0.0,0.0,0.0,0.0,0.0,0.0,0.0,0.0,0.0,0.0,0.0,0.0,0.0,0.0,0.0,0.0,0.0,0.0,0.0,0.0,0.0,0.0,0.0,0.0,0.0,0.0,0.0,0.0,0.0,0.0,0.0,0.0,0.0,0.0,0.0,0.0,0.0,0.0,0.0,0.0,0.0,0.0,0.0,0.0,0.0,0.0,0.0,0.0,0.0,0.0,0.0,0.0,0.0,0.0,0.0,0.0,0.0,0.0,0.0,0.0,0.0,0.0,0.0,0.0,0.0,0.0,0.0,0.0,0.0,0.0,0.0,0.0,-2.4992,-2.4849,-2.4539,-2.425,-2.3959,-2.3593,-2.3458,0.0,0.0,0.0,0.0,0.0,0.0,0.0,0.0,0.0,0.0,0.0,0.0,0.0,0.0,0.0,0.0,0.0,0.0,0.0,0.0,0.0,0.0,0.0,0.0,0.0,0.0,0.0,0.0,0.0,0.0,0.0,0.0,0.0,0.0,0.0,0.0,0.0,0.0,0.0,0.0,0.0,0.0,0.0,0.0,0.0,0.0,0.0,0.0,0.0,0.0,0.0,0.0,0.0,0.0,0.0,0.0,0.0,0.0,0.0,0.0,0.0,0.0,0.0,0.0,0.0,0.0,0.0,0.0,0.0,0.0,0.0,0.0,0.0,0.0,0.0,0.0,0.0,0.0,0.0,0.0,0.0,0.0,0.0,0.0,0.0,0.0,0.0,0.0,0.0,0.0,0.0,0.0,0.0,0.0,0.0,0.0,0.0,0.0,0.0,0.0,0.0,0.0,0.0,0.0,0.0,0.0,0.0,0.0,-2.5465,-2.5394,-2.5016,-2.4731,-2.4562,-2.3982,-2.374,0.0,0.0,0.0,0.0,0.0,0.0,0.0,0.0,0.0,0.0,0.0,0.0,0.0,0.0,0.0,0.0,0.0,0.0,0.0,0.0,0.0,0.0,0.0,0.0,0.0,0.0,0.0,0.0,0.0,0.0,0.0,0.0,0.0,0.0,0.0,0.0,0.0,0.0,0.0,0.0,0.0,0.0,0.0,0.0,0.0,0.0,0.0,0.0,0.0,0.0,0.0,0.0,0.0,0.0,0.0,0.0,0.0,0.0,0.0,0.0,0.0,0.0,0.0,0.0,0.0,0.0,0.0,0.0,0.0,0.0,0.0,0.0,0.0,0.0,0.0,0.0,0.0,0.0,0.0,0.0,0.0,0.0,0.0,0.0,0.0,0.0,0.0,0.0,0.0,0.0,0.0,0.0,0.0,0.0,0.0,0.0,0.0,0.0,0.0,0.0,0.0,0.0,0.0,0.0,0.0,0.0,0.0,0.0,-2.6302,-2.6025,-2.5746,-2.5394,-2.4874,-2.4177,-2.3909,0.0,0.0,0.0,0.0,0.0,0.0,0.0,0.0,0.0,0.0,0.0,0.0,0.0,0.0,0.0,0.0,0.0,0.0,0.0,0.0,0.0,0.0,0.0,0.0,0.0,0.0,0.0,0.0,0.0,0.0,0.0,0.0,0.0,0.0,0.0,0.0,0.0,0.0,0.0,0.0,0.0,0.0,0.0,0.0,0.0,0.0,0.0,0.0,-3.5933,0.0,0.0,0.0,0.0,0.0,0.0,0.0,0.0,0.0,0.0,0.0,0.0,0.0,0.0,0.0,0.0,0.0,0.0,0.0,0.0,0.0,0.0,0.0,0.0,0.0,0.0,0.0,0.0,0.0,0.0,0.0,0.0,0.0,0.0,0.0,0.0,0.0,0.0,0.0,0.0,0.0,0.0,0.0,0.0,0.0,0.0,0.0,0.0,0.0,0.0,0.0,0.0,0.0,0.0,0.0,0.0,0.0,0.0,0.0,-2.7162,-2.696,-2.662,-2.6208,-2.5652,-2.5111,-2.4611,0.0,0.0,0.0,0.0,0.0,0.0,0.0,0.0,0.0,0.0,0.0,0.0,0.0,0.0,0.0,0.0,0.0,0.0,0.0,0.0,0.0,0.0,0.0,0.0,0.0,0.0,0.0,0.0,0.0,0.0,0.0,0.0,0.0,0.0,0.0,0.0,0.0,0.0,0.0,0.0,0.0,0.0,0.0,0.0,0.0,0.0,0.0,0.0,0.0,0.0,0.0,0.0,0.0,0.0,0.0,0.0,0.0,0.0,0.0,0.0,0.0,0.0,0.0,0.0,0.0,0.0,0.0,0.0,0.0,0.0,0.0,0.0,0.0,0.0,0.0,0.0,0.0,0.0,0.0,0.0,0.0,0.0,0.0,0.0,0.0,0.0,0.0,0.0,0.0,0.0,0.0,0.0,0.0,0.0,0.0,0.0,0.0,0.0,0.0,0.0,0.0,0.0,0.0,0.0,0.0,0.0,0.0,-2.8157,-2.8091,-2.7987,-2.763,-2.7162,-2.6688,-2.6302,-2.5676,-2.4921,0.0,0.0,0.0,0.0,0.0,0.0,0.0,0.0,0.0,0.0,0.0,0.0,0.0,0.0,0.0,0.0,0.0,0.0,0.0,0.0,0.0,0.0,0.0,0.0,0.0,0.0,0.0,0.0,0.0,0.0,0.0,0.0,0.0,0.0,0.0,0.0,0.0,0.0,-3.9287,-3.8486,0.0,0.0,0.0,0.0,0.0,0.0,0.0,0.0,-3.6665,0.0,0.0,0.0,0.0,0.0,0.0,0.0,0.0,0.0,0.0,0.0,0.0,0.0,0.0,0.0,0.0,0.0,0.0,0.0,0.0,0.0,0.0,0.0,0.0,0.0,0.0,0.0,0.0,0.0,0.0,0.0,0.0,0.0,0.0,0.0,0.0,0.0,0.0,0.0,0.0,0.0,0.0,0.0,0.0,0.0,0.0,0.0,0.0,0.0,0.0,0.0,0.0,0.0,0.0,0.0,0.0,-2.8922,-2.8994,-2.8994,-2.8922,-2.8481,-2.8091,-2.7736,-2.7271,-2.6756,-2.6371,0.0,0.0,0.0,0.0,0.0,0.0,0.0,0.0,0.0,0.0,0.0,0.0,0.0,0.0,0.0,0.0,0.0,0.0,0.0,0.0,0.0,0.0,0.0,0.0,0.0,0.0,0.0,0.0,0.0,0.0,0.0,0.0,0.0,0.0,0.0,0.0,0.0,0.0,0.0,-3.7962,-3.7607,0.0,0.0,0.0,0.0,0.0,0.0,0.0,0.0,-3.7229,0.0,0.0,0.0,0.0,0.0,0.0,0.0,0.0,0.0,0.0,0.0,0.0,0.0,0.0,0.0,0.0,0.0,0.0,0.0,0.0,0.0,0.0,0.0,0.0,0.0,0.0,0.0,0.0,0.0,0.0,0.0,0.0,0.0,0.0,0.0,0.0,0.0,0.0,0.0,0.0,0.0,0.0,0.0,0.0,0.0,0.0,0.0,0.0,0.0,0.0,0.0,0.0,0.0,0.0,0.0,-2.9651,-2.9931,-2.9993,-2.9713,-2.9435,-2.9002,-2.8556,-2.7999,-2.763,0.0,0.0,0.0,0.0,0.0,0.0,0.0,0.0,0.0,0.0,0.0,0.0,0.0,0.0,0.0,0.0,0.0,0.0,0.0,0.0,0.0,0.0,0.0,0.0,0.0,0.0,0.0,0.0,0.0,0.0,0.0,0.0,0.0,0.0,0.0,0.0,0.0,0.0,0.0,0.0,-3.8331,-3.8051,-3.8243,0.0,0.0,0.0,0.0,0.0,0.0,-3.7857,-3.7648,0.0,0.0,0.0,0.0,0.0,0.0,0.0,0.0,0.0,0.0,0.0,0.0,0.0,0.0,0.0,0.0,0.0,0.0,0.0,0.0,0.0,0.0,0.0,0.0,0.0,0.0,0.0,0.0,0.0,0.0,0.0,0.0,0.0,0.0,0.0,0.0,0.0,0.0,0.0,0.0,0.0,0.0,0.0,0.0,0.0,0.0,0.0,0.0,0.0,0.0,0.0,0.0,0.0,0.0,0.0,-3.0358,-3.0718,-3.0777,-3.0539,-3.0329,-2.9875,-2.9317,-2.8839,-2.8417,0.0,0.0,0.0,0.0,0.0,0.0,0.0,0.0,0.0,0.0,0.0,0.0,0.0,0.0,0.0,0.0,0.0,0.0,0.0,0.0,0.0,0.0,0.0,0.0,0.0,0.0,0.0,0.0,0.0,0.0,0.0,0.0,0.0,0.0,0.0,0.0,0.0,0.0,0.0,0.0,0.0,-3.862,-3.8797,-3.8342,0.0,0.0,0.0,0.0,-3.8505,-3.8316,0.0,0.0,0.0,0.0,0.0,0.0,0.0,0.0,0.0,0.0,0.0,0.0,0.0,0.0,0.0,0.0,0.0,0.0,0.0,0.0,0.0,0.0,0.0,0.0,0.0,0.0,0.0,0.0,0.0,0.0,0.0,0.0,0.0,0.0,0.0,0.0,0.0,0.0,0.0,0.0,0.0,0.0,0.0,0.0,0.0,0.0,0.0,0.0,0.0,0.0,0.0,0.0,0.0,0.0,0.0,0.0,-3.1161,-3.1219,-3.1278,-3.1364,-3.1073,-3.0718,-3.0329,-2.9842,-2.9435,0.0,0.0,0.0,0.0,0.0,0.0,0.0,0.0,0.0,0.0,0.0,0.0,0.0,0.0,0.0,0.0,0.0,0.0,0.0,0.0,0.0,0.0,0.0,0.0,0.0,0.0,0.0,0.0,0.0,0.0,0.0,0.0,0.0,0.0,0.0,0.0,0.0,0.0,0.0,0.0,0.0,-3.9103,-3.9213,-3.8753,-3.8622,0.0,0.0,-3.8674,-3.9185,-3.9023,0.0,0.0,0.0,0.0,0.0,0.0,0.0,0.0,0.0,0.0,0.0,0.0,0.0,0.0,0.0,0.0,0.0,0.0,0.0,0.0,0.0,0.0,0.0,0.0,0.0,0.0,0.0,0.0,0.0,0.0,0.0,0.0,0.0,0.0,0.0,0.0,0.0,0.0,0.0,0.0,0.0,0.0,0.0,0.0,0.0,0.0,0.0,0.0,0.0,0.0,0.0,0.0,0.0,0.0,0.0,-3.1456,-3.1989,-3.237,-3.2725,-3.3001,-3.2883,-3.2706,-3.2347,-3.1921,-3.1521,0.0,0.0,0.0,0.0,0.0,0.0,0.0,0.0,0.0,0.0,0.0,0.0,0.0,0.0,0.0,0.0,0.0,0.0,0.0,0.0,0.0,0.0,0.0,0.0,0.0,0.0,0.0,0.0,0.0,0.0,0.0,0.0,0.0,0.0,0.0,0.0,0.0,0.0,0.0,0.0,0.0,0.0,-3.9788,-3.9295,0.0,0.0,0.0,-3.9134,-3.9693,0.0,0.0,0.0,0.0,0.0,0.0,0.0,0.0,0.0,0.0,0.0,0.0,0.0,0.0,0.0,0.0,0.0,0.0,0.0,0.0,0.0,0.0,0.0,0.0,0.0,0.0,0.0,0.0,0.0,0.0,0.0,0.0,0.0,0.0,0.0,0.0,0.0,0.0,0.0,0.0,0.0,0.0,0.0,0.0,0.0,0.0,0.0,0.0,0.0,0.0,0.0,0.0,0.0,0.0,0.0,0.0,0.0,-3.2885,-3.3475,-3.3952,-3.4355,-3.4355,-3.4237,-3.3999,-3.3577,0.0,0.0,0.0,0.0,0.0,0.0,0.0,0.0,0.0,0.0,0.0,0.0,0.0,0.0,0.0,0.0,0.0,0.0,0.0,0.0,0.0,0.0,0.0,0.0,0.0,0.0,0.0,-4.0994,0.0,0.0,0.0,0.0,0.0,0.0,0.0,0.0,0.0,0.0,0.0,0.0,0.0,0.0,-4.0354,-4.034,-3.9826,-3.9589,0.0,0.0,-3.9666,-4.0126,-4.01,-4.0039,0.0,0.0,0.0,0.0,0.0,0.0,0.0,0.0,0.0,0.0,0.0,0.0,0.0,0.0,0.0,0.0,0.0,0.0,0.0,0.0,0.0,0.0,0.0,0.0,0.0,0.0,0.0,0.0,0.0,0.0,0.0,0.0,0.0,0.0,0.0,0.0,0.0,0.0,0.0,0.0,0.0,0.0,0.0,0.0,0.0,0.0,0.0,0.0,0.0,0.0,0.0,0.0,0.0,0.0,0.0,-3.3879,-3.4237,-3.4589,-3.4852,-3.4736,-3.4678,-3.4647,-3.4506,-3.4329,0.0,0.0,0.0,0.0,0.0,0.0,0.0,0.0,0.0,0.0,0.0,0.0,0.0,0.0,0.0,0.0,0.0,0.0,0.0,0.0,0.0,0.0,0.0,0.0,0.0,0.0,0.0,0.0,0.0,0.0,0.0,0.0,0.0,0.0,0.0,0.0,0.0,0.0,0.0,0.0,0.0,-4.0768,-4.0863,-4.0358,-4.0179,0.0,0.0,-4.0405,-4.0767,-4.0801,-4.0864,-4.1138,0.0,0.0,0.0,0.0,0.0,0.0,0.0,0.0,0.0,0.0,0.0,0.0,0.0,0.0,0.0,0.0,0.0,0.0,0.0,0.0,0.0,0.0,0.0,0.0,0.0,0.0,0.0,0.0,0.0,0.0,0.0,0.0,0.0,0.0,0.0,0.0,0.0,0.0,0.0,0.0,0.0,0.0,0.0,0.0,0.0,0.0,0.0,0.0,0.0,0.0,0.0,0.0,0.0,-3.3939,-3.4759,-3.5239,-3.5837,-3.642,-3.6542,-3.6569,-3.6653,-3.6542,-3.6542,0.0,0.0,0.0,0.0,0.0,0.0,0.0,0.0,0.0,0.0,0.0,0.0,0.0,0.0,0.0,0.0,0.0,0.0,0.0,0.0,0.0,0.0,0.0,0.0,0.0,0.0,0.0,0.0,-4.2155,-4.2462,-4.2158,0.0,0.0,0.0,0.0,0.0,0.0,0.0,0.0,0.0,0.0,-4.1323,-4.1209,-4.0866,0.0,0.0,-4.0793,-4.0832,-4.1438,-4.1339,-4.1173,-4.1292,-4.1086,0.0,0.0,0.0,0.0,0.0,0.0,0.0,0.0,0.0,0.0,0.0,0.0,0.0,0.0,0.0,0.0,0.0,0.0,0.0,0.0,0.0,0.0,0.0,0.0,0.0,0.0,0.0,0.0,0.0,0.0,0.0,0.0,0.0,0.0,0.0,0.0,0.0,0.0,0.0,0.0,0.0,0.0,0.0,0.0,0.0,0.0,0.0,0.0,0.0,0.0,0.0,0.0,-3.479,-3.5615,-3.631,-3.6943,-3.7562,-3.7801,-3.7976,-3.8173,-3.8116,-3.8197,0.0,0.0,0.0,0.0,0.0,0.0,0.0,0.0,0.0,0.0,0.0,0.0,0.0,0.0,0.0,0.0,0.0,0.0,0.0,0.0,0.0,0.0,0.0,0.0,0.0,0.0,0.0,0.0,-4.279,-4.3174,-4.3061,0.0,0.0,0.0,0.0,0.0,0.0,0.0,0.0,0.0,0.0,-4.1764,-4.1664,-4.1304,-4.1211,-4.1528,-4.1342,-4.1374,-4.1946,-4.1586,-4.1225,-4.106,0.0,0.0,0.0,0.0,0.0,0.0,0.0,0.0,0.0,0.0,0.0,0.0,0.0,0.0,0.0,0.0,0.0,0.0,0.0,0.0,0.0,0.0,0.0,0.0,0.0,0.0,0.0,0.0,0.0,0.0,-3.2873,0.0,0.0,0.0,0.0,0.0,0.0,0.0,0.0,0.0,0.0,0.0,0.0,0.0,0.0,0.0,0.0,0.0,0.0,0.0,0.0,0.0,0.0,-3.5707,-3.6662,-3.7298,-3.777,-3.8116,-3.8262,-3.8488,-3.8788,-3.8908,-3.909,-3.9368,0.0,0.0,0.0,0.0,0.0,0.0,0.0,0.0,0.0,0.0,0.0,0.0,0.0,0.0,0.0,0.0,0.0,0.0,0.0,0.0,0.0,0.0,0.0,0.0,0.0,0.0,-4.2908,-4.334,-4.3905,0.0,0.0,0.0,0.0,0.0,0.0,0.0,0.0,0.0,0.0,-4.25,-4.2055,-4.2195,-4.1759,-4.1652,-4.1949,-4.1948,-4.1946,-4.2071,-4.1649,-4.1158,0.0,0.0,0.0,0.0,0.0,0.0,0.0,0.0,0.0,0.0,0.0,0.0,0.0,0.0,0.0,0.0,0.0,0.0,0.0,0.0,0.0,0.0,0.0,0.0,0.0,0.0,0.0,-3.3074,-3.3181,0.0,0.0,0.0,0.0,0.0,0.0,0.0,0.0,0.0,0.0,0.0,-3.3798,-3.3983,0.0,0.0,0.0,0.0,0.0,0.0,0.0,0.0,0.0,0.0,0.0,0.0,-3.6537,-3.7178,-3.777,-3.823,-3.8567,-3.8898,-3.9222,-3.9454,-3.9647,-4.0118,-4.078,0.0,0.0,0.0,0.0,0.0,0.0,0.0,0.0,0.0,0.0,0.0,0.0,0.0,0.0,0.0,0.0,0.0,0.0,0.0,0.0,0.0,0.0,0.0,0.0,0.0,-4.3848,0.0,0.0,0.0,0.0,0.0,0.0,0.0,0.0,0.0,0.0,0.0,-4.3221,-4.3234,-4.28,-4.2484,-4.2472,-4.2137,-4.1917,0.0,0.0,0.0,0.0,0.0,0.0,0.0,0.0,0.0,0.0,0.0,0.0,0.0,0.0,-4.0558,-3.9571,-3.9178,-3.8915,-3.8504,0.0,0.0,0.0,0.0,0.0,0.0,0.0,0.0,0.0,0.0,0.0,0.0,0.0,0.0,0.0,0.0,-3.408,0.0,0.0,0.0,0.0,0.0,0.0,0.0,0.0,-3.4998,-3.5137,-3.5023,-3.5243,-3.531,0.0,-3.556,-3.5568,0.0,0.0,0.0,0.0,0.0,0.0,0.0,0.0,-3.7364,-3.812,-3.8642,-3.9224,-3.9875,-4.0221,-4.0538,-4.09,-4.1366,-4.1952,-4.2703,-4.3089,-4.3454,0.0,0.0,0.0,0.0,0.0,0.0,0.0,0.0,0.0,0.0,0.0,0.0,0.0,0.0,0.0,0.0,0.0,0.0,0.0,0.0,0.0,0.0,0.0,-4.4387,0.0,0.0,0.0,0.0,0.0,0.0,0.0,0.0,0.0,-4.3979,-4.3672,-4.3563,-4.3563,-4.3156,-4.2736,-4.2553,0.0,0.0,0.0,0.0,0.0,0.0,0.0,-4.1603,-4.2271,-4.1914,-4.1748,-4.2271,-4.1912,-4.1513,-4.1548,0.0,0.0,-4.0343,-3.9996,-3.9756,-3.9313,-3.8611,-3.806,-3.7909,-3.7453,-3.7013,0.0,0.0,0.0,0.0,0.0,0.0,0.0,0.0,-3.5078,-3.5418,0.0,-3.5559,0.0,0.0,0.0,0.0,0.0,-3.5828,0.0,0.0,-3.5925,-3.5783,-3.5737,-3.6374,-3.6578,-3.6495,-3.7277,-3.7685,-3.7685,-3.6432,0.0,0.0,0.0,0.0,0.0,0.0,-3.8328,-3.9502,-3.9959,-4.0735,-4.1841,-4.2199,-4.2534,-4.2909,-4.3816,-4.4492,-4.5034,-4.5401,-4.5917,-4.6298,-4.6613,0.0,0.0,0.0,0.0,0.0,0.0,0.0,0.0,0.0,0.0,0.0,0.0,0.0,0.0,0.0,0.0,0.0,0.0,0.0,0.0,-4.4459,0.0,0.0,0.0,0.0,0.0,0.0,0.0,0.0,0.0,0.0,-4.4851,-4.4353,-4.4034,-4.4112,0.0,0.0,0.0,0.0,-4.1817,-4.162,-4.1488,-4.1408,-4.1572,-4.1752,-4.1882,-4.2004,0.0,0.0,-4.256,-4.2264,-4.2238,-4.2862,-4.2659,-4.2106,-4.1117,-4.091,-4.0944,-4.0717,-3.9913,-3.9264,-3.8908,-3.8315,-3.7821,-3.1841,0.0,0.0,0.0,0.0,-3.4872,-3.5078,-3.5078,-3.5411,-3.553,-3.5641,-3.5719,0.0,0.0,0.0,0.0,0.0,0.0,-3.6983,-3.6906,-3.7422,-3.7648,-3.7625,-3.7818,-3.7858,-3.7858,-3.8222,-3.8634,-3.9088,-3.8836,-3.8605,-3.8324,0.0,0.0,0.0,0.0,-4.0163,-4.0819,-4.13,-4.1836,-4.2532,-4.2826,-4.3388,-4.4227,-4.4791,-4.5319,-4.5847,-4.6197,-4.6557,-4.6853,-4.7197,0.0,0.0,0.0,0.0,0.0,0.0,0.0,0.0,0.0,0.0,0.0,0.0,0.0,0.0,0.0,0.0,0.0,0.0,0.0,-4.5217,-4.5706,-4.5954,0.0,0.0,0.0,0.0,0.0,0.0,0.0,0.0,0.0,-4.5148,-4.4814,-4.4393,0.0,0.0,-4.2766,-4.2302,-4.1916,-4.1778,-4.2082,0.0,0.0,0.0,-4.1965,-4.2685,-4.3328,-4.3351,-4.324,-4.3109,-4.2872,-4.2773,-4.2951,-4.2769,-4.2467,-4.2239,-4.1807,-4.1423,-4.1029,-4.0602,-4.0083,-3.953,-3.8997,-3.8549,-3.3602,-3.4001,-3.4358,-3.4678,-3.494,-3.5565,-3.5862,-3.5918,-3.626,-3.6476,-3.6628,-3.6781,-3.6915,-3.7025,-3.7243,0.0,0.0,0.0,-3.81,-3.8112,-3.8864,-3.9224,-3.9224,-3.9519,-3.9649,-3.9617,-3.9808,-4.015,-4.0611,-4.0823,-4.0901,-4.0771,0.0,0.0,-4.0743,-4.1066,-4.1564,-4.2277,-4.2692,-4.3287,-4.406,-4.462,-4.524,-4.5977,-4.6421,-4.6838,-4.7333,-4.7723,-4.8013,-4.8249,-4.86,-4.8805,0.0,0.0,0.0,0.0,0.0,0.0,0.0,0.0,0.0,0.0,0.0,-4.7167,0.0,0.0,0.0,0.0,-4.6219,-4.5988,-4.6031,-4.6206,0.0,0.0,0.0,0.0,0.0,0.0,0.0,-4.5857,-4.5738,-4.5506,-4.5249,-4.4852,-4.435,-4.3772,-4.3164,-4.271,-4.2558,0.0,-4.2149,-4.2705,-4.266,-4.2412,-4.1965,-4.2571,-4.3322,-4.3884,-4.3758,-4.3518,-4.3329,-4.317,-4.317,-4.309,-4.293,-4.285,-4.285,-4.2444,-4.1951,-4.1506,-4.1198,-4.0773,-4.0315,-3.9706,-3.9292,-3.5623,-3.6166,-3.5365,-3.5074,-3.5185,-3.6101,-3.6558,-3.6731,-3.7456,-3.7892,-3.8212,-3.8408,-3.8576,-3.8766,-3.9084,0.0,-3.9408,-3.9495,-3.9441,-3.9441,-4.0226,-4.0558,-4.0591,-4.1222,-4.1554,-4.1521,-4.1854,-4.1997,-4.2118,-4.246,-4.3011,-4.3727,-4.2289,-4.1621,-4.1799,-4.2021,-4.2686,-4.3761,-4.4112,-4.487,-4.607,-4.6926,-4.7506,-4.7922,-4.8347,-4.8707,-4.915,-4.955,-4.9884,-5.0159,-5.0385,-5.0587,-5.0819,0.0,0.0,0.0,0.0,0.0,0.0,0.0,0.0,0.0,0.0,0.0,0.0,0.0,0.0,0.0,-4.7326,0.0,-4.6578,-4.6316,0.0,0.0,0.0,-4.6416,-4.629,-4.6677,-4.6824,-4.6447,0.0,0.0,-4.5299,0.0,-4.4255,-4.382,-4.315,-4.2847,-4.3197,-4.2857,-4.2667,-4.3396,-4.3105,-4.3004,-4.3156,-4.3464,-4.3714,-4.3913,-4.3596,-4.3329,-4.3329,-4.3329,-4.3329,-4.325,-4.317,-4.2981,-4.301,-4.285,-4.2666,-4.2204,-4.176,-4.1396,-4.1199,-4.0714,-4.0221,-3.6039,-3.6507,-3.7717,-3.762,-3.6707,-3.7191,-3.7404,-3.7462,-3.8026,-3.8294,-3.8351,-3.8711,-3.9358,-4.0267,-4.0921,-4.1318,-4.1553,-4.1553,-4.1553,-4.1553,-4.1755,-4.1856,-4.1856,-4.2025,-4.2092,-4.2146,-4.2445,-4.2909,-4.3613,-4.3854,-4.4475,-4.5251,-4.4974,-4.4561,-4.4075,-4.438,-4.4749,-4.5165,-4.549,-4.6139,-4.6972,-4.7464,-4.7999,-4.8495,-4.8915,-4.9302,-4.9683,-5.0062,-5.0342,-5.0568,-5.0731,-5.0859,-5.1024,-5.1076,0.0,0.0,0.0,0.0,0.0,0.0,0.0,0.0,0.0,-4.8448,-4.8284,0.0,-4.7854,0.0,-4.7454,-4.733,-4.7091,-4.7239,0.0,0.0,-4.7132,-4.698,-4.6811,-4.6774,-4.6649,-4.6301,-4.588,-4.5701,-4.602,-4.5592,-4.5278,-4.5213,-4.4199,-4.3589,-4.3901,-4.351,-4.3301,-4.3769,-4.3749,-4.3747,-4.4079,-4.4067,-4.3852,-4.3801,-4.3518,-4.3329,-4.3329,-4.3329,-4.3329,-4.3329,-4.325,-4.325,-4.328,-4.3159,-4.3294,-4.3419,-4.2796,-4.2208,-4.2251,-4.1996,-4.1851,-3.6445,-3.6877,-3.7933,-3.8023,-3.7512,-3.8293,-3.8699,-3.8878,-3.9289,-3.9577,-3.9658,-4.0106,-4.0796,-4.1677,-4.2117,-4.2445,-4.2706,-4.2706,-4.2706,-4.2706,-4.3048,-4.3184,-4.3184,-4.3526,-4.3663,-4.3697,-4.3958,-4.4371,-4.4939,-4.5246,-4.5705,-4.6315,-4.6401,-4.6129,-4.5509,-4.576,-4.5985,-4.6217,-4.666,-4.7204,-4.7756,-4.8155,-4.8568,-4.9052,-4.9394,-4.9738,-5.0073,-5.0406,-5.0624,-5.0813,-5.0928,-5.1063,-5.1169,-5.1248,-5.1252,0.0,0.0,0.0,0.0,0.0,0.0,0.0,0.0,0.0,0.0,0.0,-4.8615,-4.8135,-4.7955,-4.7795,-4.7494,-4.7538,-4.7536,-4.7399,-4.7178,-4.6916,-4.6731,-4.6956,-4.6989,-4.668,-4.6688,-4.6725,-4.6811,-4.6374,-4.6025,-4.6208,-4.531,-4.4653,-4.45,-4.4102,-4.3884,-4.4371,-4.4316,-4.4185,-4.4465,-4.4189,-4.3879,-4.3675,-4.3518,-4.3329,-4.3329,-4.3329,-4.3419,-4.3688,-4.3748,-4.3868,-4.4137,-4.4236,-4.4251,-4.44,-4.4169,-4.372,-4.3624,-4.3427,-4.3257,-3.694,-3.7395,-3.7518,-3.7729,-3.8125,-3.9396,-3.9994,-4.0075,-4.0489,-4.0746,-4.112,-4.1632,-4.2219,-4.2912,-4.2946,-4.3202,-4.3508,-4.3558,-4.3508,-4.3592,-4.4164,-4.4526,-4.4526,-4.5183,-4.5494,-4.5546,-4.5803,-4.5935,-4.5979,-4.6365,-4.6621,-4.6695,-4.688,-4.6722,-4.6344,-4.6534,-4.6686,-4.6784,-4.7373,-4.7931,-4.8347,-4.8781,-4.9155,-4.9521,-4.9857,-5.0135,-5.0427,-5.0622,-5.0828,-5.1037,-5.1088,-5.1131,-5.1156,-5.1132,-5.1093,0.0,-5.1079,0.0,0.0,0.0,0.0,0.0,0.0,0.0,0.0,-5.0087,-4.9599,-4.8925,-4.8495,-4.8114,-4.7793,-4.7493,-4.7187,-4.7043,-4.6931,-4.6779,-4.6623,-4.7245,-4.7638,-4.7385,-4.7664,-4.781,-4.758,-4.7005,-4.6675,-4.6744,-4.6223,-4.5617,-4.5126,-4.4557,-4.4444,-4.4887,-4.4723,-4.4434,-4.4266,-4.3974,-4.3741,-4.3675,-4.3438,-4.3359,-4.3479,-4.3509,-4.3688,-4.4287,-4.4436,-4.4616,-4.5214,-4.5304,-4.5394,-4.5424,-4.5484,-4.5376,-4.498,-4.4667,-4.4526,-3.7904,-3.8273,-3.8988,-3.9486,-3.9766,-4.0324,-3.9891,-3.8934,-3.9413,-3.9947,-4.0486,-4.1341,-4.2262,-4.3237,-4.3871,-4.4577,-4.5284,-4.5284,-4.5284,-4.5319,-4.5423,-4.5594,-4.566,-4.58,-4.6005,-4.6168,-4.6398,-4.6283,-4.5918,-4.6162,-4.6091,-4.5707,-4.592,-4.6324,-4.6834,0.0,0.0,0.0,-4.6985,-4.764,-4.8021,-4.8977,-4.9608,-4.9872,-5.0237,0.0,-5.0696,-5.0932,-5.1086,-5.1236,-5.1234,0.0,0.0,0.0,0.0,0.0,0.0,0.0,0.0,0.0,0.0,0.0,-5.0466,-5.0358,-5.0163,-4.9646,-4.9155,-4.8714,-4.8306,-4.7951,-4.7741,-4.732,-4.7043,-4.6998,-4.7287,-4.74,-4.7421,-4.7955,-4.8259,-4.8103,-4.7977,-4.7997,-4.8094,-4.7571,-4.7224,-4.7243,-4.6633,-4.6039,-4.5466,-4.5102,-4.4974,-4.4949,-4.4723,-4.4419,-4.4143,-4.3927,-4.3741,-4.3488,-4.3329,-4.3539,-4.4018,-4.4137,-4.4377,-4.4975,-4.5125,-4.5155,-4.5334,-4.558,-4.5938,-4.6028,-4.6531,-4.6685,-4.5921,-4.5717,-4.5779,-3.7838,0.0,-3.8745,-3.914,0.0,-3.9732,-3.9643,-3.9288,-4.0201,-4.1043,-4.1732,-4.2192,-4.2852,-4.3548,-4.391,-4.4356,-4.4886,-4.4935,-4.4935,-4.4935,-4.5032,-4.5128,-4.5235,-4.5235,-4.5329,-4.5559,-4.6087,-4.6354,-4.6302,-4.6844,-4.7083,-4.7058,-4.7237,-4.7411,-4.759,-4.7504,-4.7535,-4.759,-4.8161,-4.8609,-4.8859,-4.9494,-4.9974,-5.0259,0.0,0.0,0.0,0.0,0.0,0.0,0.0,0.0,0.0,0.0,0.0,-4.9897,-5.0158,-5.0302,-5.0146,-5.0374,-5.0486,-5.0313,-5.01,-4.9895,-4.9731,-4.9257,-4.8785,-4.842,-4.8032,-4.7844,-4.8034,-4.7751,-4.7571,-4.7915,-4.8063,-4.8111,-4.8131,-4.8574,-4.896,-4.8888,-4.8896,-4.8919,-4.8856,-4.8287,-4.7761,-4.7406,-4.6791,-4.6088,-4.5614,-4.5247,-4.4949,-4.4799,-4.4648,-4.4419,-4.4143,-4.3957,-4.3922,-4.3798,-4.3808,-4.4107,-4.4676,-4.4796,-4.5005,-4.5633,-4.5813,-4.5873,-4.6262,-4.6446,-4.6655,-4.68,-4.707,-4.7133,-4.6718,-4.6629,-4.6632,-3.7603,-3.786,-3.8076,-3.8414,-3.8733,-3.904,-3.952,-4.0189,0.0,0.0,0.0,-4.2936,-4.3158,-4.3547,-4.3535,-4.3652,-4.3968,-4.4202,-4.4364,-4.44,-4.4597,-4.4804,-4.4911,-4.4911,-4.5043,-4.5336,-4.6032,-4.6535,-4.6749,-4.7641,-4.8089,-4.8338,-4.8513,-4.8482,-4.8323,-4.8185,-4.8666,-4.973,-4.9599,-4.9549,-4.9708,-5.0174,-5.0517,-5.0778,-5.1138,-5.1386,-5.1552,-5.1686,-5.1765,-5.1752,-5.1757,-5.1659,-5.1497,-5.1405,-5.123,-5.0967,-5.0979,-5.0912,-5.0778,-5.0719,-5.067,-5.0558,-5.0156,-4.9784,-4.9577,-4.9111,-4.8753,-4.859,-4.8182,-4.8127,-4.8605,-4.8354,-4.8351,-4.8806,-4.8882,-4.8835,-4.8714,-4.9275,-4.9711,-4.9672,-4.9756,-4.9732,-4.9436,-4.8827,-4.8194,-4.7471,-4.6759,-4.6088,-4.5541,-4.5098,-4.4799,-4.4648,-4.4572,-4.445,-4.4295,-4.42,-4.4285,-4.4458,-4.4496,-4.4736,-4.5274,-4.5484,-4.5753,-4.6381,-4.6501,-4.6711,-4.716,-4.7249,-4.7309,-4.7309,-4.7309,-4.7309,-4.7309,-4.7309,-4.7193,-3.7982,-3.8319,-3.8492,-3.8799,-3.9202,-3.9625,-4.0138,-4.0762,-4.0968,-4.1216,-4.1475,-4.1592,-4.2125,-4.2928,-4.2984,-4.3427,-4.4096,-4.4869,-4.528,0.0,-4.6092,-4.6595,-4.6873,-4.6873,-4.7132,-4.7543,-4.7656,-4.7563,-4.7353,-4.7531,-4.7475,-4.7168,-4.7304,-4.7937,-4.8834,-5.0274,-5.1132,-5.1346,-4.9839,-4.9137,-4.9307,-5.0894,-5.1812,-5.2003,-5.2813,-5.3338,-5.3423,-5.3461,-5.3515,-5.3544,-5.3474,-5.3081,-5.229,-5.2136,-5.1648,-5.085,-5.1279,-5.1519,-5.14,-5.1992,-5.222,-5.1945,-5.1512,-5.0987,-5.0318,-4.9859,-4.9745,-5.0003,-4.9655,-4.9451,-4.9269,-4.8946,-4.877,-4.8847,-4.9222,-4.9539,-4.938,-4.9955,-5.0265,-5.0077,-4.9988,-4.9708,-4.929,-4.8798,-4.8292,-4.7538,-4.6759,-4.6017,-4.5309,-4.4799,-4.4648,-4.4572,-4.4572,-4.4665,-4.4843,-4.4868,-4.4981,-4.5147,-4.5155,-4.5364,-4.6052,-4.6172,-4.6381,-4.701,-4.707,-4.716,-4.7309,-4.7309,-4.7309,-4.7309,-4.7309,-4.7309,-4.7309,-4.7339,-4.7339,-3.8577,-3.9233,-3.9577,-4.0167,-4.0849,-4.1426,-4.1931,-4.2319,-4.2497,-4.23,-4.2056,-4.2601,-4.3125,-4.3511,-4.3623,-4.389,-4.4369,-4.4778,-4.5134,-4.5308,-4.5753,-4.6104,-4.6323,-4.64,-4.6603,-4.7058,-4.7463,-4.7684,-4.7772,-4.8273,-4.8565,-4.8523,-4.9264,-5.0159,-5.1178,-5.2082,-5.255,-5.2588,-5.1761,-5.1395,-5.1472,-5.2398,-5.2908,-5.3081,-5.3572,-5.3855,-5.3893,-5.3905,-5.3912,-5.3837,-5.3749,-5.3502,-5.3092,-5.2911,-5.2545,-5.203,-5.2149,-5.2217,-5.2056,-5.2303,-5.2361,-5.2114,-5.1761,-5.1487,-5.1417,-5.0671,-5.024,-5.0228,-4.9911,-4.9769,-4.9888,-4.9664,-4.9588,-4.9995,-5.0242,-5.0258,-5.0185,-5.032,-5.0397,-5.0171,-4.9942,-4.9615,-4.9229,-4.8861,-4.8322,-4.7605,-4.6759,-4.6072,-4.579,-4.5508,-4.5279,-4.5126,-4.5049,-4.5122,-4.5464,-4.5425,-4.5484,-4.5837,-4.5843,-4.6112,-4.6711,-4.686,-4.698,-4.7219,-4.7309,-4.7309,-4.7309,-4.7309,-4.7309,-4.7309,-4.7309,-4.7309,-4.7339,-4.7578,-4.7698,-3.9495,-4.0325,-4.0754,-4.1466,-4.2392,-4.3047,-4.3409,-4.365,-4.4062,-4.3898,-4.3419,-4.3966,-4.4152,-4.4223,-4.4334,-4.4476,-4.4642,-4.4907,-4.5228,-4.54,-4.5703,-4.5976,-4.6248,-4.6248,-4.647,-4.6935,-4.7527,-4.8103,-4.869,-4.9408,-5.0052,-5.0646,-5.1584,-5.2431,-5.3146,-5.3474,-5.3674,-5.3716,-5.3901,-5.3823,-5.3491,-5.3779,-5.3985,-5.41,-5.4384,-5.4484,-5.4528,-5.4502,-5.4437,-5.438,-5.4232,-5.4167,-5.4103,-5.3896,-5.3703,-5.3491,-5.3364,-5.3225,-5.3034,-5.284,-5.2617,-5.2489,-5.2151,-5.2047,-5.2213,-5.1522,-5.0939,-5.0588,-5.034,-5.0222,-5.0574,-5.0378,-5.0418,-5.0999,-5.0927,-5.0694,-5.053,-5.0453,-5.032,-5.0114,-4.9884,-4.9649,-4.929,-4.8984,-4.855,-4.7868,-4.6948,-4.6453,-4.6717,-4.6421,-4.6145,-4.6066,-4.583,-4.5776,-4.6164,-4.61,-4.6207,-4.6441,-4.6531,-4.6741,-4.716,-4.7279,-4.7309,-4.7309,-4.7309,-4.7309,-4.7309,-4.7309,-4.7309,-4.7309,-4.7309,-4.7369,-4.7578,-4.8087,-4.8267,-4.113,-4.1533,-4.1829,-4.243,-4.3166,-4.3541,-4.378,-4.4027,-4.4951,-4.5417,-4.523,-4.4707,-4.4503,-4.4467,-4.4721,-4.4928,-4.509,-4.5786,-4.6318,-4.6673,-4.7405,-4.7934,-4.82,-4.8274,-4.8526,-4.887,-4.8978,-4.9583,-5.053,-5.0856,-5.1547,-5.2602,-5.3012,-5.3242,-5.3507,-5.4281,-5.4774,-5.4764,-5.559,-5.5264,-5.3841,-5.4525,-5.4995,-5.5075,-5.5853,-5.6248,-5.6142,-5.6205,-5.6125,-5.608,-5.5902,-5.5769,-5.5557,-5.5374,-5.5207,-5.4969,-5.4846,-5.4743,-5.4564,-5.4377,-5.4105,-5.3938,-5.3422,-5.3101,-5.2747,-5.2445,-5.2263,-5.1968,-5.1669,-5.1322,-5.1209,-5.1052,-5.0893,-5.0892,-5.0729,-5.0564,-5.0453,-5.032,-5.0149,-5.0068,-5.0011,-4.9801,-4.9505,-4.9175,-4.8785,-4.839,-4.7761,-4.7476,-4.7668,-4.7293,-4.7122,-4.7477,-4.7176,-4.6742,-4.6893,-4.7031,-4.7021,-4.7156,-4.7189,-4.7219,-4.7279,-4.7309,-4.7309,-4.7309,-4.7309,-4.7309,-4.7309,-4.7309,-4.7309,-4.7459,-4.7489,-4.7549,-4.8087,-4.8716,-4.8865,-4.2111,-4.2909,-4.3144,-4.3941,-4.4928,-4.5207,-4.5446,-4.5669,-4.6138,-4.6498,-4.6561,-4.6457,-4.6349,-4.6211,-4.6392,-4.6638,-4.6803,-4.7134,-4.7521,-4.7867,-4.8235,-4.8532,-4.8925,-4.8959,-4.9384,-5.0159,-5.0228,-5.0757,-5.1792,-5.2171,-5.2855,-5.3859,-5.4108,-5.4442,-5.5025,-5.5527,-5.5746,-5.583,-5.6184,-5.6043,-5.5503,-5.5737,-5.5923,-5.6009,-5.6327,-5.6497,-5.6464,-5.6368,-5.6297,-5.6174,-5.604,-5.5845,-5.5748,-5.5508,-5.5314,-5.5183,-5.5,-5.4829,-5.4635,-5.4439,-5.4233,-5.3944,-5.3524,-5.3115,-5.268,-5.2351,-5.2066,-5.192,-5.1758,-5.1454,-5.1193,-5.1034,-5.0927,-5.0729,-5.064,-5.0509,-5.0285,-5.0228,-5.0149,-5.0011,-4.986,-4.9742,-4.9539,-4.9452,-4.9356,-4.922,-4.886,-4.8651,-4.8893,-4.8446,-4.8294,-4.8587,-4.8132,-4.769,-4.7623,-4.7407,-4.7302,-4.7336,-4.7309,-4.7309,-4.7309,-4.7309,-4.7309,-4.7309,-4.7309,-4.7309,-4.7309,-4.7339,-4.7369,-4.7698,-4.8297,-4.8566,-4.8805,-4.9374,-4.9613,-4.3314,-4.4141,-4.4509,-4.5297,-4.6315,-4.6495,-4.6731,-4.6962,-4.7098,-4.7276,-4.7536,-4.7834,-4.7875,-4.771,-4.7788,-4.7951,-4.8151,-4.819,-4.8345,-4.8787,-4.897,-4.9328,-4.9664,-4.9958,-5.0485,-5.1215,-5.1386,-5.1972,-5.3022,-5.3673,-5.4246,-5.4937,-5.5149,-5.555,-5.6188,-5.6286,-5.6349,-5.6402,-5.6471,-5.6484,-5.6478,-5.6479,-5.6483,-5.6481,-5.6493,-5.6425,-5.6368,-5.6286,-5.6201,-5.6056,-5.5864,-5.5748,-5.5599,-5.5364,-5.5183,-5.5085,-5.4852,-5.4635,-5.443,-5.4231,-5.3981,-5.3639,-5.3198,-5.2813,-5.2526,-5.2066,-5.1772,-5.1556,-5.1454,-5.1298,-5.1088,-5.0927,-5.0729,-5.0585,-5.053,-5.0397,-5.0228,-5.0206,-5.0195,-5.0252,-5.0238,-5.0001,-4.9998,-5.0038,-5.0125,-5.0286,-5.0035,-4.9838,-5.0015,-4.9636,-4.9284,-4.9358,-4.8769,-4.824,-4.8049,-4.7593,-4.7396,-4.7309,-4.7309,-4.7309,-4.7309,-4.7309,-4.7309,-4.7309,-4.7309,-4.7459,-4.7668,-4.7698,-4.7818,-4.8446,-4.9045,-4.9464,-4.9523,-5.0062,-5.0421,-4.4981,-4.5214,-4.5835,-4.628,-4.659,-4.686,-4.7098,-4.732,-4.7572,-4.7783,-4.7992,-4.8304,-4.8494,-4.8569,-4.8456,-4.8382,-4.8569,-4.8642,-4.8859,-4.9314,-4.9982,-5.0515,-5.087,-5.1654,-5.221,-5.2498,-5.2525,-5.3124,-5.4309,-5.5249,-5.5861,-5.6001,-5.6068,-5.6251,-5.6368,-5.6388,-5.6449,-5.6493,-5.6478,-5.6484,-5.6473,-5.6493,-5.6484,-5.648,-5.6425,-5.6375,-5.6302,-5.6174,-5.6056,-5.5921,-5.5808,-5.5682,-5.5413,-5.5248,-5.5,-5.4767,-5.4603,-5.443,-5.4213,-5.3979,-5.3602,-5.3162,-5.2857,-5.2526,-5.2246,-5.1893,-5.1556,-5.1176,-5.1141,-5.1088,-5.1034,-5.0784,-5.0585,-5.0564,-5.0397,-5.0228,-5.0241,-5.023,-5.0355,-5.0814,-5.0832,-5.0803,-5.1011,-5.102,-5.0995,-5.1087,-5.097,-5.0844,-5.0885,-5.0506,-4.9994,-4.9439,-4.8852,-4.8218,-4.7964,-4.7654,-4.7309,-4.7309,-4.7309,-4.7309,-4.7309,-4.7309,-4.7309,-4.7369,-4.7429,-4.7668,-4.8057,-4.8386,-4.8656,-4.9134,-4.9763,-5.0122,-5.0182,-5.072,-5.099,-4.5715,-4.602,-4.6495,-4.6778,-4.687,-4.7187,-4.745,-4.7627,-4.7829,-4.8072,-4.8382,-4.8606,-4.9082,-4.9775,-4.9775,-4.948,-4.9105,-4.9514,-4.994,-5.0378,-5.1162,-5.1722,-5.202,-5.2351,-5.2905,-5.3593,-5.368,-5.4265,-5.5287,-5.584,-5.6087,-5.6226,-5.6304,-5.6414,-5.6455,-5.6446,-5.6493,-5.6481,-5.6481,-5.6493,-5.6485,-5.6416,-5.6339,-5.63,-5.6336,-5.6278,-5.616,-5.604,-5.5902,-5.5807,-5.566,-5.5437,-5.521,-5.5028,-5.4791,-5.4603,-5.4472,-5.43,-5.405,-5.3795,-5.34,-5.298,-5.2536,-5.2234,-5.2036,-5.1612,-5.1246,-5.1123,-5.0981,-5.0927,-5.0784,-5.064,-5.053,-5.0341,-5.0263,-5.0391,-5.0679,-5.07,-5.0952,-5.1451,-5.1439,-5.1371,-5.1659,-5.1698,-5.1799,-5.2058,-5.191,-5.1684,-5.1369,-5.094,-5.0402,-4.9693,-4.9015,-4.8355,-4.8049,-4.7654,-4.7309,-4.7309,-4.7309,-4.7309,-4.7309,-4.7369,-4.7399,-4.7818,-4.7848,-4.8177,-4.8716,-4.9314,-4.9553,-4.9793,-5.0421,-5.0661,-5.087,-5.1079,-5.1169,-4.6257,-4.6637,-4.6906,-4.7088,-4.7267,-4.7493,-4.7788,-4.8032,-4.8407,-4.8826,-4.9193,-4.9559,-5.0213,-5.0928,-5.1099,-5.0898,-5.0372,-5.0804,-5.1155,-5.1499,-5.2361,-5.291,-5.3162,-5.3442,-5.3948,-5.4677,-5.4839,-5.5287,-5.5913,-5.6117,-5.6214,-5.6325,-5.6407,-5.6472,-5.6503,-5.6504,-5.6483,-5.6478,-5.6484,-5.6464,-5.6427,-5.6341,-5.6265,-5.6146,-5.6146,-5.6117,-5.6024,-5.5884,-5.5728,-5.5554,-5.5427,-5.5183,-5.4962,-5.4791,-5.4603,-5.4476,-5.4303,-5.4089,-5.3795,-5.3444,-5.306,-5.2608,-5.2234,-5.1929,-5.1734,-5.1317,-5.1088,-5.0927,-5.1154,-5.1094,-5.0928,-5.1046,-5.1024,-5.0714,-5.0703,-5.099,-5.139,-5.1399,-5.1657,-5.209,-5.2311,-5.2329,-5.2471,-5.2572,-5.2606,-5.28,-5.2624,-5.2269,-5.1762,-5.1242,-5.0634,-4.9821,-4.9015,-4.8552,-4.8079,-4.7654,-4.7339,-4.7339,-4.7399,-4.7369,-4.7459,-4.7519,-4.7758,-4.8177,-4.8596,-4.8955,-4.9464,-5.0122,-5.0391,-5.0541,-5.075,-5.102,-5.1109,-5.1169,-5.1229,-4.6637,-4.6998,-4.6998,-4.7348,-4.7766,-4.7897,-4.8108,-4.8751,-4.9455,-5.0043,-5.0467,-5.1278,-5.1775,-5.2183,-5.2273,-5.2381,-5.252,-5.2466,-5.2456,-5.2677,-5.3503,-5.4053,-5.4296,-5.4933,-5.5374,-5.5692,-5.5946,-5.6078,-5.6199,-5.6263,-5.6329,-5.6398,-5.6478,-5.6497,-5.6484,-5.6484,-5.6476,-5.6475,-5.6433,-5.6358,-5.6302,-5.6265,-5.6132,-5.5952,-5.5825,-5.5769,-5.5712,-5.5626,-5.5485,-5.5314,-5.5195,-5.4933,-5.4661,-5.4533,-5.4476,-5.4306,-5.4055,-5.3795,-5.3526,-5.3115,-5.2654,-5.2233,-5.1865,-5.1592,-5.1352,-5.1229,-5.1032,-5.085,-5.1319,-5.1695,-5.1535,-5.1997,-5.2136,-5.1523,-5.1682,-5.1977,-5.2123,-5.2069,-5.2158,-5.2592,-5.3105,-5.3549,-5.3517,-5.3315,-5.3281,-5.3076,-5.2972,-5.2624,-5.2053,-5.1508,-5.0832,-5.0058,-4.9259,-4.8718,-4.8164,-4.777,-4.7512,-4.7369,-4.7459,-4.7519,-4.7728,-4.7878,-4.8356,-4.8805,-4.9374,-4.9763,-5.0062,-5.0661,-5.087,-5.102,-5.1199,-5.1229,-5.1229,-5.1229,-5.1229,-4.7043,-4.732,-4.7443,-4.7983,-4.8717,-4.8995,-4.9599,-5.0343,-5.0858,-5.1249,-5.1518,-5.1908,-5.2545,-5.3205,-5.3424,-5.3829,-5.4536,-5.4473,-5.423,-5.3986,-5.4599,-5.5086,-5.536,-5.5653,-5.5864,-5.6063,-5.6175,-5.629,-5.6353,-5.6377,-5.6439,-5.6464,-5.6465,-5.6484,-5.6476,-5.6484,-5.6471,-5.6425,-5.6368,-5.6314,-5.6304,-5.6156,-5.5775,-5.515,-5.5422,-5.534,-5.4571,-5.5033,-5.5236,-5.5113,-5.4971,-5.4761,-5.4571,-5.4405,-5.4378,-5.4273,-5.4019,-5.3756,-5.3521,-5.3066,-5.2572,-5.2174,-5.1794,-5.1489,-5.1282,-5.1435,-5.157,-5.1563,-5.2079,-5.2288,-5.231,-5.2805,-5.2814,-5.2002,-5.208,-5.2467,-5.2791,-5.2985,-5.3202,-5.3309,-5.3448,-5.3551,-5.3518,-5.3518,-5.3416,-5.3247,-5.311,-5.2903,-5.2307,-5.1802,-5.1177,-5.0416,-4.9661,-4.8914,-4.8393,-4.8122,-4.7929,-4.7845,-4.7848,-4.7908,-4.8117,-4.8506,-4.8985,-4.9494,-5.0092,-5.0451,-5.078,-5.099,-5.1169,-5.1229,-5.1229,-5.1229,-5.1229,-5.1229,-5.1229,-4.8019,-4.8575,-4.8654,-4.9159,-4.9881,-5.0191,-5.0713,-5.145,-5.2027,-5.2403,-5.2666,-5.3127,-5.3708,-5.4329,-5.4493,-5.4906,-5.5561,-5.5626,-5.5399,-5.5073,-5.5357,-5.573,-5.59,-5.6001,-5.6117,-5.6265,-5.6347,-5.6398,-5.6425,-5.647,-5.651,-5.6481,-5.6484,-5.6468,-5.647,-5.6457,-5.6427,-5.6336,-5.5967,-5.5916,-5.6039,-5.5736,-5.5325,-5.5055,-5.5318,-5.5078,-5.4406,-5.4818,-5.5,-5.4882,-5.4698,-5.4576,-5.4443,-5.434,-5.4273,-5.4092,-5.3832,-5.3561,-5.3235,-5.285,-5.2542,-5.2279,-5.1983,-5.1688,-5.163,-5.1913,-5.2183,-5.2462,-5.2799,-5.2969,-5.2952,-5.3479,-5.3618,-5.3149,-5.3053,-5.3101,-5.3391,-5.3543,-5.3649,-5.355,-5.3551,-5.3518,-5.3518,-5.3518,-5.3416,-5.3348,-5.3247,-5.3041,-5.252,-5.2092,-5.1401,-5.0723,-5.0026,-4.9322,-4.8706,-4.8529,-4.8404,-4.844,-4.8445,-4.8446,-4.8596,-4.9194,-4.9733,-5.0242,-5.078,-5.081,-5.1079,-5.1109,-5.1229,-5.1229,-5.1229,-5.1229,-5.1229,-5.1229,-5.1229,-4.9501,-5.0331,-5.0331,-5.0472,-5.0934,-5.1046,-5.1335,-5.1907,-5.2799,-5.3324,-5.3736,-5.4324,-5.5007,-5.5326,-5.5364,-5.5554,-5.5808,-5.5825,-5.5896,-5.5924,-5.5968,-5.6024,-5.6117,-5.6239,-5.6336,-5.6407,-5.6464,-5.6485,-5.6493,-5.6481,-5.6481,-5.6507,-5.6493,-5.6452,-5.6377,-5.6349,-5.6269,-5.6188,-5.5409,-5.5335,-5.5896,-5.5209,-5.4901,-5.5385,-5.5361,-5.516,-5.4724,-5.4708,-5.4698,-5.4603,-5.4472,-5.4375,-5.4308,-5.4273,-5.4092,-5.3831,-5.3598,-5.3345,-5.2959,-5.2852,-5.2592,-5.2659,-5.2448,-5.2172,-5.2171,-5.2509,-5.281,-5.2959,-5.342,-5.361,-5.3625,-5.4011,-5.4322,-5.4397,-5.4029,-5.3905,-5.3715,-5.3683,-5.3584,-5.3551,-5.3518,-5.3518,-5.3518,-5.3518,-5.3518,-5.3416,-5.3315,-5.3041,-5.2731,-5.2307,-5.1729,-5.1124,-5.0671,-4.9896,-4.9294,-4.9335,-4.9326,-4.9432,-4.9344,-4.9224,-4.9284,-4.9853,-5.0331,-5.084,-5.1139,-5.1199,-5.1229,-5.1229,-5.1229,-5.1229,-5.1229,-5.1229,-5.1229,-5.1229,-5.1379,-5.0068,-4.9967,-4.9967,-5.0195,-5.0592,-5.0658,-5.1232,-5.2015,-5.2521,-5.3196,-5.3802,-5.4231,-5.4871,-5.5626,-5.5689,-5.5827,-5.5869,-5.5947,-5.611,-5.6251,-5.6263,-5.6278,-5.6329,-5.6407,-5.6457,-5.647,-5.6493,-5.6476,-5.6484,-5.6478,-5.6493,-5.6471,-5.6386,-5.6402,-5.6349,-5.5742,-5.5734,-5.6019,-5.5258,-5.5105,-5.5672,-5.5497,-5.5039,-5.4594,-5.4931,-5.4676,-5.4065,-5.4237,-5.4409,-5.4375,-5.434,-5.4235,-5.4055,-5.3982,-5.3905,-5.3709,-5.3829,-5.3778,-5.3479,-5.3531,-5.3473,-5.312,-5.2951,-5.2761,-5.2614,-5.3063,-5.335,-5.3532,-5.3956,-5.4247,-5.4218,-5.4391,-5.4367,-5.4175,-5.411,-5.398,-5.3717,-5.3618,-5.3551,-5.3484,-5.3518,-5.3518,-5.3518,-5.3518,-5.3518,-5.3484,-5.3416,-5.3382,-5.3073,-5.2827,-5.2362,-5.2235,-5.1669,-5.0721,-5.0092,-5.0167,-5.0289,-5.0577,-5.0427,-5.0095,-5.0184,-5.0481,-5.084,-5.1199,-5.1169,-5.1229,-5.1229,-5.1229,-5.1229,-5.1229,-5.1229,-5.1229,-5.1229,-5.1229,-5.1558,-5.0454,-5.0563,-5.0563,-5.0775,-5.1115,-5.1237,-5.1654,-5.2276,-5.2574,-5.3022,-5.3493,-5.3721,-5.4167,-5.4766,-5.4817,-5.4986,-5.5139,-5.5135,-5.5141,-5.5337,-5.5708,-5.6074,-5.634,-5.6491,-5.6493,-5.6481,-5.6484,-5.6478,-5.6489,-5.6464,-5.6464,-5.6347,-5.6056,-5.6028,-5.6297,-5.5437,-5.5278,-5.5746,-5.5109,-5.4959,-5.5609,-5.5125,-5.4866,-5.4523,-5.48,-5.4519,-5.4037,-5.4183,-5.4308,-5.4273,-5.42,-5.4055,-5.3944,-5.4051,-5.4041,-5.3792,-5.418,-5.4252,-5.394,-5.3933,-5.3868,-5.3676,-5.3497,-5.3474,-5.3609,-5.3879,-5.3963,-5.4033,-5.435,-5.446,-5.4529,-5.4431,-5.4239,-5.398,-5.3849,-5.3783,-5.3685,-5.3551,-5.3518,-5.3518,-5.3518,-5.3518,-5.3518,-5.3518,-5.3518,-5.3518,-5.3518,-5.3551,-5.3616,-5.3408,-5.329,-5.3272,-5.2997,-5.2172,-5.1505,-5.139,-5.1102,-5.1363,-5.103,-5.0725,-5.0753,-5.093,-5.105,-5.1229,-5.1229,-5.1229,-5.1229,-5.1229,-5.1229,-5.1229,-5.1229,-5.1259,-5.1259,-5.1468,-5.1768,-5.0775,-5.151,-5.1548,-5.1673,-5.1798,-5.2011,-5.1961,-5.2348,-5.2479,-5.2694,-5.2924,-5.3128,-5.337,-5.3452,-5.3868,-5.3766,-5.3896,-5.409,-5.4009,-5.4326,-5.4806,-5.5414,-5.5924,-5.636,-5.6484,-5.6476,-5.6504,-5.6475,-5.6418,-5.6329,-5.6232,-5.6018,-5.5413,-5.5485,-5.5735,-5.5186,-5.5233,-5.5575,-5.4901,-5.4792,-5.5193,-5.4791,-5.4558,-5.4848,-5.4973,-5.4867,-5.4593,-5.457,-5.4647,-5.4572,-5.4167,-5.413,-5.4127,-5.4596,-5.4564,-5.4363,-5.4578,-5.4747,-5.4327,-5.4046,-5.3943,-5.4221,-5.4067,-5.4105,-5.4433,-5.4419,-5.4391,-5.4356,-5.4494,-5.4494,-5.4431,-5.4303,-5.4045,-5.3783,-5.3717,-5.3584,-5.3551,-5.3518,-5.3518,-5.3518,-5.3518,-5.3518,-5.3518,-5.3585,-5.3653,-5.3957,-5.4025,-5.4328,-5.4462,-5.432,-5.4405,-5.4535,-5.4131,-5.3688,-5.3099,-5.2649,-5.225,-5.188,-5.1361,-5.099,-5.099,-5.1139,-5.1169,-5.1229,-5.1229,-5.1229,-5.1229,-5.1229,-5.1229,-5.1229,-5.1229,-5.1289,-5.1379,-5.1738,-5.2067,-5.1362,-5.1042,-5.1126,-5.096,-5.0556,-5.0596,-5.0794,-5.1009,-5.118,-5.1702,-5.2165,-5.242,-5.29,-5.3517,-5.3514,-5.3818,-5.3719,-5.3705,-5.3897,-5.4008,-5.4099,-5.4335,-5.484,-5.5696,-5.638,-5.638,-5.6432,-5.6402,-5.6242,-5.5716,-5.5346,-5.5279,-5.519,-5.5061,-5.5118,-5.4984,-5.5055,-5.5458,-5.477,-5.4623,-5.5057,-5.4922,-5.4743,-5.4943,-5.5249,-5.531,-5.5285,-5.566,-5.5958,-5.5771,-5.5246,-5.4979,-5.5262,-5.5343,-5.5184,-5.4963,-5.5121,-5.5271,-5.4955,-5.4903,-5.4957,-5.479,-5.4583,-5.4606,-5.4488,-5.4529,-5.4494,-5.4494,-5.4494,-5.4465,-5.4303,-5.411,-5.3983,-5.3785,-5.3686,-5.3653,-5.3518,-5.3518,-5.3518,-5.3551,-5.3585,-5.3518,-5.3585,-5.416,-5.4296,-5.4431,-5.4769,-5.5209,-5.5308,-5.5235,-5.5386,-5.5555,-5.516,-5.4718,-5.4227,-5.3418,-5.244,-5.2032,-5.1512,-5.1229,-5.1229,-5.1229,-5.1229,-5.1229,-5.1229,-5.1229,-5.1229,-5.1229,-5.1229,-5.1229,-5.1319,-5.1588,-5.1858,-5.2127,-5.2546,-5.0894,-5.0534,-5.0658,-5.052,-5.0321,-5.038,-5.0507,-5.0645,-5.0791,-5.1095,-5.1498,-5.1735,-5.2085,-5.2528,-5.2581,-5.2645,-5.2707,-5.2737,-5.2722,-5.2851,-5.3107,-5.3313,-5.3571,-5.4507,-5.5223,-5.5295,-5.5208,-5.5181,-5.5063,-5.5119,-5.5034,-5.4904,-5.489,-5.5103,-5.5105,-5.4843,-5.4937,-5.5339,-5.4968,-5.4764,-5.4952,-5.4844,-5.4994,-5.5216,-5.5688,-5.5958,-5.5883,-5.6144,-5.655,-5.6657,-5.6314,-5.5854,-5.5828,-5.5852,-5.5665,-5.5424,-5.563,-5.5686,-5.5476,-5.5285,-5.5139,-5.4992,-5.4842,-5.4655,-5.4529,-5.4494,-5.4494,-5.4494,-5.4494,-5.4367,-5.411,-5.398,-5.3885,-5.4126,-5.4059,-5.416,-5.4329,-5.3957,-5.3687,-5.389,-5.4126,-5.4363,-5.46,-5.4871,-5.504,-5.5175,-5.5243,-5.5683,-5.6156,-5.6115,-5.627,-5.6378,-5.6017,-5.5627,-5.5213,-5.4157,-5.2479,-5.2002,-5.1542,-5.1323,-5.1229,-5.1229,-5.1229,-5.1229,-5.1229,-5.1229,-5.1229,-5.1229,-5.1409,-5.1648,-5.1887,-5.2097,-5.2456,-5.2965,-5.3354,-5.0089,-5.0163,-5.0268,-5.038,-5.0584,-5.0682,-5.0773,-5.0841,-5.0995,-5.1048,-5.1073,-5.1147,-5.1421,-5.1388,-5.1434,-5.1396,-5.1437,-5.1482,-5.1665,-5.173,-5.2188,-5.238,-5.2581,-5.3039,-5.338,-5.3476,-5.3886,-5.3952,-5.4271,-5.4401,-5.4657,-5.4707,-5.4768,-5.4916,-5.5171,-5.5011,-5.4856,-5.5237,-5.5309,-5.5189,-5.5201,-5.5082,-5.5375,-5.5694,-5.637,-5.6667,-5.6664,-5.6848,-5.7106,-5.758,-5.7408,-5.683,-5.6353,-5.6171,-5.621,-5.5805,-5.6009,-5.5872,-5.5565,-5.5259,-5.4992,-5.493,-5.4683,-5.4529,-5.4494,-5.4494,-5.4494,-5.4598,-5.4569,-5.4613,-5.4185,-5.436,-5.4432,-5.4669,-5.4769,-5.5074,-5.531,-5.4566,-5.4397,-5.4634,-5.4837,-5.5006,-5.5344,-5.5649,-5.5784,-5.5919,-5.5987,-5.6156,-5.663,-5.693,-5.7055,-5.6929,-5.6654,-5.5758,-5.5228,-5.4189,-5.2661,-5.2033,-5.1602,-5.1416,-5.1229,-5.1229,-5.1229,-5.1229,-5.1229,-5.1229,-5.1349,-5.1468,-5.1708,-5.2097,-5.2426,-5.2665,-5.3174,-5.3803,-5.4102,-5.0435,-5.0418,-5.0625,-5.072,-5.0756,-5.0906,-5.0942,-5.1009,-5.1125,-5.1186,-5.1163,-5.1269,-5.1308,-5.1352,-5.1396,-5.1405,-5.1398,-5.1362,-5.1323,-5.131,-5.1576,-5.1589,-5.1639,-5.1897,-5.1824,-5.1916,-5.286,-5.3922,-5.4086,-5.4119,-5.4304,-5.4532,-5.4766,-5.4862,-5.4924,-5.4925,-5.5288,-5.5455,-5.5692,-5.5813,-5.5772,-5.6055,-5.6253,-5.6406,-5.7038,-5.7332,-5.7513,-5.7918,-5.8322,-5.8307,-5.8134,-5.7757,-5.7344,-5.717,-5.6848,-5.6472,-5.6095,-5.5822,-5.5472,-5.5148,-5.4904,-5.478,-5.4655,-5.4529,-5.4494,-5.4563,-5.4701,-5.4775,-5.4991,-5.5069,-5.4702,-5.5043,-5.5484,-5.5583,-5.5547,-5.5615,-5.5716,-5.5615,-5.5378,-5.5649,-5.5683,-5.5716,-5.6122,-5.6427,-5.6562,-5.6731,-5.6867,-5.6968,-5.7306,-5.7509,-5.7533,-5.7379,-5.7147,-5.6034,-5.5081,-5.3796,-5.2626,-5.2215,-5.1849,-5.1416,-5.1323,-5.1229,-5.1229,-5.1229,-5.1259,-5.1259,-5.1409,-5.1678,-5.2127,-5.2546,-5.2875,-5.3234,-5.3803,-5.4341,-5.4321,-5.0683,-5.0664,-5.0841,-5.0906,-5.0937,-5.1076,-5.1101,-5.1101,-5.1201,-5.1265,-5.1296,-5.1347,-5.1357,-5.1404,-5.1403,-5.1394,-5.1347,-5.1342,-5.1304,-5.1295,-5.122,-5.118,-5.1264,-5.1476,-5.1629,-5.1958,-5.2887,-5.3452,-5.3464,-5.3978,-5.4167,-5.4531,-5.5198,-5.5562,-5.5517,-5.6137,-5.6264,-5.6247,-5.6323,-5.6417,-5.6359,-5.6929,-5.7078,-5.7262,-5.7702,-5.8107,-5.8215,-5.8317,-5.8535,-5.8449,-5.8231,-5.796,-5.7631,-5.7289,-5.6933,-5.6564,-5.607,-5.5613,-5.5354,-5.5026,-5.4842,-5.478,-5.4655,-5.4529,-5.4632,-5.4839,-5.5154,-5.5438,-5.548,-5.5655,-5.5451,-5.5756,-5.5922,-5.6224,-5.6292,-5.6461,-5.6697,-5.6765,-5.6731,-5.663,-5.6494,-5.6562,-5.6968,-5.7205,-5.734,-5.7509,-5.7712,-5.778,-5.7881,-5.7881,-5.7808,-5.7547,-5.7172,-5.6211,-5.5049,-5.3882,-5.2834,-5.2395,-5.1941,-5.1572,-5.1323,-5.1229,-5.1229,-5.1229,-5.1259,-5.1379,-5.1708,-5.2037,-5.2516,-5.3025,-5.3473,-5.3922,-5.4401,-5.479,-5.4708,-5.0841,-5.0841,-5.1009,-5.1024,-5.1049,-5.118,-5.1211,-5.1249,-5.1289,-5.1352,-5.1385,-5.1403,-5.1403,-5.1375,-5.1362,-5.1347,-5.1312,-5.1287,-5.1259,-5.1211,-5.1136,-5.1127,-5.1477,-5.1833,-5.2266,-5.2818,-5.3494,-5.3359,-5.3533,-5.4187,-5.4726,-5.5408,-5.6486,-5.6813,-5.6654,-5.6869,-5.7245,-5.7159,-5.7143,-5.7075,-5.7304,-5.7601,-5.7816,-5.7854,-5.8405,-5.8661,-5.8582,-5.8535,-5.8449,-5.8275,-5.8051,-5.7774,-5.7486,-5.6984,-5.66,-5.6273,-5.5879,-5.5437,-5.5174,-5.4869,-5.4821,-5.5029,-5.4834,-5.4839,-5.5115,-5.5602,-5.5884,-5.6268,-5.6372,-5.6199,-5.6163,-5.6193,-5.6461,-5.6833,-5.7036,-5.7171,-5.7509,-5.7645,-5.7577,-5.7442,-5.7239,-5.7273,-5.7509,-5.7577,-5.7611,-5.7645,-5.7814,-5.7814,-5.7881,-5.7881,-5.7808,-5.7473,-5.6977,-5.6198,-5.5164,-5.4147,-5.3134,-5.2516,-5.2124,-5.1695,-5.1416,-5.1229,-5.1289,-5.1468,-5.1558,-5.1738,-5.2067,-5.2516,-5.3144,-5.3683,-5.4162,-5.4521,-5.482,-5.4869,-5.4857,-5.0995,-5.097,-5.1136,-5.119,-5.1201,-5.1256,-5.1303,-5.1308,-5.1346,-5.1402,-5.1406,-5.1402,-5.1371,-5.1317,-5.1281,-5.1304,-5.1278,-5.118,-5.1136,-5.1125,-5.123,-5.1586,-5.2005,-5.1962,-5.3205,-5.4007,-5.4841,-5.5163,-5.5125,-5.5352,-5.6007,-5.6861,-5.713,-5.7354,-5.7138,-5.7446,-5.705,-5.707,-5.76,-5.8128,-5.8497,-5.8564,-5.8598,-5.8553,-5.8624,-5.8656,-5.8572,-5.8486,-5.8319,-5.8051,-5.7774,-5.7534,-5.7188,-5.676,-5.6328,-5.5936,-5.5555,-5.5139,-5.4938,-5.4856,-5.5006,-5.5421,-5.5495,-5.5874,-5.6188,-5.6297,-5.6336,-5.603,-5.6573,-5.6877,-5.6836,-5.7205,-5.7577,-5.7611,-5.7611,-5.7645,-5.7881,-5.7881,-5.7881,-5.7848,-5.7543,-5.7611,-5.778,-5.7814,-5.7848,-5.7881,-5.7881,-5.7881,-5.7881,-5.7881,-5.7735,-5.7398,-5.6944,-5.6277,-5.5246,-5.42,-5.3371,-5.2726,-5.2246,-5.1755,-5.1626,-5.1528,-5.1708,-5.1858,-5.2007,-5.2247,-5.2606,-5.3144,-5.3803,-5.4251,-5.461,-5.485,-5.5119,-5.5078,-5.4976,-5.1169,-5.1097,-5.122,-5.1248,-5.1265,-5.133,-5.1336,-5.1359,-5.1367,-5.1396,-5.1371,-5.1352,-5.1317,-5.1265,-5.1211,-5.118,-5.1159,-5.1127,-5.1037,-5.1397,-5.185,-5.2503,-5.3106,-5.4051,-5.5186,-5.5514,-5.632,-5.6976,-5.6976,-5.6889,-5.7073,-5.737,-5.7856,-5.7985,-5.7777,-5.8192,-5.8238,-5.8278,-5.8427,-5.8607,-5.8747,-5.8777,-5.8777,-5.8698,-5.8614,-5.8535,-5.8449,-5.8312,-5.8179,-5.795,-5.7631,-5.7239,-5.6933,-5.6582,-5.6191,-5.6199,-5.5924,-5.5653,-5.5501,-5.5213,-5.5563,-5.6046,-5.6357,-5.6567,-5.7019,-5.7021,-5.7054,-5.7253,-5.7454,-5.7446,-5.7446,-5.7712,-5.7814,-5.7881,-5.7881,-5.7881,-5.7881,-5.7881,-5.7881,-5.7881,-5.7881,-5.7881,-5.7881,-5.7881,-5.7881,-5.7881,-5.7881,-5.7881,-5.7881,-5.7881,-5.7662,-5.7364,-5.6911,-5.6369,-5.5345,-5.4369,-5.3427,-5.2785,-5.2276,-5.1969,-5.1957,-5.1947,-5.2187,-5.2636,-5.3084,-5.3264,-5.3324,-5.3653,-5.4221,-5.461,-5.4999,-5.5119,-5.5209,-5.5006,-5.4671,-5.1289,-5.1242,-5.131,-5.1323,-5.1336,-5.1389,-5.1405,-5.1405,-5.1389,-5.1347,-5.1296,-5.1265,-5.1287,-5.1249,-5.1147,-5.1113,-5.1076,-5.1213,-5.144,-5.1995,-5.2818,-5.3686,-5.4528,-5.5868,-5.6613,-5.7134,-5.7472,-5.8053,-5.8413,-5.8343,-5.7964,-5.78,-5.8455,-5.8538,-5.8577,-5.8765,-5.8952,-5.8835,-5.8791,-5.8743,-5.8698,-5.8698,-5.8656,-5.8614,-5.8529,-5.8406,-5.8356,-5.8133,-5.795,-5.7715,-5.7629,-5.7329,-5.7065,-5.6893,-5.6752,-5.672,-5.6446,-5.6432,-5.6275,-5.6249,-5.6391,-5.684,-5.7256,-5.7567,-5.7707,-5.76,-5.742,-5.7895,-5.7891,-5.7887,-5.7881,-5.7881,-5.7881,-5.7881,-5.7881,-5.7881,-5.7881,-5.7881,-5.7881,-5.7881,-5.7881,-5.7881,-5.7881,-5.7881,-5.7881,-5.7881,-5.7881,-5.7881,-5.7881,-5.7881,-5.7588,-5.7289,-5.6647,-5.61,-5.5263,-5.4285,-5.3459,-5.2908,-5.2398,-5.2181,-5.2227,-5.2426,-5.2755,-5.3324,-5.3922,-5.4132,-5.4132,-5.4341,-5.4581,-5.488,-5.5119,-5.5149,-5.5108,-5.4905,-5.4466,-5.1406,-5.1385,-5.1389,-5.1394,-5.14,-5.1406,-5.14,-5.1385,-5.133,-5.1296,-5.1265,-5.122,-5.1169,-5.1136,-5.1127,-5.1075,-5.1097,-5.1741,-5.2352,-5.3051,-5.3891,-5.5063,-5.5963,-5.6649,-5.7291,-5.8228,-5.8489,-5.8816,-5.9206,-5.9131,-5.9133,-5.9361,-5.9065,-5.9103,-5.9026,-5.8988,-5.8982,-5.8899,-5.8818,-5.8739,-5.8698,-5.8656,-5.8614,-5.8492,-5.8363,-5.8231,-5.8042,-5.793,-5.7813,-5.752,-5.7742,-5.7693,-5.7469,-5.74,-5.7368,-5.7304,-5.7121,-5.7205,-5.7354,-5.7081,-5.715,-5.7704,-5.8187,-5.829,-5.8183,-5.8178,-5.8099,-5.792,-5.7881,-5.7881,-5.7881,-5.7881,-5.7881,-5.7881,-5.7881,-5.7881,-5.7881,-5.7881,-5.7881,-5.7881,-5.7881,-5.7881,-5.7881,-5.7881,-5.7881,-5.7881,-5.7881,-5.7881,-5.7808,-5.7808,-5.7439,-5.7063,-5.6492,-5.5749,-5.4934,-5.4157,-5.3596,-5.316,-5.2702,-5.2571,-5.2492,-5.2815,-5.3354,-5.3832,-5.4401,-5.467,-5.488,-5.488,-5.491,-5.5089,-5.5209,-5.5209,-5.4976,-5.4671,-5.4259,-5.1403,-5.1406,-5.1402,-5.14,-5.1403,-5.1371,-5.1336,-5.1349,-5.132,-5.1287,-5.122,-5.1147,-5.1139,-5.1114,-5.1034,-5.1246,-5.1708,-5.2358,-5.3164,-5.4265,-5.544,-5.6572,-5.7377,-5.7992,-5.8792,-5.9143,-5.916,-5.9168,-5.9399,-5.9365,-5.9328,-5.929,-5.9252,-5.9137,-5.9022,-5.8902,-5.8821,-5.8781,-5.8739,-5.8698,-5.8656,-5.8614,-5.8529,-5.8363,-5.8223,-5.8088,-5.793,-5.8081,-5.7942,-5.7939,-5.8178,-5.8075,-5.7907,-5.7877,-5.7919,-5.795,-5.779,-5.804,-5.8254,-5.7978,-5.7773,-5.8222,-5.853,-5.8561,-5.8348,-5.8133,-5.8027,-5.7881,-5.7881,-5.7881,-5.7881,-5.7881,-5.7881,-5.7881,-5.7881,-5.7881,-5.7881,-5.7881,-5.7881,-5.7881,-5.7881,-5.7881,-5.7881,-5.7881,-5.7881,-5.7881,-5.7881,-5.7881,-5.7808,-5.7662,-5.7364,-5.701,-5.6468,-5.575,-5.4845,-5.4301,-5.3734,-5.3377,-5.3061,-5.3109,-5.3054,-5.3473,-5.3982,-5.4461,-5.476,-5.494,-5.5059,-5.5149,-5.5209,-5.5209,-5.5209,-5.5108,-5.4875,-5.4568,-5.4052,-5.14,-5.1382,-5.1341,-5.138,-5.1362,-5.131,-5.1304,-5.1317,-5.1269,-5.1249,-5.1159,-5.1088,-5.123,-5.1344,-5.1347,-5.1927,-5.2762,-5.3524,-5.4364,-5.5556,-5.692,-5.7916,-5.8477,-5.8949,-5.9348,-5.9578,-5.9474,-5.9365,-5.9365,-5.9215,-5.9139,-5.91,-5.91,-5.902,-5.894,-5.8777,-5.8698,-5.8698,-5.8698,-5.8656,-5.8614,-5.8535,-5.84,-5.8305,-5.83,-5.8249,-5.8227,-5.8362,-5.85,-5.8429,-5.8524,-5.8544,-5.8421,-5.8262,-5.8392,-5.8446,-5.8524,-5.8665,-5.8702,-5.8634,-5.8359,-5.8633,-5.8492,-5.8348,-5.8205,-5.8027,-5.7881,-5.7881,-5.7881,-5.7881,-5.7881,-5.7881,-5.7881,-5.7881,-5.7881,-5.7881,-5.7881,-5.7881,-5.7881,-5.7881,-5.7881,-5.7881,-5.7881,-5.7881,-5.7881,-5.7881,-5.7881,-5.7881,-5.7808,-5.7662,-5.7289,-5.6967,-5.6474,-5.5783,-5.4984,-5.4574,-5.4174,-5.3804,-5.3602,-5.3796,-5.3862,-5.4221,-5.4491,-5.482,-5.5029,-5.5149,-5.5209,-5.5209,-5.5209,-5.5209,-5.5209,-5.5108,-5.4671,-5.4333,-5.3844,-5.1362,-5.1289,-5.1295,-5.1295,-5.1289,-5.132,-5.1304,-5.1269,-5.1229,-5.1186,-5.1101,-5.1153,-5.1547,-5.1973,-5.2043,-5.2936,-5.4057,-5.4953,-5.5962,-5.7215,-5.8053,-5.8911,-5.9228,-5.9505,-5.9474,-5.9438,-5.9328,-5.9215,-5.9215,-5.91,-5.8982,-5.894,-5.894,-5.8899,-5.8896,-5.8777,-5.8698,-5.8698,-5.8698,-5.8614,-5.8572,-5.8603,-5.8541,-5.8419,-5.8699,-5.8786,-5.858,-5.888,-5.8912,-5.8752,-5.9005,-5.9029,-5.885,-5.899,-5.9074,-5.9111,-5.8977,-5.8944,-5.9012,-5.8806,-5.8736,-5.8701,-5.8419,-5.8243,-5.8205,-5.8027,-5.7881,-5.7881,-5.7881,-5.7881,-5.7881,-5.7881,-5.7881,-5.7881,-5.7881,-5.7881,-5.7881,-5.7881,-5.7881,-5.7881,-5.7881,-5.7881,-5.7881,-5.7881,-5.7881,-5.7881,-5.7881,-5.7881,-5.7842,-5.7715,-5.7439,-5.6987,-5.658,-5.6066,-5.5352,-5.4909,-5.4606,-5.4222,-5.4141,-5.4329,-5.4461,-5.467,-5.494,-5.5179,-5.5209,-5.5209,-5.5209,-5.5209,-5.5209,-5.5209,-5.5209,-5.5078,-5.4641,-5.42,-5.371,-5.1342,-5.1295,-5.1269,-5.1201,-5.118,-5.118,-5.1141,-5.1159,-5.1139,-5.1114,-5.1175,-5.1532,-5.1863,-5.228,-5.3184,-5.4057,-5.4981,-5.6376,-5.743,-5.8148,-5.8854,-5.9238,-5.9472,-5.9401,-5.9328,-5.9253,-5.9139,-5.91,-5.9063,-5.8982,-5.894,-5.8899,-5.8818,-5.8739,-5.8739,-5.8698,-5.8698,-5.8698,-5.8698,-5.8693,-5.8603,-5.8924,-5.9034,-5.8699,-5.9237,-5.9284,-5.8898,-5.9342,-5.9394,-5.9147,-5.9354,-5.9453,-5.9229,-5.9284,-5.9217,-5.9149,-5.9012,-5.8978,-5.884,-5.8631,-5.8419,-5.8348,-5.8243,-5.8099,-5.8061,-5.7988,-5.7881,-5.7881,-5.7881,-5.7881,-5.7881,-5.7881,-5.7881,-5.7881,-5.7881,-5.7881,-5.7881,-5.7881,-5.7881,-5.7881,-5.7881,-5.8017,-5.8084,-5.8321,-5.8355,-5.8254,-5.8287,-5.8011,-5.7904,-5.7892,-5.7775,-5.7263,-5.6756,-5.6317,-5.5789,-5.538,-5.503,-5.4673,-5.4677,-5.489,-5.5029,-5.5059,-5.5089,-5.5179,-5.5209,-5.5209,-5.5209,-5.5209,-5.5209,-5.5209,-5.5209,-5.5006,-5.4598,-5.423,-5.3756,-5.123,-5.1211,-5.118,-5.1136,-5.1101,-5.1101,-5.1101,-5.114,-5.1319,-5.144,-5.1531,-5.2194,-5.2666,-5.3135,-5.4066,-5.5287,-5.6071,-5.7241,-5.8229,-5.882,-5.9208,-5.9363,-5.9328,-5.9215,-5.9177,-5.91,-5.9022,-5.8982,-5.8942,-5.8899,-5.8818,-5.8818,-5.8739,-5.8698,-5.8698,-5.8698,-5.8656,-5.873,-5.8837,-5.9011,-5.9058,-5.9329,-5.9612,-5.9492,-5.9626,-5.9853,-5.9593,-5.9679,-5.9856,-5.9628,-5.9593,-5.9718,-5.9386,-5.9251,-5.9149,-5.9012,-5.8944,-5.884,-5.8631,-5.8419,-5.8243,-5.8099,-5.8099,-5.8027,-5.7954,-5.7881,-5.7881,-5.7881,-5.7881,-5.7881,-5.7881,-5.7881,-5.7881,-5.7915,-5.7949,-5.7949,-5.8017,-5.8017,-5.8017,-5.8017,-5.8254,-5.8355,-5.8524,-5.8727,-5.8964,-5.8829,-5.8727,-5.8376,-5.8126,-5.8251,-5.8171,-5.7609,-5.7183,-5.679,-5.6364,-5.5842,-5.5516,-5.5183,-5.5189,-5.5179,-5.5179,-5.5149,-5.5179,-5.5209,-5.5209,-5.5209,-5.5209,-5.5209,-5.5209,-5.5209,-5.5209,-5.5006,-5.4627,-5.4259,-5.386,-5.1159,-5.1074,-5.1088,-5.1102,-5.1101,-5.1166,-5.1139,-5.1106,-5.1834,-5.2078,-5.2085,-5.2859,-5.3503,-5.4282,-5.5084,-5.6175,-5.7317,-5.8218,-5.8778,-5.9208,-5.929,-5.9253,-5.9177,-5.91,-5.9022,-5.8982,-5.8902,-5.8862,-5.8859,-5.8818,-5.8698,-5.8698,-5.8698,-5.8768,-5.8805,-5.8879,-5.8837,-5.898,-5.9153,-5.9309,-5.9412,-6.0015,-6.0053,-6.0025,-6.0142,-6.0208,-6.0094,-6.0104,-6.0051,-5.9873,-5.9617,-5.9453,-5.9251,-5.9081,-5.9012,-5.8944,-5.884,-5.8701,-5.849,-5.8243,-5.8099,-5.7954,-5.7954,-5.7881,-5.7881,-5.7881,-5.7881,-5.7881,-5.7881,-5.7881,-5.7881,-5.7915,-5.7949,-5.7983,-5.8051,-5.8118,-5.822,-5.8254,-5.8254,-5.8423,-5.8829,-5.9099,-5.9505,-5.9708,-5.9607,-5.9573,-5.9464,-5.9338,-5.9151,-5.8975,-5.8819,-5.8213,-5.7775,-5.7344,-5.6901,-5.6207,-5.5847,-5.5417,-5.521,-5.5209,-5.5209,-5.5209,-5.5209,-5.5209,-5.5209,-5.5209,-5.5209,-5.5209,-5.5209,-5.5209,-5.5209,-5.4875,-5.4466,-5.4333,-5.3964,-5.1127,-5.1089,-5.1062,-5.1034,-5.1097,-5.1509,-5.1713,-5.1776,-5.199,-5.2281,-5.2836,-5.358,-5.4341,-5.5033,-5.6311,-5.7354,-5.8116,-5.8751,-5.9062,-5.9253,-5.9177,-5.9139,-5.9061,-5.8982,-5.8902,-5.8862,-5.8859,-5.8739,-5.8739,-5.8698,-5.8698,-5.8698,-5.8768,-5.9027,-5.9319,-5.9424,-5.9381,-5.9442,-5.9604,-5.9706,-6.0018,-6.0564,-6.0461,-6.0413,-6.0603,-6.0581,-6.0255,-6.0086,-5.9943,-5.9551,-5.9386,-5.9251,-5.9081,-5.9012,-5.8944,-5.884,-5.8701,-5.8456,-5.8314,-5.8099,-5.7954,-5.7954,-5.7881,-5.7881,-5.7881,-5.7881,-5.7881,-5.7881,-5.8017,-5.8084,-5.8152,-5.8186,-5.8389,-5.8592,-5.8693,-5.8795,-5.893,-5.9066,-5.9066,-5.9336,-5.9742,-5.9945,-6.0351,-6.0351,-6.0283,-6.0241,-6.0232,-6.0169,-5.999,-5.9771,-5.9268,-5.8645,-5.8005,-5.7519,-5.6965,-5.6352,-5.5956,-5.5651,-5.5381,-5.5209,-5.5209,-5.5209,-5.5209,-5.5209,-5.5209,-5.5209,-5.5209,-5.5209,-5.5209,-5.5108,-5.5108,-5.4773,-5.4436,-5.4304,-5.389,-5.1048,-5.1073,-5.099,-5.1115,-5.1498,-5.2126,-5.2549,-5.2752,-5.2833,-5.3135,-5.3575,-5.4574,-5.5275,-5.576,-5.7066,-5.8013,-5.8264,-5.8913,-5.9215,-5.9101,-5.9022,-5.8982,-5.8942,-5.8899,-5.8821,-5.8818,-5.8739,-5.8698,-5.8698,-5.8735,-5.8772,-5.9218,-5.9139,-5.9536,-5.993,-6.01,-6.0186,-6.0241,-6.032,-6.0262,-6.0522,-6.0917,-6.0827,-6.0554,-6.082,-6.0529,-6.0199,-5.9943,-5.9617,-5.9319,-5.9251,-5.9149,-5.9012,-5.8944,-5.8909,-5.8771,-5.849,-5.8348,-5.8171,-5.8027,-5.7954,-5.7881,-5.7915,-5.7876,-5.7876,-5.7876,-5.7915,-5.7881,-5.8152,-5.8389,-5.849,-5.8626,-5.8998,-5.937,-5.9505,-5.9641,-5.981,-6.0013,-6.0216,-6.0452,-6.0655,-6.0791,-6.0892,-6.0926,-6.0951,-6.1109,-6.1088,-6.0952,-6.0617,-6.0275,-5.9605,-5.8894,-5.8196,-5.7559,-5.6988,-5.6342,-5.5849,-5.5581,-5.5381,-5.5209,-5.5209,-5.5209,-5.5209,-5.5209,-5.5209,-5.5209,-5.5209,-5.5209,-5.5209,-5.5108,-5.5006,-5.4773,-5.4436,-5.4023,-5.35,-5.1037,-5.116,-5.1099,-5.1559,-5.2146,-5.2854,-5.3407,-5.3925,-5.4153,-5.4282,-5.4509,-5.5579,-5.6177,-5.6633,-5.7612,-5.8192,-5.8501,-5.8953,-5.91,-5.8984,-5.8902,-5.8899,-5.8859,-5.8777,-5.8739,-5.8698,-5.8698,-5.8698,-5.8735,-5.8921,-5.9329,-5.9844,-5.9869,-6.0189,-6.0757,-6.0635,-6.0738,-6.1039,-6.1047,-6.0933,-6.0792,-6.0963,-6.114,-6.0564,-6.0352,-6.01,-5.9814,-5.9485,-5.9319,-5.9251,-5.9149,-5.9012,-5.8944,-5.8909,-5.884,-5.8631,-5.8419,-5.8277,-5.8099,-5.7954,-5.8017,-5.8017,-5.8017,-5.818,-5.8281,-5.8214,-5.8254,-5.849,-5.8721,-5.9032,-5.9167,-5.937,-5.9674,-6.0047,-6.025,-6.0486,-6.0791,-6.0926,-6.1061,-6.1264,-6.1366,-6.1535,-6.167,-6.1704,-6.1447,-6.1807,-6.1669,-6.1494,-6.097,-6.0501,-5.987,-5.8992,-5.8332,-5.7559,-5.6796,-5.6244,-5.5681,-5.5381,-5.528,-5.5209,-5.5209,-5.5209,-5.5209,-5.5209,-5.5209,-5.5209,-5.5209,-5.5209,-5.5179,-5.5179,-5.4976,-5.4743,-5.4436,-5.3919,-5.329,-5.1331,-5.1966,-5.2536,-5.2875,-5.2993,-5.3656,-5.3886,-5.3933,-5.5084,-5.5511,-5.5662,-5.592,-5.6657,-5.7616,-5.786,-5.8315,-5.884,-5.8835,-5.8942,-5.8862,-5.8818,-5.8777,-5.8777,-5.8698,-5.8698,-5.8698,-5.8698,-5.8735,-5.8921,-5.9292,-5.9658,-5.9906,-6.0226,-6.095,-6.1492,-6.1239,-6.1354,-6.157,-6.1279,-6.1112,-6.084,-6.0629,-6.0574,-6.0199,-5.9844,-5.9714,-5.9485,-5.9351,-5.9183,-5.9081,-5.9012,-5.9012,-5.9012,-5.884,-5.8701,-5.8561,-5.8314,-5.8099,-5.8061,-5.809,-5.822,-5.8626,-5.8721,-5.889,-5.8957,-5.8754,-5.8896,-5.9126,-5.9396,-5.9708,-5.9911,-6.0148,-6.0385,-6.0723,-6.0994,-6.1332,-6.1704,-6.1772,-6.1839,-6.1941,-6.2076,-6.2178,-6.2347,-6.2268,-6.2076,-6.1917,-6.1595,-6.1268,-6.0736,-6.0226,-5.9707,-5.8998,-5.8303,-5.759,-5.67,-5.6145,-5.5681,-5.5381,-5.5179,-5.5209,-5.5209,-5.5209,-5.5209,-5.5209,-5.5209,-5.5209,-5.5209,-5.5209,-5.5179,-5.5179,-5.4976,-5.4641,-5.4259,-5.3768,-5.3213,-5.1989,-5.284,-5.3549,-5.3783,-5.3755,-5.4317,-5.4596,-5.4844,-5.5497,-5.6229,-5.6794,-5.6839,-5.7296,-5.82,-5.824,-5.8461,-5.8984,-5.8862,-5.8859,-5.8739,-5.8739,-5.8698,-5.8698,-5.8698,-5.8698,-5.8698,-5.8735,-5.8846,-5.9292,-5.9542,-5.9906,-6.0596,-6.1246,-6.1529,-6.1985,-6.188,-6.1623,-6.1564,-6.1198,-6.0843,-6.06,-6.0388,-6.0072,-5.9748,-5.9551,-5.9418,-5.9284,-5.9149,-5.9081,-5.9012,-5.9012,-5.9012,-5.8944,-5.8771,-5.8631,-5.849,-5.8243,-5.8027,-5.8056,-5.8254,-5.8592,-5.9032,-5.9396,-5.9565,-5.976,-5.9659,-6.0054,-6.025,-6.0419,-6.0655,-6.0825,-6.1028,-6.1366,-6.167,-6.1772,-6.1941,-6.2076,-6.2144,-6.2178,-6.2212,-6.2279,-6.2279,-6.2302,-6.2189,-6.1997,-6.179,-6.1547,-6.0969,-6.043,-5.9914,-5.9387,-5.885,-5.8119,-5.7401,-5.6603,-5.6047,-5.5581,-5.5381,-5.5209,-5.5209,-5.5209,-5.5209,-5.5209,-5.5209,-5.5209,-5.5209,-5.5209,-5.5209,-5.5209,-5.5179,-5.4875,-5.4568,-5.4111,-5.3838,-5.3432,-5.2824,-5.3658,-5.4362,-5.4545,-5.4403,-5.4867,-5.5321,-5.5692,-5.583,-5.6517,-5.7604,-5.7866,-5.7978,-5.8239,-5.8532,-5.875,-5.8859,-5.8777,-5.8698,-5.8698,-5.8698,-5.8698,-5.8698,-5.8698,-5.8809,-5.8916,-5.899,-5.9473,-6.003,-6.0351,-6.0885,-6.1874,-6.2045,-6.2058,-6.2369,-6.2202,-6.1804,-6.1315,-6.0843,-6.029,-6.0072,-5.9879,-5.9617,-5.9418,-5.9284,-5.9217,-5.9081,-5.9012,-5.9012,-5.9012,-5.9012,-5.9012,-5.8875,-5.8771,-5.8561,-5.8419,-5.8371,-5.8225,-5.8287,-5.8795,-5.9167,-5.9539,-5.9979,-6.0275,-6.0502,-6.0738,-6.1138,-6.124,-6.1332,-6.1467,-6.1637,-6.1772,-6.211,-6.2313,-6.2347,-6.2347,-6.2381,-6.2415,-6.2415,-6.2415,-6.2415,-6.2415,-6.2268,-6.2076,-6.187,-6.1628,-6.1219,-6.06,-6.0087,-5.9564,-5.903,-5.8487,-5.784,-5.7084,-5.6439,-5.6047,-5.5681,-5.5381,-5.5209,-5.5209,-5.5209,-5.5209,-5.5209,-5.5209,-5.5209,-5.5209,-5.5209,-5.5209,-5.5209,-5.5239,-5.504,-5.482,-5.4596,-5.4304,-5.4035,-5.3626,-5.44,-5.5168,-5.5346,-5.5159,-5.5119,-5.5359,-5.581,-5.6326,-5.6968,-5.7711,-5.83,-5.8598,-5.8681,-5.8669,-5.8777,-5.8739,-5.8698,-5.8698,-5.8698,-5.8698,-5.8698,-5.8735,-5.8809,-5.9144,-5.9361,-5.9616,-6.0055,-6.0633,-6.1172,-6.1513,-6.1801,-6.2414,-6.2369,-6.2023,-6.1804,-6.1523,-6.1058,-6.0635,-6.0072,-5.9718,-5.952,-5.9284,-5.9149,-5.9081,-5.9012,-5.9012,-5.9012,-5.9012,-5.9012,-5.9012,-5.9012,-5.8875,-5.8701,-5.8595,-5.8692,-5.8642,-5.8767,-5.8964,-5.9505,-5.9945,-6.052,-6.096,-6.1298,-6.1491,-6.1761,-6.1941,-6.1941,-6.2042,-6.2042,-6.2144,-6.2144,-6.2381,-6.2381,-6.2381,-6.2381,-6.2381,-6.2415,-6.2415,-6.2415,-6.2415,-6.2302,-6.211,-6.1917,-6.1628,-6.1301,-6.0886,-6.0292,-5.9772,-5.9241,-5.861,-5.8026,-5.7464,-5.7081,-5.6659,-5.6176,-5.578,-5.5481,-5.5209,-5.5209,-5.5209,-5.5209,-5.5209,-5.5209,-5.5209,-5.5209,-5.5209,-5.5209,-5.5299,-5.5287,-5.5293,-5.5188,-5.5066,-5.4827,-5.439]}]]